[[{"header":{"parameterUnit":"m.s-1","parameterCategory":1,"la1":30.6,"la2":29.2853,"lo1":-89.7004,"lo2":-87.6739,"dy":0.0162,"dx":0.0183,"nx":112,"ny":82,"refTime":"2023-09-28T00:00:00:Z","depth":0,"parameterNumber":2,"parameterNumberName":"U-component_of_WINDS"},"data":[0.0,0.0,0.0,0.0,0.0,0.0,0.0,0.0,0.0,0.0,0.0,0.0,0.0,0.0,0.0,0.0,0.0,0.0,0.0,0.0,0.0,0.0,0.0,0.0,0.0,0.0,0.0,0.0,0.0,0.0,0.0,0.0,0.0,0.0,0.0,0.0,0.0,0.0,0.0,0.0,0.0,0.0,0.0,0.0,0.0,0.0,0.0,0.0,0.0,0.0,0.0,0.0,0.0,0.0,0.0,0.0,0.0,0.0,0.0,0.0,0.0,0.0,0.0,0.0,0.0,0.0,0.0,0.0,0.0,0.0,0.0,0.0,0.0,0.0,0.0,0.0,0.0,0.0,0.0,0.0,0.0,0.0,0.0,0.0,0.0,0.0,0.0,0.0,0.0,0.0,-0.4616,-0.5349,-0.5355,-0.493,-0.3982,-0.2745,-0.1439,-0.0082,0.0,0.0,0.0,0.0,0.0,0.0,0.0,0.0,0.0,0.0,0.0,0.0,0.0,0.0,0.0,0.0,0.0,0.0,0.0,0.0,0.0,0.0,0.0,0.0,0.0,0.0,0.0,0.0,0.0,0.0,0.0,0.0,0.0,0.0,0.0,0.0,0.0,0.0,0.0,0.0,0.0,0.0,0.0,0.0,0.0,0.0,0.0,0.0,0.0,0.0,0.0,0.0,0.0,0.0,0.0,0.0,0.0,0.0,0.0,0.0,0.0,0.0,0.0,0.0,0.0,0.0,0.0,0.0,0.0,0.0,0.0,0.0,0.0,0.0,0.0,0.0,0.0,0.0,0.0,0.0,0.0,0.0,0.0,0.0,0.0,0.0,0.0,0.0,0.0,0.0,0.0,0.0,0.0,0.0,0.0,0.0,0.0,0.0,0.0,0.0,0.0,0.0,0.0,0.0,-0.6173,-0.7185,-0.7224,-0.69,-0.6176,-0.5012,-0.3559,-0.1817,0.0,0.0,0.0,0.0,0.0,0.0,0.0,0.0,0.0,0.0,0.0,0.0,0.0,0.0,0.0,0.0,0.0,0.0,0.0,0.0,0.0,0.0,0.0,0.0,0.0,0.0,0.0,0.0,0.0,0.0,0.0,0.0,0.0,0.0,0.0,0.0,0.0,0.0,0.0,0.0,0.0,0.0,0.0,0.0,0.0,0.0,0.0,0.0,0.0,0.0,0.0,0.0,0.0,0.0,0.0,0.0,0.0,0.0,0.0,0.0,0.0,0.0,0.0,0.0,0.0,0.0,0.0,0.0,0.0,0.0,0.0,0.0,0.0,0.0,0.0,0.0,0.0,0.0,0.0,0.0,0.0,0.0,0.0,0.0,0.0,0.0,0.0,0.0,0.0,0.0,0.0,0.0,0.0,0.0,0.0,0.0,0.0,0.0,0.0,0.0,0.0,0.0,0.0,-0.7402,-0.7976,-0.8667,-0.8762,-0.8531,-0.7849,-0.6483,-0.5009,-0.3439,-0.0856,0.0,0.0,0.0,0.0,0.0,0.0,0.0,0.0,0.0,0.0,0.0,0.0,0.0,0.0,0.0,0.0,0.0,0.0,0.0,0.0,0.0,0.0,0.0,0.0,0.0,0.0,0.0,0.0,0.0,0.0,0.0,0.0,0.0,0.0,0.0,0.0,0.0,0.0,0.0,0.0,0.0,0.0,0.0,0.0,0.0,0.0,0.0,0.0,0.0,0.0,0.0,0.0,0.0,0.0,0.0,0.0,0.0,0.0,0.0,0.0,0.0,0.0,0.0,0.0,0.0,0.0,0.0,0.0,0.0,0.0,0.0,0.0,0.0,0.0,0.0,0.0,0.0,0.0,0.0,0.0,0.0,0.0,0.0,0.0,0.0,0.0,0.0,0.0,0.0,0.0,0.0,0.0,0.0,0.0,0.0,0.0,0.0,0.0,0.0,0.0,0.0,0.0,-0.8791,-0.9372,-0.9655,-0.9866,-0.9695,-0.9054,-0.7635,-0.6195,-0.4797,-0.2969,0.0,0.0,0.0,0.0,0.0,0.0,0.0,0.0,0.0,0.0,0.0,0.0,0.0,0.0,0.0,0.0,0.0,0.0,0.0,0.0,0.0,0.0,0.0,0.0,0.0,0.0,0.0,0.0,0.0,0.0,0.0,0.0,0.0,0.0,0.0,0.0,0.0,0.0,0.0,0.0,0.0,0.0,0.0,0.0,0.0,0.0,0.0,0.0,0.0,0.0,0.0,0.0,0.0,0.0,0.0,0.0,0.0,0.0,0.0,0.0,0.0,0.0,0.0,0.0,0.0,0.0,0.0,0.0,0.0,0.0,0.0,0.0,0.0,0.0,0.0,0.0,0.0,0.0,0.0,0.0,0.0,0.0,0.0,0.0,0.0,0.0,0.0,0.0,0.0,0.0,0.0,0.0,0.0,0.0,0.0,0.0,0.0,0.0,0.0,0.0,0.0,0.0,-0.9269,-0.9802,-0.9954,-1.0244,-1.019,-0.9589,-0.8581,-0.7309,-0.57,-0.43,0.0,0.0,0.0,0.0,0.0,0.0,0.0,0.0,0.0,0.0,0.0,0.0,0.0,0.0,0.0,0.0,0.0,0.0,0.0,0.0,0.0,0.0,0.0,0.0,0.0,0.0,0.0,0.0,0.0,0.0,0.0,0.0,0.0,0.0,0.0,0.0,0.0,0.0,0.0,0.0,0.0,0.0,0.0,0.0,0.0,0.0,0.0,0.0,0.0,0.0,0.0,0.0,0.0,0.0,0.0,0.0,0.0,0.0,0.0,0.0,0.0,0.0,0.0,0.0,0.0,0.0,0.0,0.0,0.0,0.0,0.0,0.0,0.0,0.0,0.0,0.0,0.0,0.0,0.0,0.0,0.0,0.0,0.0,0.0,0.0,0.0,0.0,0.0,0.0,0.0,0.0,0.0,0.0,0.0,0.0,0.0,0.0,0.0,0.0,0.0,0.0,0.0,-0.9755,-1.0122,-1.011,-1.0246,-1.0138,-0.9708,-0.8817,-0.7744,-0.6475,0.0,0.0,0.0,0.0,0.0,0.0,0.0,0.0,0.0,0.0,0.0,0.0,0.0,0.0,0.0,0.0,0.0,0.0,0.0,0.0,0.0,0.0,0.0,0.0,0.0,0.0,0.0,0.0,0.0,0.0,0.0,0.0,0.0,0.0,0.0,0.0,0.0,0.0,0.0,0.0,0.0,0.0,0.0,0.0,0.0,0.0,0.0,0.0,0.0,0.0,0.0,0.0,0.0,0.0,0.0,0.0,0.0,0.0,0.0,0.0,0.0,0.0,0.0,0.0,0.0,0.0,0.0,0.0,0.0,0.0,0.0,0.0,0.0,0.0,0.0,0.0,0.0,0.0,0.0,0.0,0.0,0.0,0.0,0.0,0.0,0.0,0.0,0.0,0.0,0.0,0.0,0.0,0.0,0.0,0.0,0.0,0.0,0.0,0.0,0.0,0.0,0.0,-0.9688,-1.0075,-1.034,-1.0372,-1.0335,-1.0186,-0.9847,-0.909,-0.8158,-0.7082,0.0,0.0,0.0,0.0,0.0,0.0,0.0,0.0,0.0,0.0,0.0,0.0,0.0,0.0,0.0,0.0,0.0,0.0,0.0,0.0,0.0,0.0,0.0,0.0,0.0,0.0,0.0,0.0,0.0,0.0,0.0,0.0,0.0,0.0,0.0,0.0,0.0,0.0,0.0,0.0,0.0,0.0,0.0,0.0,0.0,0.0,0.0,0.0,0.0,0.0,0.0,0.0,0.0,0.0,0.0,0.0,0.0,0.0,0.0,0.0,0.0,0.0,0.0,0.0,0.0,0.0,0.0,0.0,0.0,0.0,0.0,0.0,0.0,0.0,0.0,0.0,0.0,0.0,0.0,0.0,0.0,0.0,0.0,0.0,0.0,0.0,0.0,0.0,0.0,0.0,0.0,0.0,0.0,0.0,0.0,0.0,0.0,0.0,0.0,0.0,0.0,0.0,-0.9731,-1.0167,-1.0483,-1.0685,-1.0647,-1.0464,-1.0126,-0.9502,-0.8661,0.0,0.0,0.0,0.0,0.0,0.0,0.0,0.0,0.0,0.0,0.0,0.0,0.0,0.0,0.0,0.0,0.0,0.0,0.0,0.0,0.0,0.0,0.0,0.0,0.0,0.0,0.0,0.0,0.0,0.0,0.0,0.0,0.0,0.0,0.0,0.0,0.0,0.0,0.0,0.0,0.0,0.0,0.0,0.0,0.0,0.0,0.0,0.0,0.0,0.0,0.0,0.0,0.0,0.0,0.0,0.0,0.0,0.0,0.0,0.0,0.0,0.0,0.0,0.0,0.0,0.0,0.0,0.0,0.0,0.0,0.0,0.0,0.0,0.0,0.0,0.0,0.0,0.0,0.0,0.0,0.0,0.0,0.0,0.0,0.0,0.0,0.0,0.0,0.0,0.0,0.0,0.0,0.0,0.0,0.0,0.0,0.0,0.0,0.0,0.0,0.0,0.0,0.0,-1.026,-1.0527,-1.0621,-1.0508,-1.047,-1.043,-1.033,-0.9954,-0.9355,-0.8477,0.0,0.0,0.0,0.0,0.0,0.0,0.0,0.0,0.0,0.0,0.0,0.0,0.0,0.0,0.0,0.0,0.0,0.0,0.0,0.0,0.0,0.0,0.0,0.0,0.0,0.0,0.0,0.0,0.0,0.0,0.0,0.0,0.0,0.0,0.0,0.0,0.0,0.0,0.0,0.0,0.0,0.0,0.0,0.0,0.0,0.0,0.0,0.0,0.0,0.0,0.0,0.0,0.0,0.0,0.0,0.0,0.0,0.0,0.0,0.0,0.0,0.0,0.0,0.0,0.0,0.0,0.0,0.0,0.0,0.0,0.0,0.0,0.0,0.0,0.0,0.0,0.0,0.0,0.0,0.0,0.0,0.0,0.0,0.0,0.0,0.0,0.0,0.0,0.0,0.0,0.0,0.0,0.0,0.0,0.0,0.0,0.0,0.0,0.0,0.0,0.0,0.0,-1.0637,-1.0942,-1.1043,-1.0754,-1.0732,-1.0683,-1.056,-1.0314,-0.9858,-0.9136,0.0,0.0,0.0,0.0,0.0,0.0,0.0,0.0,0.0,0.0,0.0,0.0,0.0,0.0,0.0,0.0,0.0,0.0,0.0,0.0,0.0,0.0,0.0,0.0,0.0,0.0,0.0,0.0,0.0,0.0,0.0,0.0,0.0,0.0,0.0,0.0,0.0,0.0,0.0,0.0,0.0,0.0,0.0,0.0,0.0,0.0,0.0,0.0,0.0,0.0,0.0,0.0,0.0,0.0,0.0,0.0,0.0,0.0,0.0,0.0,0.0,0.0,0.0,0.0,0.0,0.0,0.0,0.0,0.0,0.0,0.0,0.0,0.0,0.0,0.0,0.0,0.0,0.0,0.0,0.0,0.0,0.0,0.0,0.0,0.0,0.0,0.0,0.0,0.0,0.0,0.0,0.0,0.0,0.0,0.0,0.0,0.0,0.0,0.0,0.0,0.0,0.0,-1.0954,-1.1422,-1.1618,-1.1317,-1.1272,-1.1174,-1.0929,-1.0683,-1.0246,-0.9626,0.0,0.0,0.0,0.0,0.0,0.0,0.0,0.0,0.0,0.0,0.0,0.0,0.0,0.0,0.0,0.0,0.0,0.0,0.0,0.0,0.0,0.0,0.0,0.0,0.0,0.0,0.0,0.0,0.0,0.0,0.0,0.0,0.0,0.0,0.0,0.0,0.0,0.0,0.0,0.0,0.0,0.0,0.0,0.0,0.0,0.0,0.0,0.0,0.0,0.0,0.0,0.0,0.0,0.0,0.0,0.0,0.0,0.0,0.0,0.0,-1.5944,-1.494,0.0,0.0,0.0,0.0,0.0,0.0,0.0,0.0,0.0,0.0,0.0,0.0,0.0,0.0,0.0,0.0,0.0,0.0,0.0,0.0,0.0,0.0,0.0,0.0,0.0,0.0,0.0,0.0,0.0,0.0,0.0,0.0,0.0,0.0,0.0,0.0,0.0,0.0,0.0,0.0,-1.1504,-1.1773,-1.1905,-1.1838,-1.1834,-1.181,-1.1761,-1.1492,-1.1067,-1.0417,-0.9972,0.0,0.0,0.0,0.0,0.0,0.0,0.0,0.0,0.0,0.0,0.0,0.0,0.0,0.0,0.0,0.0,0.0,0.0,0.0,0.0,0.0,0.0,0.0,0.0,0.0,0.0,0.0,0.0,0.0,0.0,0.0,0.0,0.0,0.0,0.0,0.0,0.0,0.0,0.0,0.0,0.0,0.0,0.0,0.0,0.0,0.0,0.0,0.0,0.0,0.0,0.0,0.0,0.0,0.0,0.0,0.0,0.0,0.0,0.0,-1.7423,-1.6403,0.0,0.0,0.0,0.0,0.0,0.0,0.0,0.0,0.0,0.0,0.0,0.0,0.0,0.0,0.0,0.0,0.0,0.0,0.0,0.0,0.0,0.0,0.0,0.0,0.0,0.0,0.0,0.0,0.0,0.0,0.0,0.0,0.0,0.0,0.0,0.0,0.0,0.0,0.0,0.0,-1.183,-1.2176,-1.2293,-1.2043,-1.2127,-1.2151,-1.2005,-1.1883,-1.1598,-1.1154,-1.089,0.0,0.0,0.0,0.0,0.0,0.0,0.0,0.0,0.0,0.0,0.0,0.0,0.0,0.0,0.0,0.0,0.0,0.0,0.0,0.0,0.0,0.0,0.0,0.0,0.0,0.0,0.0,0.0,0.0,0.0,0.0,0.0,0.0,0.0,0.0,0.0,0.0,0.0,0.0,0.0,0.0,0.0,0.0,0.0,0.0,0.0,0.0,0.0,0.0,0.0,0.0,0.0,0.0,-2.0825,-2.0908,-2.0827,-2.0738,-2.0659,-2.0538,-1.8812,-1.8046,-1.7925,-1.7023,0.0,0.0,0.0,0.0,0.0,0.0,0.0,0.0,0.0,0.0,0.0,0.0,0.0,0.0,0.0,0.0,0.0,0.0,0.0,0.0,0.0,0.0,-1.3003,-1.3212,-1.3136,-1.2898,-1.2529,0.0,0.0,0.0,0.0,0.0,0.0,0.0,0.0,0.0,0.0,0.0,-1.2076,-1.2499,-1.2638,-1.22,-1.2346,-1.237,-1.2151,-1.2102,-1.1986,-1.1786,-1.1728,-1.1311,0.0,0.0,0.0,0.0,0.0,0.0,0.0,0.0,0.0,0.0,0.0,0.0,0.0,0.0,0.0,0.0,0.0,0.0,0.0,0.0,0.0,0.0,0.0,0.0,0.0,0.0,0.0,0.0,0.0,0.0,0.0,0.0,-1.6003,-1.6926,0.0,0.0,0.0,0.0,0.0,0.0,0.0,0.0,0.0,0.0,0.0,0.0,0.0,-2.1594,-2.1987,-2.2257,-2.2358,-2.2272,-2.2252,-2.2242,-2.2225,-2.1871,-2.1793,-2.193,-2.1101,0.0,-1.9208,-1.843,0.0,0.0,0.0,0.0,0.0,0.0,0.0,0.0,0.0,0.0,0.0,0.0,0.0,0.0,0.0,0.0,0.0,0.0,0.0,0.0,0.0,0.0,-1.3618,-1.3835,-1.3817,-1.379,-1.3898,-1.3369,-1.2854,-1.2824,-1.2731,-1.2657,0.0,0.0,0.0,0.0,0.0,0.0,-1.2344,-1.2619,-1.2759,-1.2686,-1.2735,-1.2735,-1.2686,-1.2467,-1.2252,-1.2057,-1.1823,-1.1452,-1.0938,-1.0577,0.0,0.0,0.0,0.0,0.0,0.0,0.0,0.0,0.0,0.0,0.0,0.0,0.0,0.0,0.0,0.0,0.0,0.0,0.0,0.0,0.0,0.0,0.0,0.0,0.0,0.0,0.0,0.0,0.0,-1.5564,-1.6629,-1.728,-1.7386,-1.764,0.0,0.0,0.0,0.0,0.0,0.0,0.0,0.0,0.0,-2.1354,-2.1968,-2.2366,-2.2487,-2.2815,-2.2898,-2.2649,-2.2635,-2.2607,-2.2607,-2.2439,-2.241,-2.2455,-2.2059,-2.1502,-2.0842,-1.9682,-1.867,-1.7721,0.0,0.0,0.0,0.0,-1.5857,-1.5427,-1.5741,-1.5388,-1.4832,-1.5101,0.0,0.0,0.0,0.0,0.0,0.0,0.0,-1.324,-1.3627,-1.3807,-1.3981,-1.4354,-1.4442,-1.4448,-1.46,-1.4313,-1.3854,-1.3338,-1.3203,-1.3107,-1.2862,-1.2503,0.0,0.0,0.0,-1.2457,-1.2621,-1.2719,-1.2807,-1.2807,-1.2807,-1.2807,-1.2807,-1.2686,-1.2595,-1.2499,-1.2368,-1.2048,-1.1422,-1.1144,-1.0477,0.0,0.0,0.0,0.0,0.0,0.0,0.0,0.0,0.0,0.0,0.0,0.0,0.0,0.0,0.0,0.0,0.0,0.0,0.0,0.0,0.0,0.0,0.0,0.0,0.0,0.0,0.0,0.0,-1.6398,-1.7261,-1.7851,-1.805,-1.834,0.0,0.0,0.0,0.0,0.0,0.0,-2.1102,-2.1294,-2.1531,-2.1765,-2.2459,-2.2785,-2.2622,-2.2974,-2.2977,-2.2686,-2.2686,-2.2654,-2.2589,-2.2589,-2.2557,-2.2492,-2.232,-2.2105,-2.1793,-2.0712,-1.973,-1.8796,-1.8258,-1.7764,-1.7367,-1.7367,-1.7004,-1.6545,-1.696,-1.6589,-1.5986,-1.6246,-1.587,-1.5186,-1.4671,0.0,0.0,0.0,0.0,-1.3991,-1.4415,-1.449,-1.4613,-1.4939,-1.5044,-1.507,-1.5095,-1.4986,-1.4627,-1.3754,-1.3534,-1.3366,-1.2945,-1.2686,0.0,-1.2762,-1.2643,-1.2565,-1.2762,-1.2807,-1.2807,-1.2807,-1.2807,-1.2807,-1.2807,-1.2807,-1.2807,-1.2807,-1.2807,-1.2515,-1.1891,-1.168,-1.1029,-0.9849,0.0,0.0,0.0,0.0,0.0,0.0,0.0,0.0,0.0,0.0,0.0,0.0,0.0,0.0,0.0,0.0,0.0,0.0,0.0,0.0,0.0,0.0,0.0,0.0,0.0,0.0,0.0,0.0,0.0,-1.8925,-1.8932,0.0,0.0,0.0,0.0,-2.0959,-2.1055,-2.1587,-2.2798,-2.2465,-2.2436,-2.2812,-2.277,-2.2708,-2.2686,-2.2719,-2.2729,-2.2686,-2.2686,-2.2568,-2.231,-2.231,-2.2234,-2.2029,-2.2019,-2.1868,-2.1609,-2.133,-2.078,-2.0059,-1.9312,-1.8753,-1.8334,-1.8334,-1.8113,-1.7861,-1.8331,-1.8233,-1.7828,-1.7662,-1.6658,-1.5414,-1.5147,-1.463,0.0,0.0,-1.5256,-1.5388,-1.5802,-1.5891,-1.5841,-1.5607,-1.5657,-1.568,-1.5431,-1.5254,-1.4952,-1.42,-1.3758,-1.342,-1.3136,0.0,-1.2772,-1.2807,-1.2783,-1.2772,-1.2807,-1.2807,-1.2807,-1.2807,-1.2807,-1.2807,-1.2807,-1.2807,-1.2807,-1.2807,-1.2807,-1.2662,-1.2374,-1.2349,-1.1838,-1.0745,-1.0081,0.0,0.0,0.0,0.0,0.0,0.0,0.0,0.0,0.0,0.0,0.0,0.0,0.0,0.0,0.0,0.0,0.0,0.0,0.0,0.0,0.0,0.0,0.0,0.0,0.0,0.0,0.0,0.0,-1.9553,-1.9838,0.0,-2.0292,-2.0243,-2.0558,-2.142,-2.1672,-2.2094,-2.2714,-2.2635,-2.2627,-2.2761,-2.2837,-2.2879,-2.2879,-2.3063,-2.3063,-2.2869,-2.2762,-2.2557,-2.2288,-2.218,-2.2062,-2.1965,-2.1814,-2.162,-2.1383,-2.1136,-2.0888,-2.0619,-2.0221,-1.9865,-1.9505,-1.923,-1.8627,-1.798,-1.818,-1.7421,-1.6386,-1.6061,-1.5523,-1.498,-1.5047,-1.4641,-1.4277,-1.464,-1.4736,-1.4807,-1.4916,-1.5184,-1.5453,-1.5565,-1.5689,-1.5804,-1.5787,-1.5609,-1.5303,-1.4707,-1.4266,-1.3911,-1.3825,-1.3351,-1.3064,-1.3226,-1.2988,-1.2807,-1.2807,-1.2807,-1.2807,-1.2807,-1.2807,-1.2807,-1.2807,-1.2807,-1.2807,-1.2807,-1.2638,-1.2419,-1.2151,-1.198,-1.1468,-1.056,-0.9976,-0.9087,0.0,0.0,0.0,0.0,0.0,0.0,0.0,0.0,0.0,0.0,0.0,0.0,0.0,0.0,0.0,0.0,0.0,0.0,0.0,0.0,0.0,0.0,0.0,0.0,0.0,-1.8907,-2.0005,-2.0442,-2.0906,-2.1245,-2.137,-2.1322,-2.1541,-2.2114,-2.2334,-2.2581,-2.2876,-2.2935,-2.2891,-2.2805,-2.2922,-2.2933,-2.2772,-2.2922,-2.2923,-2.2643,-2.2525,-2.232,-2.2041,-2.1933,-2.1771,-2.164,-2.1448,-2.1243,-2.1068,-2.0856,-2.0712,-2.0572,-2.0337,-2.0079,-1.9744,-1.9193,-1.8428,-1.7672,-1.7483,-1.653,-1.5266,-1.4854,-1.4461,-1.4118,-1.4096,-1.3874,-1.3653,-1.3829,-1.394,-1.4071,-1.4342,-1.472,-1.5061,-1.5284,-1.5481,-1.5597,-1.554,-1.547,-1.5328,-1.5037,-1.4602,-1.4288,-1.4213,-1.3793,-1.3523,-1.3722,-1.3333,-1.3031,-1.3031,-1.2891,-1.2807,-1.2807,-1.2807,-1.2807,-1.2807,-1.2807,-1.2759,-1.2662,-1.2419,-1.2151,-1.1883,-1.1614,-1.11,-1.029,-0.9377,-0.8505,-0.7621,0.0,0.0,0.0,0.0,0.0,0.0,0.0,0.0,0.0,0.0,0.0,0.0,0.0,0.0,0.0,0.0,0.0,0.0,0.0,0.0,0.0,0.0,0.0,-1.8842,-1.9903,-2.0917,-2.1577,-2.2041,-2.246,-2.2686,-2.2503,-2.2514,-2.2987,-2.3019,-2.3127,-2.3386,-2.3397,-2.3289,-2.3019,-2.2998,-2.2772,-2.231,-2.2299,-2.2223,-2.2028,-2.1997,-2.1868,-2.1631,-2.162,-2.1351,-2.091,-2.091,-2.077,-2.0565,-2.0554,-2.028,-1.9897,-1.9667,-1.9314,-1.8869,-1.817,-1.7529,-1.6899,-1.6351,-1.553,-1.4611,-1.422,-1.3555,-1.2827,-1.2367,-1.2338,-1.2474,-1.2633,-1.2947,-1.3374,-1.4104,-1.4553,-1.4799,-1.4726,-1.4995,-1.5113,-1.465,-1.4828,-1.5056,-1.5056,-1.4745,-1.4448,-1.4277,-1.4223,-1.4213,-1.4213,-1.3803,0.0,-1.3549,-1.3128,-1.2837,-1.2848,-1.2837,-1.2826,-1.2813,-1.2813,-1.268,-1.2402,-1.2133,-1.1864,-1.1595,-1.1325,-1.0784,-0.9978,-0.8432,-0.7465,-0.7113,0.0,0.0,0.0,0.0,0.0,0.0,0.0,0.0,0.0,0.0,0.0,0.0,0.0,0.0,0.0,0.0,0.0,0.0,0.0,0.0,0.0,-1.7378,-1.895,-1.9955,-2.1093,-2.2051,-2.2546,-2.2879,-2.3128,-2.3192,-2.3138,-2.316,-2.3289,-2.3461,-2.3504,-2.3408,-2.3397,-2.3289,-2.3019,-2.288,-2.2718,-2.2589,-2.2589,-2.2557,-2.2482,-2.2148,-2.1954,-2.1857,-2.1523,-2.1297,-2.1168,-2.0665,-2.0345,-2.0085,-1.9274,-1.8763,-1.8595,-1.9003,-1.8735,-1.8,-1.6934,-1.556,-1.4078,-1.3186,-1.2518,-1.1971,-1.1581,-1.1283,-1.1064,-1.074,-1.067,-1.0654,-1.0505,-1.077,-1.1167,-1.1597,-1.2221,-1.2749,-1.2874,-1.343,-1.3873,-1.362,-1.3833,-1.4072,-1.4072,-1.3996,-1.42,-1.508,-1.4783,-1.4476,-1.4665,-1.4326,-1.4116,-1.4477,-1.4121,-1.3853,-1.3951,-1.3651,-1.3267,-1.2783,-1.273,-1.2556,-1.2148,-1.1671,-1.1384,-1.1245,-1.0776,-1.0187,-0.9433,-0.8602,-0.7938,0.0,0.0,0.0,0.0,0.0,0.0,0.0,0.0,0.0,0.0,0.0,0.0,0.0,0.0,0.0,0.0,0.0,0.0,0.0,0.0,0.0,0.0,-1.6902,-1.835,-1.9942,-2.1471,-2.2618,-2.2935,-2.3413,-2.3698,-2.3698,-2.3698,-2.3698,-2.3698,-2.3828,-2.384,-2.3558,-2.3592,-2.344,-2.3159,-2.2966,-2.2783,-2.2686,-2.2589,-2.2482,-2.2374,-2.2116,-2.1849,-2.1565,-2.1299,-2.0862,-2.031,-1.9925,-1.9423,-1.8818,-1.7938,-1.7292,-1.6886,0.0,0.0,0.0,0.0,-1.2978,-1.1753,-1.1106,-1.0521,-1.0011,-0.9771,-0.959,-0.9407,-0.9214,-0.9115,-0.9072,-0.9019,-0.9157,-0.9416,-0.9908,-1.0471,-1.1015,-1.1347,-1.1901,-1.2345,-1.2281,-1.2526,-1.2721,-1.2702,-1.2895,0.0,-1.4063,-1.417,-1.4276,-1.4553,-1.422,-1.4124,-1.4696,-1.4072,-1.3679,-1.396,-1.3329,-1.2762,-1.2355,-1.2182,0.0,0.0,0.0,-1.0534,-1.0155,-0.9721,0.0,0.0,0.0,-0.7709,-0.7382,-0.6993,0.0,0.0,-0.6694,-0.6675,0.0,0.0,0.0,0.0,0.0,0.0,0.0,0.0,0.0,0.0,0.0,0.0,0.0,0.0,0.0,0.0,-1.5975,-1.7165,-1.8761,-2.0763,-2.2291,-2.2711,-2.343,-2.3832,-2.3832,-2.3935,-2.4026,-2.4026,-2.4026,-2.3919,-2.3718,-2.3606,0.0,0.0,0.0,-2.2616,-2.2416,-2.2171,-2.1948,-2.1747,-2.1736,-2.1358,-2.0714,-2.0724,-1.9987,-1.8732,-1.8692,-1.8018,-1.6911,-1.6426,-1.5604,-1.468,-1.5025,-1.4621,-1.3525,-1.139,-1.0279,-0.9821,-0.9666,0.0,0.0,-0.8512,-0.8259,-0.795,-0.7884,-0.7776,-0.7708,-0.7952,-0.7974,-0.8056,-0.8684,-0.9111,-0.948,-1.0,-1.0383,-1.0681,-1.0707,-1.0953,-1.1117,-1.1043,-1.1466,-1.1812,-1.1826,-1.2805,-1.3684,-1.3992,-1.3664,-1.3684,-1.444,-1.347,-1.2897,-1.3336,-1.243,0.0,-1.1687,-1.1383,-1.107,-1.0769,-1.0216,-0.9557,-0.8813,-0.8547,-0.8379,-0.8357,-0.7539,-0.7124,-0.7067,-0.6538,-0.635,-0.6495,-0.663,-0.6514,0.0,0.0,0.0,0.0,0.0,0.0,0.0,0.0,0.0,0.0,0.0,0.0,0.0,0.0,0.0,-1.2424,-1.388,-1.5146,-1.5715,-1.7326,-1.9164,-2.1212,-2.1998,-2.234,-2.234,-2.3051,-2.3521,-2.3521,-2.3521,-2.3406,-2.3164,-2.2384,-2.183,-2.1621,-2.1159,-2.0845,-2.0686,-2.0647,-2.0511,-2.0288,-2.008,0.0,-1.9044,-1.8917,-1.8197,-1.7112,-1.6745,-1.5943,-1.4885,-1.4117,-1.2775,-1.1346,-1.2278,-1.183,-1.0577,-0.9747,-0.8872,-0.8141,-0.807,-0.7747,-0.7317,-0.7317,-0.728,-0.7191,-0.713,-0.7006,0.0,-0.6924,-0.6863,-0.6886,-0.7316,-0.765,-0.7987,-0.8236,-0.8758,-0.9166,-0.908,-0.9329,-0.9538,-0.946,-0.9528,-0.9581,-0.9464,-1.1382,-1.2934,-1.2994,-1.2901,-1.3138,-1.392,-1.3254,-1.2888,-1.3335,-1.2389,-1.1519,-1.1045,-1.0688,-1.0303,-0.9879,-0.9492,-0.9088,-0.8648,-0.8486,-0.827,-0.8001,-0.7556,-0.7195,-0.693,-0.6809,-0.6647,-0.6432,-0.65,-0.6465,0.0,0.0,0.0,0.0,0.0,0.0,0.0,0.0,0.0,0.0,0.0,-1.0844,-1.0814,0.0,-1.1095,-1.1447,-1.2245,-1.308,-1.3715,-1.4599,-1.6184,-1.8943,-1.9918,-2.0381,-2.0381,-2.1325,-2.1889,-2.1889,-2.1889,-2.184,-2.1732,-2.075,-2.0143,-2.0052,-1.9443,-1.9065,-1.8978,-1.883,-1.8681,-1.8585,-1.8392,-1.7983,-1.7332,-1.7009,-1.6235,-1.5188,-1.4693,-1.393,-1.2971,-1.1966,-1.0732,-0.9515,-0.998,-0.9693,-0.8953,-0.8421,-0.7946,-0.7485,-0.7475,-0.731,-0.7162,-0.7162,-0.7096,-0.7047,-0.7003,-0.6896,-0.6782,-0.6768,-0.6661,-0.6588,-0.6758,-0.6888,-0.7074,-0.7318,-0.7667,-0.7901,-0.7956,-0.8092,-0.8183,-0.8097,-0.8228,-0.8337,-0.8276,-0.9442,-1.0602,-1.1163,-1.1261,-1.1634,-1.2726,-1.1909,-1.1464,-1.2055,-1.0859,-0.9937,-0.9633,-0.9299,-0.8939,-0.854,-0.8353,-0.8087,-0.7755,-0.7687,-0.7566,-0.7419,-0.7077,-0.6806,-0.6653,-0.6469,-0.6315,-0.6158,-0.6185,-0.6194,0.0,0.0,0.0,0.0,0.0,0.0,0.0,-0.9474,-0.9696,-0.9869,-0.9856,-0.9906,-1.0193,-1.0045,-1.0082,-1.0744,-1.0881,-1.1201,-1.2056,-1.2331,-1.3381,-1.5809,-1.7258,-1.805,-1.819,-1.9082,-1.9694,-1.9796,-1.9843,-1.9796,-1.9648,-1.871,-1.8144,-1.805,-1.735,-1.6988,-1.6957,-1.6687,-1.6518,-1.6449,-1.6354,-1.5965,-1.5263,-1.4909,-1.4125,-1.3011,-1.2448,-1.181,-1.1112,-1.0055,-0.9216,-0.8512,-0.8354,-0.8219,-0.8067,-0.758,-0.7362,-0.7322,-0.7306,-0.7302,-0.7302,-0.7302,-0.7211,-0.715,-0.7092,-0.7011,-0.6912,-0.6895,-0.6772,-0.6615,-0.6615,-0.6596,-0.6606,-0.6876,-0.6926,-0.6958,-0.7115,-0.7149,-0.7135,-0.7034,-0.7236,-0.7414,-0.737,-0.7576,-0.8128,-0.9285,-0.9461,-0.9875,-1.103,-1.0166,-0.9694,-1.032,-0.9114,-0.8245,-0.8184,-0.7906,-0.7665,-0.7387,-0.7357,-0.7238,-0.696,-0.6879,-0.6839,-0.6839,-0.6478,-0.6311,-0.6311,-0.6039,-0.5886,-0.5886,-0.5886,-0.5886,-0.8586,-0.8538,-0.848,-0.8571,-0.8292,-0.8067,0.0,-0.8588,-0.8827,-0.9159,-0.942,-0.9573,-0.94,-0.9406,-0.9422,-0.93,-0.964,-1.0016,-1.0201,-1.0649,-1.108,-1.1411,-1.3469,-1.5113,-1.5582,-1.6464,-1.7204,-1.7678,-1.7724,-1.7538,-1.7064,-1.6137,-1.5395,-1.4919,-1.4397,-1.4052,-1.3879,-1.3841,-1.3709,-1.3463,-1.3451,-1.3084,-1.2362,-1.2312,-1.172,-1.0611,-0.9798,-0.9409,-0.9275,-0.865,-0.8348,-0.8235,-0.8024,-0.795,-0.7901,-0.7603,-0.7452,-0.7362,-0.7326,-0.7302,-0.7302,-0.7302,-0.7293,-0.7269,-0.715,-0.7056,-0.6994,-0.6912,-0.6786,-0.6678,-0.6678,-0.667,-0.6696,-0.6731,-0.6704,-0.6642,-0.6664,-0.6631,-0.6544,-0.6419,-0.6431,-0.6413,-0.6223,-0.632,-0.6846,-0.8097,-0.8283,-0.8446,-0.8916,-0.8583,-0.8419,-0.8789,-0.8215,-0.7647,-0.736,-0.7297,-0.727,-0.7238,-0.7238,-0.7206,-0.7174,-0.6769,-0.6536,-0.6536,-0.6143,-0.5947,-0.5947,-0.5916,-0.5886,-0.5886,-0.5886,-0.5886,-0.7614,-0.7679,-0.7787,-0.7967,-0.7932,-0.7946,-0.8225,-0.8438,-0.8602,-0.8831,-0.9061,-0.918,-0.909,-0.9145,-0.9203,-0.9194,-0.9399,-0.9571,-0.9559,-0.975,-0.9872,-0.9767,-1.0697,-1.1784,-1.2869,-1.3893,-1.4544,-1.4785,-1.4778,-1.4685,-1.445,-1.3522,-1.2869,-1.268,-1.2209,-1.1904,-1.1809,-1.1735,-1.1655,-1.1554,-1.1421,-1.122,-1.0902,-1.0569,-0.9984,-0.9281,-0.8934,-0.8724,-0.8669,-0.84,-0.8248,-0.8187,-0.806,-0.7978,-0.7872,-0.7746,-0.7627,-0.7585,-0.7548,-0.7499,-0.7415,-0.7415,-0.7378,-0.7329,-0.7292,-0.7182,-0.706,-0.7023,-0.6909,-0.6798,-0.6798,-0.6762,-0.669,-0.669,-0.6662,-0.6656,-0.6602,-0.6596,-0.6538,-0.6448,-0.6431,-0.6407,-0.63,-0.6349,-0.6571,-0.7097,-0.7224,-0.745,-0.7897,-0.7569,-0.7273,-0.7196,-0.6965,-0.6755,-0.6631,-0.6631,-0.6631,-0.6631,-0.6631,-0.6631,-0.6631,-0.6349,-0.6208,-0.6208,-0.5992,-0.5886,-0.5886,-0.5886,-0.5794,-0.5605,-0.5605,-0.5391,-0.7023,-0.7252,-0.7478,-0.7745,-0.7893,-0.803,-0.8317,-0.8444,-0.8558,-0.8734,-0.8824,-0.8905,-0.9024,-0.903,-0.9146,-0.9261,-0.9334,-0.9359,-0.9322,-0.9297,-0.9256,-0.9187,-0.9111,-0.9522,-1.0659,-1.1547,-1.2114,-1.2303,-1.2303,-1.2209,-1.2067,-1.1364,-1.0943,-1.0753,-1.0422,-1.028,-1.028,-1.0159,-1.0105,-1.0077,-0.9935,-0.9835,-0.9776,-0.9321,-0.892,-0.8607,-0.8607,-0.857,-0.8501,-0.8411,-0.8317,-0.8228,-0.8011,-0.7881,-0.7755,-0.7569,-0.758,-0.7704,-0.7704,-0.7603,-0.7486,-0.7486,-0.748,-0.7423,-0.7395,-0.7301,-0.7186,-0.7104,-0.7031,-0.6957,-0.6932,-0.6847,-0.6798,-0.6798,-0.6782,-0.6745,-0.6676,-0.6643,-0.6607,-0.6575,-0.6563,-0.6555,-0.653,-0.6526,-0.6526,-0.6526,-0.6588,-0.6799,-0.7174,-0.69,-0.6552,-0.632,-0.6288,-0.6288,-0.6288,-0.6288,-0.6288,-0.6288,-0.6288,-0.6288,-0.6288,-0.6142,-0.6093,-0.6093,-0.5983,-0.5891,-0.583,-0.5775,-0.5548,-0.5114,-0.5022,-0.4632,-0.7269,-0.7486,-0.7753,-0.8024,-0.8121,-0.824,-0.8467,-0.8538,-0.8656,-0.8878,-0.8915,-0.8926,-0.9058,-0.9022,-0.9069,-0.9252,-0.9281,-0.9314,-0.9391,-0.9334,-0.9281,-0.9277,-0.9199,-0.9095,-0.9142,-0.9664,-1.0233,-1.0753,-1.0753,-1.0517,-1.0043,-0.9948,-0.9711,-0.919,-0.9142,-0.9142,-0.9142,-0.9142,-0.9093,-0.9054,-0.905,-0.8952,-0.873,-0.8644,-0.8607,-0.8607,-0.8607,-0.8607,-0.8595,-0.8505,-0.8415,-0.8235,-0.7719,-0.7465,-0.7349,-0.6888,-0.7155,-0.7704,-0.7704,-0.7603,-0.7486,-0.7486,-0.7482,-0.7505,-0.7415,-0.7386,-0.7346,-0.7137,-0.7084,-0.706,-0.7007,-0.6982,-0.6982,-0.6982,-0.6949,-0.6883,-0.6883,-0.6782,-0.6686,-0.6686,-0.6682,-0.6688,-0.6602,-0.6586,-0.6586,-0.6586,-0.6538,-0.6514,-0.6518,-0.6514,-0.6514,-0.6481,-0.6481,-0.6481,-0.6481,-0.6481,-0.6481,-0.6481,-0.6481,-0.6481,-0.6481,-0.6357,-0.6276,-0.6276,-0.6105,-0.5859,-0.5608,-0.5493,-0.5083,-0.4407,-0.4099,-0.3634,-0.7478,-0.768,-0.7909,-0.8174,-0.8313,-0.8428,-0.8603,-0.8668,-0.8726,-0.8844,-0.8779,-0.8713,-0.8779,-0.8807,-0.8864,-0.8987,-0.9163,-0.9289,-0.9318,-0.9297,-0.9261,-0.9199,-0.9115,-0.9095,-0.9095,-0.9284,-0.9427,-0.9616,-0.9616,-0.9569,-0.9379,-0.9379,-0.9284,-0.9095,-0.9095,-0.9095,-0.9095,-0.9095,-0.9083,-0.905,-0.9036,-0.8756,-0.832,-0.8293,-0.7887,-0.72,-0.72,-0.6993,-0.6675,-0.6605,-0.6532,-0.6462,-0.6221,-0.6108,-0.605,-0.5882,-0.5911,-0.618,-0.7026,-0.7374,-0.7486,-0.7486,-0.7486,-0.7482,-0.7488,-0.7435,-0.7378,-0.7317,-0.726,-0.7194,-0.7105,-0.708,-0.7064,-0.7003,-0.6966,-0.6961,-0.6903,-0.6867,-0.6794,-0.6702,-0.669,-0.6682,-0.6684,-0.668,-0.668,-0.668,-0.6602,-0.6555,-0.6493,-0.6489,-0.6489,-0.6489,-0.6489,-0.6489,-0.6489,-0.6489,-0.6489,-0.6489,-0.6489,-0.6489,-0.6489,-0.6171,-0.596,-0.596,-0.5365,-0.5025,-0.4929,-0.4391,-0.3904,-0.346,-0.2856,-0.2228,-0.7663,-0.7889,-0.8091,-0.8327,-0.8477,-0.8558,-0.8656,-0.8688,-0.8697,-0.8771,-0.8636,-0.8509,-0.8509,-0.851,-0.8595,-0.8799,-0.9052,-0.9252,-0.9318,-0.9301,-0.9261,-0.9199,-0.8972,-0.8857,-0.8857,-0.8521,-0.8525,-0.9047,-0.9095,-0.9095,-0.9095,-0.9095,-0.9095,-0.9095,-0.8952,-0.8857,-0.8857,-0.8474,-0.8237,-0.8047,-0.7968,-0.7716,-0.7343,-0.7105,-0.6644,-0.6007,-0.5804,-0.5504,-0.5199,-0.5164,-0.5105,-0.5077,-0.4827,-0.4727,-0.4663,-0.4497,-0.4445,-0.4658,-0.5979,-0.652,-0.6626,-0.6626,-0.6626,-0.6626,-0.6626,-0.6591,-0.654,-0.6511,-0.6472,-0.6414,-0.6298,-0.6276,-0.6262,-0.6212,-0.6198,-0.6176,-0.6137,-0.612,-0.6098,-0.5983,-0.5969,-0.5969,-0.5969,-0.5969,-0.5951,-0.5894,-0.5865,-0.5961,-0.6323,-0.6141,-0.596,-0.593,-0.5792,-0.571,-0.5714,-0.5714,-0.5714,-0.5714,-0.5714,-0.5714,-0.5714,-0.5431,-0.5208,-0.5076,-0.4518,-0.4126,-0.3896,-0.323,-0.2705,-0.2224,-0.1514,-0.0904,-0.7641,-0.7917,-0.8217,-0.8397,-0.8437,-0.8501,-0.8582,-0.859,-0.8562,-0.8567,-0.8396,-0.8219,-0.8258,-0.8258,-0.83,-0.8521,-0.8795,-0.9036,-0.9213,-0.9177,-0.9128,-0.9128,-0.8619,-0.828,-0.8233,-0.7378,-0.7378,-0.8763,-0.8905,-0.8952,-0.8952,-0.8952,-0.8952,-0.8952,-0.8521,-0.828,-0.8233,-0.7283,-0.6523,-0.6,-0.5944,-0.5917,-0.5868,-0.5248,-0.4971,-0.4873,-0.4371,-0.4126,-0.4079,-0.4079,-0.4027,-0.395,-0.3474,-0.33,-0.3152,-0.2733,-0.2755,-0.3218,-0.449,-0.4926,-0.4946,-0.4944,-0.4941,-0.4941,-0.4941,-0.4941,-0.493,-0.4874,-0.4858,-0.4844,-0.4745,-0.4729,-0.4729,-0.4726,-0.4726,-0.4713,-0.466,-0.4649,-0.463,-0.4647,-0.4637,-0.4637,-0.4637,-0.4634,-0.4557,-0.4372,-0.4401,-0.4802,-0.5859,-0.5359,-0.4916,-0.4815,-0.4467,-0.4234,-0.4246,-0.4241,-0.4241,-0.4241,-0.4241,-0.4241,-0.4238,-0.4238,-0.407,-0.3734,-0.3552,-0.3165,-0.2504,-0.2014,-0.1452,-0.0807,-0.0129,0.0358,-0.6011,-0.6182,-0.6347,-0.648,-0.6519,-0.6625,-0.6958,-0.7014,-0.7136,-0.7724,-0.7604,-0.7416,-0.74,-0.7347,-0.7226,-0.6829,-0.6969,-0.7128,-0.6948,-0.691,-0.6931,-0.6931,-0.6773,-0.6523,-0.6143,-0.5855,-0.5713,-0.576,-0.6428,-0.6859,-0.6859,-0.6859,-0.6859,-0.6859,-0.6764,-0.6476,-0.6093,-0.5475,-0.5142,-0.4999,-0.4986,-0.4744,-0.4365,-0.384,-0.3155,-0.2394,-0.1914,-0.1445,-0.1077,-0.1077,-0.1107,-0.1043,-0.0956,-0.0901,-0.0841,-0.0715,-0.0752,-0.0868,-0.1195,-0.2552,-0.4086,-0.4088,-0.4116,-0.4116,-0.4116,-0.4116,-0.4114,-0.4101,-0.4098,-0.4046,-0.392,-0.3907,-0.3899,-0.3828,-0.382,-0.3818,-0.3805,-0.3803,-0.38,-0.3825,-0.3823,-0.3823,-0.3823,-0.3792,-0.3797,-0.3736,-0.3492,-0.3557,-0.4283,-0.4235,-0.3986,-0.3658,-0.3551,-0.3477,-0.3465,-0.3465,-0.3465,-0.3465,-0.3465,-0.3484,-0.3484,-0.3243,-0.2955,-0.2623,-0.2044,-0.1506,-0.1038,-0.04,-0.0033,0.0167,0.0866,0.1268,-0.4862,-0.4961,-0.5065,-0.5143,-0.5153,-0.5228,-0.5522,-0.5673,-0.5882,-0.6274,-0.6292,-0.6207,-0.6137,-0.6004,-0.5814,-0.5474,-0.5515,-0.5528,-0.5441,-0.5444,-0.5425,-0.545,-0.5241,-0.4889,-0.4362,-0.3868,-0.3429,-0.2953,-0.4476,-0.543,-0.543,-0.543,-0.543,-0.543,-0.5192,-0.4621,-0.3621,-0.3143,-0.281,-0.2572,-0.2572,-0.2429,-0.2096,-0.1643,-0.1116,-0.0508,-0.0046,0.0316,0.0628,0.0628,0.0621,0.0608,0.0608,0.06,0.0589,0.0589,0.0586,0.0583,0.058,-0.0368,-0.1606,-0.2024,-0.2127,-0.2118,-0.2118,-0.2118,-0.2118,-0.2118,-0.2118,-0.2114,-0.2023,-0.2018,-0.2015,-0.1964,-0.1961,-0.1958,-0.1948,-0.1945,-0.1943,-0.1932,-0.1929,-0.1929,-0.1929,-0.1919,-0.1909,-0.1909,-0.1711,-0.1657,-0.1815,-0.2296,-0.2488,-0.205,-0.1872,-0.1797,-0.1752,-0.1751,-0.1751,-0.1751,-0.1751,-0.1746,-0.1768,-0.1559,-0.1311,-0.0993,-0.0548,-0.0171,0.024,0.0784,0.1019,0.1053,0.1597,0.1869,-0.3591,-0.368,-0.3761,-0.3797,-0.3751,-0.3774,-0.3902,-0.4185,-0.4422,-0.4512,-0.4674,-0.4812,-0.4675,-0.442,-0.4177,-0.415,-0.402,-0.3899,-0.3958,-0.3993,-0.397,-0.4008,-0.3595,-0.3046,-0.2465,-0.163,-0.0858,-0.0334,-0.2333,-0.3713,-0.3951,-0.3998,-0.3998,-0.3998,-0.3477,-0.2526,-0.1192,-0.0715,-0.0238,0.0191,0.0191,0.0191,0.0238,0.0701,0.088,0.0924,0.1406,0.1618,0.1616,0.1616,0.1598,0.1568,0.1566,0.1545,0.1475,0.1473,0.1472,0.147,0.1499,0.1482,0.1343,0.0442,0.0159,0.0157,0.0157,0.0157,0.0157,0.0157,0.0157,0.0157,0.0157,0.0157,0.0157,0.0157,0.0157,0.0157,0.0155,0.0155,0.0193,0.0267,0.0266,0.0266,0.0266,0.0266,0.0266,0.0266,0.0265,0.0416,0.0795,-0.0186,-0.0766,-0.0324,0.0,0.0179,0.0248,0.0248,0.0248,0.0248,0.0248,0.0248,0.0247,0.0247,0.0387,0.0736,0.0736,0.0947,0.1333,0.1629,0.1758,0.1758,0.2068,0.2206,-0.0697,-0.0748,-0.0751,-0.0758,-0.0749,-0.087,-0.138,-0.1715,-0.2136,-0.2905,-0.3275,-0.3423,-0.3343,-0.2987,-0.2502,-0.1885,-0.1479,-0.1153,-0.0824,-0.08,-0.0815,-0.0775,-0.0726,-0.029,0.0725,0.0911,0.1334,0.2286,0.2,0.1,-0.0715,-0.081,-0.081,-0.081,-0.0286,0.0143,0.0381,0.0858,0.1144,0.124,0.124,0.124,0.1239,0.1743,0.1959,0.1988,0.2421,0.2624,0.2649,0.2649,0.2586,0.2554,0.2575,0.2502,0.2471,0.2449,0.244,0.2439,0.2477,0.2415,0.222,0.1369,0.1071,0.106,0.106,0.106,0.106,0.106,0.106,0.106,0.106,0.106,0.106,0.106,0.106,0.106,0.1058,0.1057,0.1095,0.1093,0.1093,0.1093,0.1093,0.1084,0.1076,0.1076,0.1105,0.1211,0.1552,0.0867,0.0526,0.0937,0.105,0.1086,0.1084,0.1084,0.1084,0.1084,0.1084,0.1074,0.1016,0.1015,0.1184,0.1509,0.1509,0.1684,0.2035,0.21,0.2097,0.2132,0.2167,0.2202,0.1615,0.1621,0.1623,0.163,0.1549,0.1409,0.1051,0.0627,0.0119,-0.0534,-0.0963,-0.1274,-0.142,-0.1058,-0.0626,-0.0319,0.0084,0.0572,0.1096,0.1173,0.1297,0.1567,0.1613,0.1949,0.2729,0.274,0.3002,0.3764,0.3859,0.324,0.1716,0.1573,0.1573,0.162,0.2097,0.2383,0.2383,0.2574,0.2719,0.2671,0.2431,0.2336,0.2335,0.2548,0.2616,0.2636,0.2838,0.29,0.2919,0.2919,0.2856,0.2827,0.3074,0.3125,0.3078,0.3358,0.3423,0.3363,0.3155,0.3007,0.285,0.2205,0.1971,0.198,0.1928,0.1925,0.1925,0.1925,0.1925,0.1925,0.1925,0.1925,0.1925,0.1925,0.1925,0.1925,0.1925,0.1925,0.1925,0.1925,0.1925,0.1925,0.1925,0.1915,0.1908,0.1908,0.1937,0.1969,0.2162,0.1853,0.169,0.1858,0.1882,0.1875,0.1875,0.1826,0.1819,0.1819,0.1819,0.1809,0.1788,0.1787,0.1849,0.2005,0.2004,0.2076,0.2255,0.2241,0.2268,0.2268,0.2268,0.2268,0.3421,0.3437,0.3442,0.3434,0.3339,0.3162,0.3018,0.2533,0.2016,0.1636,0.1196,0.0788,0.0543,0.0868,0.1173,0.1105,0.1532,0.2,0.2534,0.2651,0.2912,0.3342,0.3435,0.3619,0.4158,0.4141,0.4335,0.4861,0.4909,0.4478,0.3478,0.3383,0.3383,0.3431,0.3764,0.3954,0.3954,0.3956,0.3958,0.3958,0.3577,0.3434,0.3432,0.3357,0.3324,0.3283,0.3257,0.3224,0.3188,0.3188,0.3173,0.3147,0.3536,0.3624,0.3605,0.3979,0.4074,0.3952,0.3617,0.343,0.3238,0.2856,0.2689,0.2595,0.2532,0.2519,0.2514,0.2514,0.2514,0.2514,0.2514,0.2514,0.2514,0.2514,0.2514,0.2517,0.2522,0.2523,0.2526,0.2532,0.2533,0.2533,0.2533,0.2533,0.2532,0.2525,0.2523,0.2522,0.2515,0.2514,0.2496,0.241,0.2421,0.2408,0.2408,0.2386,0.2335,0.2335,0.2335,0.2331,0.2326,0.2319,0.2312,0.2305,0.23,0.2296,0.2296,0.2311,0.23,0.23,0.23,0.23,0.4524,0.4576,0.4647,0.4556,0.4397,0.4187,0.3936,0.3454,0.301,0.2798,0.2435,0.2109,0.2111,0.2479,0.2775,0.2779,0.3214,0.3645,0.3815,0.4017,0.4167,0.4339,0.4434,0.4649,0.5232,0.5181,0.5385,0.5908,0.5956,0.5527,0.4528,0.448,0.448,0.448,0.4528,0.4528,0.4528,0.4528,0.4528,0.4528,0.448,0.448,0.448,0.4476,0.4383,0.4259,0.4256,0.4205,0.4173,0.4173,0.4171,0.4163,0.4212,0.4166,0.4117,0.4119,0.4074,0.3994,0.3952,0.3698,0.3355,0.3279,0.2934,0.2599,0.2596,0.2536,0.2514,0.2514,0.2514,0.2514,0.2514,0.2514,0.2514,0.2514,0.2514,0.2522,0.2589,0.2596,0.2603,0.2589,0.2593,0.2593,0.2593,0.2593,0.2585,0.2599,0.2596,0.2585,0.2518,0.2514,0.2512,0.2507,0.2503,0.2502,0.2502,0.2499,0.2497,0.2497,0.2497,0.2485,0.2496,0.2429,0.2402,0.2375,0.2346,0.2296,0.2296,0.2293,0.2292,0.2292,0.2292,0.2292,0.5621,0.57,0.5727,0.5673,0.5441,0.5151,0.4904,0.4524,0.4101,0.3689,0.3451,0.3262,0.307,0.3191,0.3361,0.33,0.3589,0.3941,0.4382,0.4616,0.4887,0.5271,0.546,0.5607,0.5801,0.5778,0.586,0.6098,0.6098,0.5908,0.5527,0.548,0.548,0.548,0.548,0.548,0.548,0.5194,0.5006,0.5006,0.4718,0.4623,0.4623,0.4623,0.4528,0.4398,0.4398,0.4346,0.4307,0.4307,0.4307,0.4305,0.4599,0.4695,0.465,0.4935,0.5001,0.4842,0.4588,0.4356,0.4078,0.3557,0.3226,0.2973,0.2692,0.2592,0.2537,0.2519,0.2514,0.2514,0.2514,0.2514,0.2514,0.2514,0.2529,0.2585,0.2597,0.2613,0.2589,0.26,0.2601,0.2601,0.2601,0.2601,0.2592,0.2604,0.26,0.2589,0.2518,0.2514,0.2514,0.2514,0.2497,0.2487,0.2487,0.247,0.2421,0.2421,0.2443,0.2427,0.2452,0.2386,0.2326,0.235,0.2303,0.2296,0.2296,0.2296,0.2296,0.2296,0.2315,0.2308,0.6142,0.6259,0.6303,0.624,0.6014,0.568,0.5425,0.5139,0.4771,0.437,0.4232,0.4148,0.3894,0.3884,0.3919,0.3849,0.3995,0.43,0.471,0.4997,0.5283,0.5751,0.5935,0.6027,0.6044,0.6076,0.6146,0.6336,0.6336,0.6479,0.6761,0.6764,0.6574,0.6098,0.6098,0.6098,0.6098,0.5718,0.553,0.553,0.5194,0.5051,0.5051,0.5051,0.495,0.4861,0.4861,0.4803,0.4711,0.4711,0.4711,0.4756,0.5067,0.5169,0.5166,0.5563,0.5619,0.5432,0.5133,0.4882,0.4584,0.3996,0.3641,0.3438,0.3129,0.2815,0.2595,0.2534,0.2521,0.2514,0.2514,0.2521,0.2527,0.2527,0.2551,0.2615,0.2583,0.2601,0.2617,0.2627,0.2628,0.2628,0.2628,0.2628,0.2619,0.259,0.2586,0.2574,0.2544,0.254,0.2537,0.2529,0.2548,0.2531,0.2484,0.2462,0.2412,0.2412,0.2431,0.2418,0.2418,0.238,0.2323,0.2323,0.2415,0.2478,0.2478,0.2588,0.266,0.266,0.2639,0.2734,0.5935,0.6101,0.6177,0.6115,0.5918,0.5618,0.5363,0.5109,0.4848,0.474,0.4699,0.4699,0.4701,0.4701,0.4701,0.4701,0.482,0.4921,0.4977,0.5234,0.5431,0.5591,0.5722,0.5813,0.5918,0.603,0.6336,0.6862,0.691,0.7338,0.8332,0.8375,0.7663,0.6146,0.6098,0.6098,0.6098,0.6098,0.6098,0.6098,0.6098,0.6098,0.6098,0.6098,0.6033,0.5878,0.5878,0.5807,0.5696,0.5696,0.5696,0.5696,0.5696,0.5703,0.5695,0.5695,0.5619,0.5517,0.5474,0.5137,0.471,0.471,0.4372,0.3985,0.3984,0.3339,0.26,0.2599,0.2537,0.2514,0.2514,0.2537,0.2599,0.2599,0.2581,0.2609,0.2598,0.2605,0.2614,0.2686,0.2691,0.2691,0.2691,0.2691,0.2682,0.2609,0.2605,0.2594,0.2605,0.2601,0.259,0.2602,0.2599,0.2586,0.2517,0.2514,0.2514,0.2514,0.2512,0.2512,0.2512,0.2417,0.2385,0.2385,0.2733,0.2881,0.2881,0.3281,0.35,0.35,0.35,0.3716,0.5687,0.579,0.5869,0.5852,0.5676,0.5491,0.5229,0.501,0.4848,0.474,0.4701,0.4701,0.4701,0.4701,0.4729,0.4774,0.5097,0.5396,0.5466,0.624,0.6804,0.6903,0.7517,0.7962,0.8098,0.8109,0.8233,0.8375,0.8755,0.9087,0.9418,0.975,0.9371,0.8185,0.8138,0.8138,0.8138,0.8138,0.8138,0.8138,0.8138,0.8138,0.8134,0.808,0.8046,0.7948,0.7843,0.776,0.7661,0.7661,0.7661,0.7661,0.7661,0.7691,0.7666,0.7666,0.7644,0.7552,0.7552,0.7335,0.7011,0.6417,0.6045,0.5751,0.5148,0.4305,0.3474,0.3163,0.2824,0.2574,0.2574,0.2581,0.2589,0.2589,0.2611,0.2594,0.2603,0.2622,0.2682,0.2691,0.2692,0.2692,0.2692,0.2692,0.2765,0.3024,0.3061,0.3172,0.3461,0.3496,0.3493,0.348,0.3494,0.3223,0.2556,0.2514,0.2632,0.2905,0.2923,0.3027,0.3297,0.3282,0.328,0.3216,0.3596,0.3749,0.3716,0.4371,0.4819,0.5063,0.5063,0.5253,0.6157,0.6053,0.6038,0.6169,0.6102,0.6028,0.596,0.5839,0.5694,0.5607,0.5594,0.564,0.5577,0.5594,0.5633,0.5624,0.6025,0.6382,0.6566,0.74,0.8091,0.8455,0.9105,0.9541,0.9634,0.9651,0.9746,0.9935,1.0455,1.0928,1.1306,1.1778,1.1826,1.1401,1.0266,0.9651,0.9651,0.9651,0.9651,0.9651,0.9651,0.9651,0.9651,0.9637,0.9559,0.9515,0.9369,0.9273,0.0,0.9147,0.913,0.913,0.913,0.913,0.913,0.913,0.9069,0.9031,0.9031,0.8931,0.871,0.8118,0.7838,0.7638,0.7094,0.5793,0.4413,0.4119,0.3862,0.3576,0.3413,0.3385,0.3355,0.315,0.3137,0.3121,0.3121,0.3181,0.3195,0.3195,0.3195,0.3195,0.3195,0.3195,0.3357,0.3749,0.3828,0.4026,0.4614,0.4692,0.4767,0.4951,0.4958,0.4711,0.4099,0.3394,0.3179,0.3572,0.3587,0.3843,0.4384,0.4407,0.4477,0.4597,0.4983,0.52,0.5281,0.5944,0.6408,0.6682,0.6682,0.6864,0.0,0.6915,0.6694,0.7021,0.7029,0.7074,0.7296,0.7281,0.0,0.7079,0.7202,0.724,0.7112,0.7206,0.724,0.7128,0.741,0.7769,0.8184,0.8805,0.9531,1.0436,1.0715,1.0837,1.0909,1.0928,1.1117,1.1637,1.2156,1.2863,1.3811,1.4328,1.4798,1.5275,1.2533,1.1023,1.0928,1.0928,1.0928,1.0928,1.0928,1.0928,1.0928,1.0918,1.0907,1.0902,1.0686,1.0583,1.0485,1.0377,1.0332,1.0332,1.0332,1.0332,1.0332,1.0332,1.0264,1.0219,1.0219,1.015,1.0085,0.9886,0.9736,0.9611,0.9601,0.7704,0.5528,0.5514,0.5459,0.5337,0.4887,0.4803,0.4719,0.4307,0.4174,0.4204,0.4208,0.4208,0.4208,0.4212,0.4212,0.4212,0.4212,0.4212,0.438,0.4841,0.4925,0.5258,0.6086,0.6211,0.6395,0.6828,0.6896,0.6865,0.679,0.5058,0.4171,0.4564,0.464,0.4988,0.5766,0.5816,0.6008,0.6389,0.6766,0.7132,0.7421,0.7993,0.8268,0.8295,0.8295,0.8471,1.0098,0.0,0.7911,0.7987,0.7991,0.7967,0.0,0.7965,0.7938,0.7838,0.797,0.8049,0.7869,0.8012,0.8095,0.8002,0.8521,0.9095,0.9586,1.1153,1.265,1.3597,1.3865,1.3997,1.4128,1.414,1.4187,1.4281,1.4758,1.5134,1.5368,1.5884,1.6213,1.6353,1.5643,1.4892,1.414,1.414,1.414,1.414,1.414,1.414,1.414,1.4026,1.3957,1.3965,1.3718,1.3591,1.3553,1.3363,1.3306,1.3306,1.3306,1.3306,1.3306,1.3306,1.3287,1.3255,1.3255,1.3204,1.3002,1.238,1.1945,1.1603,1.1504,0.9785,0.7849,0.7538,0.7202,0.6791,0.6334,0.6221,0.6192,0.6109,0.6079,0.6104,0.6196,0.6205,0.6263,0.6359,0.6372,0.6372,0.6372,0.6372,0.6482,0.6855,0.7184,0.7542,0.8022,0.839,0.8632,0.8735,0.8705,0.8693,0.8666,0.6978,0.612,0.6605,0.6828,0.7148,0.7663,0.7928,0.807,0.8114,0.8469,0.8933,0.9574,0.9733,0.9894,1.0096,1.0096,1.008,1.1814,1.0559,0.9308,0.9492,0.9529,0.9586,0.9733,0.9753,0.9736,0.9704,0.9831,0.9914,0.9752,0.9919,1.0088,0.9982,1.0518,1.1257,1.2146,1.3583,1.4799,1.5511,1.5711,1.5785,1.5877,1.5884,1.5884,1.5884,1.6306,1.6595,1.6595,1.7102,1.7382,1.7382,1.7382,1.6915,1.5884,1.5884,1.5884,1.5884,1.5884,1.5884,1.5884,1.5792,1.5803,1.5789,1.5554,1.5405,1.5326,1.5163,1.5011,1.4948,1.4948,1.4948,1.4948,1.4948,1.4948,1.4948,1.4948,1.4848,1.4685,1.43,1.394,1.366,1.3578,1.2703,1.1505,1.0356,0.9669,0.9221,0.8882,0.8603,0.8391,0.8179,0.8136,0.8148,0.8236,0.8248,0.826,0.8309,0.8321,0.8321,0.8321,0.8321,0.8477,0.886,0.9072,0.9375,1.0048,1.0298,1.054,1.0799,1.0744,1.0674,1.0674,0.9736,0.8938,0.8486,0.8589,0.8894,0.9486,0.9661,0.9807,0.9883,1.0182,1.0535,1.095,1.1077,1.1195,1.1347,1.1347,1.1302,1.2968,1.2015,1.1027,1.1237,1.1329,1.1414,1.1748,1.182,1.1813,1.1785,1.1923,1.1962,1.1847,1.2125,1.2312,1.2217,1.2762,1.3688,1.4952,1.5757,1.6378,1.6719,1.6878,1.6915,1.6915,1.6915,1.6915,1.6915,1.7289,1.753,1.753,1.7943,1.8223,1.8223,1.8223,1.7803,1.6962,1.6915,1.6915,1.6915,1.6915,1.69,1.6877,1.6877,1.6862,1.6832,1.6742,1.6544,1.6371,1.6272,1.6113,1.5925,1.5925,1.5925,1.5925,1.5925,1.5925,1.5925,1.5925,1.5834,1.5749,1.5726,1.5628,1.5514,1.5484,1.5519,1.5155,1.3454,1.2561,1.1974,1.161,1.1214,1.0789,1.0305,1.0219,1.0224,1.0239,1.0244,1.0249,1.0269,1.0269,1.0269,1.0269,1.0269,1.0399,1.0772,1.0816,1.1078,1.1896,1.1985,1.2131,1.2625,1.2581,1.2519,1.2519,1.243,1.1753,1.0471,1.026,1.0501,1.116,1.1175,1.1267,1.1495,1.1766,1.1899,1.1899,1.2189,1.2339,1.2319,1.2319,1.2305,1.3718,1.3694,1.3478,1.2852,1.2816,1.2919,1.2816,1.278,1.2743,1.2639,1.2816,1.2941,1.2816,1.3199,1.3547,1.3518,1.4504,1.5582,1.6547,1.7071,1.7502,1.7909,1.7973,1.7989,1.7989,1.7989,1.7989,1.7989,1.8036,1.8083,1.8083,1.8176,1.8223,1.8223,1.8223,1.8129,1.7989,1.7989,1.7989,1.7989,1.7989,1.7863,1.7726,1.7726,1.7638,1.7448,1.7424,1.7357,1.7197,1.7173,1.7053,1.6892,1.6892,1.6892,1.6892,1.6892,1.6892,1.6892,1.6892,1.6876,1.6828,1.6684,1.6577,1.6572,1.6411,1.6414,1.6353,1.6172,1.5158,1.3945,1.3103,1.2852,1.268,1.2208,1.2079,1.2109,1.2221,1.2245,1.2281,1.2393,1.2417,1.2417,1.2417,1.2417,1.2419,1.235,1.2662,1.2922,1.2993,1.3261,1.3518,1.3581,1.3561,1.3554,1.3554,1.3463,1.3279,1.3023,1.2418,1.2204,1.2423,1.2291,1.2257,1.2308,1.2674,1.2891,1.2891,1.3255,1.3404,1.3302,1.3302,1.3236,1.3904,1.4099,1.42,1.3832,1.3821,1.386,1.3774,1.3759,1.3735,1.3694,1.3767,1.3847,1.3899,1.4289,1.4727,1.5238,1.5971,1.6653,1.7243,1.7593,1.7884,1.819,1.8223,1.8223,1.8223,1.8223,1.8223,1.8223,1.8223,1.8223,1.8223,1.8223,1.8223,1.8223,1.8223,1.8223,1.8223,1.8223,1.8223,1.8223,1.8079,1.7997,1.7916,1.7765,1.7676,1.7603,1.77,1.764,1.7396,1.7486,1.7364,1.7112,1.7112,1.7112,1.7112,1.7112,1.7112,1.7112,1.7112,1.7112,1.7096,1.6971,1.6947,1.693,1.6893,1.6868,1.6885,1.6922,1.6211,1.5283,1.4713,1.4343,1.4038,1.3565,1.3478,1.3497,1.3562,1.3575,1.3595,1.3622,1.3679,1.3679,1.3679,1.3679,1.3653,1.3588,1.3685,1.377,1.3783,1.3884,1.3994,1.4082,1.4014,1.3966,1.3966,1.3831,1.3632,1.3512,1.313,1.2909,1.2976,1.2943,1.2936,1.2936,1.3247,1.3428,1.3428,1.3628,1.3661,1.3625,1.3625,1.3588,1.3904,1.4131,1.4338,1.4338,1.446,1.4573,1.4562,1.4589,1.4622,1.4578,1.4589,1.4678,1.4814,1.5228,1.5821,1.6641,1.7071,1.7404,1.7721,1.7892,1.803,1.816,1.8223,1.8223,1.8223,1.8223,1.8223,1.8223,1.8223,1.8223,1.8223,1.8223,1.8223,1.8223,1.8223,1.8223,1.8223,1.8223,1.8223,1.8223,1.7997,1.7892,1.7805,1.7619,1.7538,1.7546,1.7724,1.7697,1.7453,1.7546,1.7408,1.7169,1.7128,1.7112,1.7112,1.7112,1.7112,1.7112,1.7112,1.7112,1.7112,1.7112,1.7112,1.7112,1.7112,1.7112,1.7112,1.7112,1.6753,1.6245,1.5931,1.5528,1.5043,1.4564,1.4387,1.4299,1.4299,1.4299,1.4299,1.4299,1.4299,1.4299,1.4299,1.4299,1.4312,1.4346,1.4224,1.4177,1.4333,1.4217,1.417,1.4285,1.4197,1.4109,1.4119,1.3966,1.377,1.3471,1.3275,1.3214,1.3214,1.3321,1.3358,1.3283,1.3708,1.3897,1.386,1.3975,1.4006,1.4006,1.4006,1.4006,1.3904,1.4042,1.4196,1.4196,1.4692,1.51,1.5006,1.5195,1.5342,1.5039,1.5204,1.539,1.5189,1.5902,1.6665,1.7234,1.7624,1.7924,1.8111,1.8144,1.816,1.8223,1.8223,1.8223,1.8223,1.8223,1.8223,1.8223,1.8223,1.8223,1.8223,1.8223,1.8223,1.8223,1.8223,1.8223,1.8223,1.8223,1.8223,1.8223,1.7997,1.7781,1.7611,1.7486,1.7404,1.7413,1.7538,1.7603,1.7578,1.7595,1.7489,1.7348,1.7177,1.7112,1.7112,1.7112,1.7112,1.7112,1.7112,1.7112,1.7112,1.7112,1.7112,1.7112,1.7112,1.7112,1.7112,1.7112,1.706,1.692,1.6481,1.6005,1.5528,1.5043,1.4601,1.4299,1.4299,1.4299,1.4299,1.4299,1.4299,1.4299,1.4299,1.4299,1.4346,1.4475,1.4373,1.4333,1.4475,1.4373,1.4285,1.4299,1.4292,1.4224,1.4125,1.4105,1.3926,1.3592,1.3336,1.3214,1.3214,1.3459,1.3504,1.3283,1.4125,1.4478,1.4368,1.4699,1.493,1.493,1.493,1.493,1.3904,1.4034,1.4205,1.431,1.4751,1.5181,1.5147,1.5415,1.5699,1.578,1.591,1.5983,1.591,1.6454,1.7015,1.7339,1.7778,1.8103,1.8214,1.8223,1.8223,1.8223,1.8223,1.8263,1.8385,1.8394,1.8394,1.8394,1.8394,1.8394,1.8394,1.8394,1.8394,1.8394,1.8394,1.8337,1.8176,1.8223,1.8223,1.8214,1.7884,1.766,1.7587,1.7469,1.7388,1.7396,1.7522,1.7538,1.7486,1.7486,1.738,1.721,1.7136,1.7112,1.7112,1.7112,1.7112,1.7112,1.7112,1.7112,1.7112,1.7112,1.7112,1.7112,1.7112,1.7112,1.7112,1.7112,1.7112,1.698,1.6533,1.6269,1.5961,1.5168,1.4866,1.4646,1.4343,1.4299,1.4326,1.4414,1.436,1.436,1.4498,1.4496,1.4482,1.4586,1.4566,1.459,1.4599,1.4523,1.4434,1.4434,1.4353,1.4278,1.4217,1.4173,1.4064,1.3912,1.362,1.341,1.3315,1.3573,1.3831,1.4055,1.4403,1.4696,1.4905,1.4986,1.5006,1.5006,1.5006,1.5006,1.3904,1.3993,1.4131,1.431,1.4678,1.5108,1.5391,1.5813,1.6202,1.6495,1.656,1.656,1.656,1.6909,1.7274,1.7518,1.7859,1.8111,1.8214,1.8223,1.8239,1.8304,1.8312,1.8385,1.8573,1.8541,1.8565,1.8499,1.8499,1.8475,1.841,1.841,1.841,1.841,1.841,1.8353,1.8176,1.8223,1.8223,1.8214,1.7867,1.7684,1.7676,1.7494,1.7421,1.7469,1.7534,1.7526,1.7461,1.7413,1.7283,1.7112,1.7112,1.7112,1.7112,1.7112,1.7112,1.7112,1.7112,1.7112,1.712,1.7177,1.7201,1.721,1.7258,1.7274,1.7274,1.7274,1.7274,1.7186,1.6875,1.6651,1.6339,1.5624,1.5256,1.4981,1.4678,1.4456,1.4407,1.4557,1.4509,1.4502,1.466,1.4606,1.4638,1.4787,1.4728,1.4714,1.4808,1.4679,1.4539,1.4539,1.4455,1.4367,1.4367,1.4231,1.4166,1.4119,1.3878,1.3682,1.3485,1.3741,1.4004,1.4279,1.4578,1.4869,1.5089,1.5117,1.5177,1.5177,1.5177,1.5177,1.3904,1.3904,1.3953,1.4176,1.4456,1.4952,1.5813,1.6428,1.6858,1.708,1.712,1.7112,1.7112,1.7266,1.7502,1.7859,1.7916,1.7981,1.8152,1.8176,1.8296,1.8475,1.8499,1.8573,1.8704,1.872,1.8647,1.8516,1.8499,1.8418,1.8184,1.8176,1.8176,1.8176,1.8176,1.8176,1.8223,1.8223,1.8223,1.8223,1.7997,1.7916,1.79,1.7551,1.7478,1.7578,1.7461,1.7486,1.7578,1.7453,1.7274,1.7112,1.7112,1.7112,1.7112,1.7112,1.7112,1.7112,1.7112,1.7112,1.7136,1.7331,1.7388,1.7421,1.7546,1.7595,1.7595,1.7595,1.7595,1.7595,1.7595,1.715,1.6672,1.6448,1.5831,1.5286,1.5234,1.483,1.4557,1.4667,1.4694,1.4694,1.4694,1.4694,1.4748,1.495,1.4841,1.4801,1.495,1.4835,1.4694,1.4694,1.4559,1.4516,1.4516,1.438,1.4238,1.4132,1.4119,1.3939,1.3599,1.3902,1.3995,1.3791,1.4645,1.5006,1.4795,1.5273,1.5472,1.5472,1.5512,1.5512,1.3904,1.418,1.4513,1.473,1.5195,1.5813,1.6617,1.6785,1.6971,1.7522,1.753,1.74,1.7331,1.7445,1.7554,1.766,1.7932,1.816,1.8394,1.8418,1.8434,1.8491,1.8499,1.8524,1.8573,1.8581,1.8556,1.8499,1.8499,1.8475,1.8418,1.8418,1.8418,1.8418,1.8418,1.8353,1.8176,1.8223,1.8223,1.8223,1.7997,1.7851,1.7676,1.757,1.7526,1.7461,1.7413,1.7421,1.7445,1.7266,1.7161,1.7112,1.7112,1.7112,1.7112,1.7112,1.7112,1.7112,1.7112,1.7112,1.7136,1.7331,1.7388,1.7421,1.7546,1.7595,1.7595,1.7595,1.7595,1.7595,1.7595,1.7561,1.7395,1.6904,1.6581,1.6356,1.5986,1.5526,1.5258,1.5367,1.5037,1.4762,1.5018,1.497,1.495,1.5099,1.5079,1.5031,1.4977,1.493,1.4862,1.4708,1.4654,1.4626,1.4626,1.4536,1.4428,1.438,1.4183,1.3939,1.3599,1.3713,1.3825,1.4002,1.4133,1.4331,1.461,1.4849,1.4994,1.5034,1.5353,1.5512,1.4091,1.4408,1.4781,1.5106,1.5618,1.6226,1.7084,1.7348,1.7486,1.7797,1.7884,1.7802,1.7632,1.7737,1.7851,1.7851,1.8095,1.8369,1.8483,1.8565,1.8558,1.8558,1.8558,1.8558,1.8558,1.8558,1.8581,1.8508,1.8499,1.8467,1.8394,1.8385,1.8385,1.8385,1.8385,1.8337,1.8176,1.8223,1.8144,1.807,1.7965,1.7786,1.7543,1.7543,1.7486,1.738,1.7307,1.7274,1.7266,1.7161,1.7112,1.7112,1.7112,1.7112,1.7112,1.7112,1.7161,1.7218,1.7218,1.7266,1.7356,1.7534,1.7599,1.7632,1.7802,1.7851,1.7851,1.7851,1.7851,1.7851,1.7851,1.7932,1.7865,1.7296,1.7114,1.6933,1.6659,1.624,1.5925,1.6085,1.5579,1.5248,1.5435,1.5253,1.5132,1.5167,1.5181,1.5153,1.5112,1.5105,1.5018,1.4923,1.4869,1.4835,1.4835,1.4692,1.4577,1.4516,1.4346,1.4116,1.3817,1.37,1.3753,1.4,1.4027,1.4198,1.4421,1.4898,1.5099,1.5029,1.5481,1.5683,1.4371,1.4606,1.4952,1.5463,1.5877,1.6461,1.7449,1.8027,1.8269,1.7997,1.8095,1.8144,1.7973,1.807,1.8231,1.82,1.8385,1.8508,1.854,1.8631,1.868,1.868,1.8712,1.8696,1.868,1.8623,1.8606,1.8483,1.8475,1.8402,1.8231,1.816,1.8152,1.8152,1.8135,1.8174,1.8174,1.8174,1.8046,1.7892,1.7875,1.7697,1.7388,1.7388,1.738,1.7356,1.7185,1.7112,1.7112,1.7112,1.7112,1.7112,1.7112,1.7112,1.7112,1.7112,1.7226,1.7388,1.7388,1.7502,1.7627,1.7813,1.7916,1.7949,1.8127,1.8223,1.8223,1.8223,1.8223,1.8223,1.8223,1.8223,1.8095,1.7724,1.7445,1.7288,1.7288,1.6926,1.6602,1.6744,1.6306,1.5892,1.5892,1.5516,1.5181,1.5181,1.5181,1.5181,1.5181,1.5181,1.5181,1.5181,1.5065,1.5037,1.5037,1.4848,1.4699,1.4563,1.4529,1.4394,1.4166,1.3953,1.3815,1.3795,1.423,1.4373,1.4273,1.5157,1.55,1.5386,1.5825,1.6031,1.4565,1.5156,1.578,1.6073,1.6933,1.7819,1.8239,1.8775,1.9073,1.8465,1.841,1.8385,1.8152,1.8152,1.8271,1.8418,1.8475,1.8597,1.8874,1.8785,1.868,1.868,1.8598,1.8499,1.8306,1.829,1.8273,1.828,1.828,1.8263,1.8176,1.8046,1.7973,1.7973,1.7827,1.7708,1.7708,1.7708,1.7692,1.7651,1.7567,1.7461,1.7388,1.7388,1.7307,1.7169,1.7128,1.7112,1.7112,1.7112,1.7112,1.7112,1.7112,1.7112,1.7112,1.7112,1.7226,1.7388,1.7388,1.7502,1.7627,1.7813,1.7916,1.7949,1.8127,1.8223,1.8223,1.8223,1.8223,1.8223,1.8223,1.8223,1.8198,1.8079,1.804,1.798,1.798,1.7561,1.7204,1.7242,1.6501,1.5892,1.5892,1.5516,1.5181,1.5181,1.5181,1.5181,1.5181,1.5181,1.5181,1.5181,1.5153,1.514,1.514,1.5004,1.4909,1.4875,1.4645,1.4482,1.4421,1.4163,1.3966,1.3802,1.3887,1.3952,1.3918,1.482,1.5273,1.5278,1.5939,1.6251,1.5118,1.5897,1.6716,1.7569,1.8482,1.9209,1.9319,1.9932,2.0342,1.9824,1.9449,1.9141,1.8955,1.8951,1.9018,1.9074,1.9226,1.9274,1.9144,1.9104,1.8975,1.8654,1.8556,1.8426,1.8239,1.8223,1.8223,1.8223,1.8223,1.8135,1.8054,1.7965,1.7875,1.7741,1.7643,1.7595,1.7595,1.7595,1.7554,1.7518,1.7429,1.7339,1.7258,1.7258,1.7201,1.7112,1.7112,1.7112,1.7112,1.7112,1.7112,1.7112,1.7112,1.7112,1.7112,1.7112,1.7226,1.7396,1.7478,1.7578,1.7802,1.7981,1.8038,1.8054,1.8144,1.8223,1.8223,1.8223,1.8223,1.8223,1.8223,1.8223,1.8129,1.7896,1.7989,1.8129,1.7849,1.7616,1.7343,1.7102,1.6447,1.5892,1.5892,1.5572,1.5289,1.5289,1.5357,1.5398,1.5398,1.5398,1.5371,1.5303,1.5289,1.5262,1.5187,1.516,1.5091,1.5023,1.4821,1.4665,1.4516,1.4367,1.4211,1.4018,1.4061,1.4027,1.3953,1.4858,1.5252,1.5213,1.6056,1.6438,1.5838,1.6849,1.7912,1.9383,2.0187,2.0646,2.0766,2.1511,2.203,2.1656,2.0891,2.0259,1.9989,2.004,2.0055,2.0024,2.018,2.0101,1.9544,1.9456,1.9235,1.8705,1.8514,1.8394,1.8239,1.8223,1.8223,1.8223,1.8223,1.8103,1.7924,1.7892,1.7741,1.7554,1.7522,1.7506,1.7506,1.7506,1.7478,1.7339,1.7339,1.7258,1.7112,1.7112,1.7112,1.7112,1.7112,1.7112,1.7112,1.7112,1.7112,1.7112,1.7112,1.7112,1.7112,1.7112,1.725,1.7453,1.7546,1.7732,1.7989,1.8127,1.8223,1.8223,1.8223,1.8223,1.8223,1.8223,1.8223,1.8223,1.8223,1.8129,1.7943,1.7523,1.7663,1.7803,1.7382,1.7297,1.7149,1.6774,1.6281,1.5927,1.584,1.5588,1.5452,1.5452,1.5512,1.5593,1.5593,1.5593,1.5539,1.5466,1.5425,1.5357,1.5235,1.5201,1.5133,1.5064,1.503,1.4901,1.4604,1.4536,1.4455,1.434,1.4312,1.4282,1.424,1.5061,1.5429,1.5431,1.6257,1.6625,1.6717,1.8192,1.9784,2.0862,2.1669,2.2288,2.2712,2.356,2.42,2.4002,2.268,2.1414,2.0983,2.0937,2.1002,2.1161,2.0859,2.0668,2.0661,1.9841,1.9226,1.9106,1.8588,1.8247,1.8176,1.8223,1.8223,1.8223,1.8223,1.8103,1.7924,1.7716,1.7554,1.7429,1.7266,1.7177,1.7177,1.7177,1.7169,1.7145,1.7145,1.7136,1.7112,1.7112,1.7112,1.7112,1.7112,1.7112,1.7112,1.7112,1.7112,1.7112,1.7112,1.7112,1.7112,1.7112,1.7323,1.7562,1.7587,1.7859,1.8144,1.8168,1.8223,1.8223,1.8223,1.8223,1.8223,1.8223,1.8223,1.8223,1.8223,1.7849,1.7484,1.7437,1.7149,1.6868,1.6821,1.6774,1.6774,1.6728,1.6416,1.5995,1.5568,1.5506,1.556,1.556,1.558,1.5593,1.5593,1.5593,1.5587,1.556,1.5493,1.5404,1.5384,1.5255,1.5174,1.5153,1.5038,1.4996,1.4955,1.4652,1.4502,1.4482,1.4367,1.4506,1.4875,1.5403,1.5879,1.6243,1.6625,1.6777,1.8355,1.9967,2.1473,2.2742,2.3535,2.4193,2.4945,2.5775,2.6387,2.62,2.5732,2.4981,2.3623,2.3622,2.3704,2.337,2.2907,2.2427,2.1909,2.0965,2.0209,1.9929,1.9392,1.8922,1.8604,1.8596,1.8456,1.8223,1.8223,1.8054,1.7732,1.7643,1.7473,1.7242,1.7153,1.7112,1.7112,1.7112,1.7112,1.7112,1.7112,1.7112,1.7112,1.7112,1.7112,1.7112,1.7112,1.7112,1.7112,1.7112,1.7112,1.7112,1.7112,1.7112,1.7112,1.7112,1.721,1.7372,1.7522,1.77,1.7908,1.8111,1.8223,1.8223,1.8223,1.8223,1.8223,1.8223,1.8223,1.8223,1.8223,1.7803,1.7343,1.7055,1.6634,1.6166,1.5931,1.6072,1.6195,1.5998,1.5839,1.5725,1.552,1.5662,1.5757,1.5757,1.5832,1.5886,1.5886,1.5886,1.5852,1.5771,1.5628,1.5506,1.5418,1.5269,1.5181,1.5181,1.5126,1.5098,1.5023,1.4841,1.4726,1.4593,1.4414,1.4513,1.4992,1.5484,1.5925,1.6393,1.6812,1.6955,1.9903,2.1408,2.277,2.4026,2.4901,2.5731,2.6666,2.7523,2.8152,2.808,2.8495,2.8398,2.6853,2.6422,2.6168,2.5582,2.4908,2.4178,2.3444,2.2432,2.1556,2.1001,2.0547,1.9991,1.9349,1.9302,1.9023,1.8409,1.8363,1.816,1.7611,1.7595,1.7433,1.712,1.7112,1.7112,1.7112,1.7112,1.7112,1.7112,1.7112,1.7112,1.7112,1.7112,1.7112,1.7112,1.7112,1.7112,1.7112,1.7112,1.7112,1.7112,1.7112,1.7112,1.7112,1.7112,1.7136,1.7226,1.7489,1.7627,1.7716,1.807,1.8223,1.8223,1.8223,1.8223,1.8223,1.8223,1.8223,1.8176,1.8036,1.7616,1.7102,1.6587,1.6119,1.561,1.5275,1.5462,1.5652,1.5432,1.5445,1.5513,1.5669,1.5818,1.5962,1.5962,1.6058,1.6083,1.6083,1.6083,1.6035,1.5976,1.575,1.556,1.5527,1.535,1.5255,1.5296,1.5262,1.5194,1.5086,1.5057,1.4916,1.4801,1.4678,1.4787,1.5233,1.5587,1.6051,1.6577,1.6928,1.7112,2.1066,2.216,2.3361,2.421,2.5367,2.6547,2.7378,2.844,2.9276,2.9516,3.0221,3.0656,3.0311,2.8635,2.7297,2.7285,2.6212,2.5423,2.5366,2.4086,2.303,2.2524,2.2063,2.1417,2.0408,2.0315,1.9898,1.893,1.8837,1.8484,1.7664,1.7595,1.7433,1.712,1.7112,1.7112,1.7112,1.7112,1.7112,1.7112,1.7112,1.7112,1.7112,1.7112,1.7112,1.7112,1.7112,1.7112,1.7112,1.7112,1.7112,1.7112,1.7112,1.7112,1.7112,1.7112,1.7218,1.7396,1.7538,1.7708,1.7932,1.8111,1.8223,1.8223,1.8223,1.8223,1.8223,1.8223,1.8223,1.8083,1.7577,1.7102,1.6587,1.6079,1.5556,1.5228,1.5228,1.5228,1.5275,1.5384,1.5479,1.5676,1.5867,1.6017,1.6069,1.6069,1.6076,1.6083,1.6083,1.6083,1.6076,1.6069,1.5811,1.5689,1.5867,1.5567,1.5459,1.556,1.5479,1.5398,1.5391,1.512,1.5017,1.4957,1.5297,1.5595,1.5853,1.5898,1.6306,1.7068,1.7112,1.7112,2.1205,2.2148,2.3291,2.4437,2.5651,2.679,2.7745,2.8718,2.944,2.9545,2.9931,3.0346,3.0624,3.0219,2.9613,2.892,2.8199,2.7482,2.6981,2.5946,2.5172,2.499,2.4269,2.3352,2.2386,2.1971,2.1278,1.9944,1.9736,1.9192,1.8163,1.7984,1.7676,1.712,1.6963,1.6893,1.6771,1.6771,1.6771,1.6771,1.6771,1.6828,1.6898,1.6898,1.6963,1.7112,1.7112,1.7112,1.7112,1.7112,1.7112,1.7112,1.7112,1.7112,1.7112,1.7112,1.7153,1.725,1.7497,1.7635,1.7741,1.8079,1.8223,1.8223,1.8223,1.8223,1.8223,1.8223,1.8223,1.8083,1.753,1.7055,1.6494,1.565,1.5321,1.5181,1.5181,1.5181,1.5255,1.5506,1.5553,1.5668,1.5961,1.6092,1.6083,1.6083,1.6083,1.6083,1.6083,1.6083,1.6092,1.5996,1.5839,1.5757,1.5716,1.5622,1.5533,1.5587,1.5539,1.5506,1.5506,1.5689,1.5767,1.5767,1.6126,1.6191,1.6107,1.6386,1.6843,1.7408,1.7408,1.7408,2.1342,2.2121,2.3148,2.4129,2.5241,2.6333,2.7241,2.8219,2.8938,2.9152,2.9579,3.01,3.0688,3.1036,3.0923,3.0109,2.9495,2.8916,2.8274,2.7546,2.6957,2.6776,2.6186,2.5411,2.4396,2.3846,2.2984,2.1463,2.0914,2.0025,1.8705,1.8284,1.7753,1.7031,1.6809,1.6706,1.6584,1.6584,1.6584,1.6584,1.6584,1.6641,1.672,1.6785,1.6874,1.6979,1.7088,1.7112,1.7112,1.7112,1.7112,1.7112,1.7112,1.7112,1.7112,1.7112,1.7153,1.7242,1.7497,1.7635,1.7778,1.8079,1.8223,1.8223,1.8223,1.8223,1.8223,1.8223,1.8223,1.8036,1.7336,1.6681,1.6025,1.5368,1.5181,1.5181,1.5181,1.5181,1.5276,1.5533,1.5593,1.573,1.6029,1.6083,1.6083,1.6083,1.6083,1.6083,1.6083,1.6083,1.6071,1.5915,1.5901,1.586,1.5716,1.571,1.573,1.5784,1.5883,1.5953,1.5953,1.633,1.651,1.6452,1.7011,1.7142,1.6857,1.6948,1.7205,1.7595,1.7595,1.7685,0.0,0.0,0.0,2.322,2.4182,2.5235,2.581,2.6854,2.7816,2.8417,2.9245,3.0047,3.0648,3.0996,3.1102,3.0822,3.0129,2.9566,2.9266,2.8835,2.8339,2.783,2.7727,2.7365,2.6446,2.5867,2.4955,2.349,2.2313,2.0924,1.9239,1.8446,1.7687,1.6801,1.6665,1.6568,1.6568,1.6568,1.6568,1.6568,1.6568,1.661,1.6619,1.672,1.6809,1.6817,1.6995,1.7112,1.7112,1.7112,1.7112,1.7112,1.7112,1.7112,1.7112,1.712,1.7234,1.7413,1.7546,1.7724,1.7949,1.8119,1.8223,1.8223,1.8223,1.8223,1.8223,1.8223,1.8223,1.7989,1.6962,1.5931,1.5181,1.5181,1.5181,1.5181,1.5181,1.5181,1.5276,1.5533,1.5593,1.573,1.6029,1.6083,1.6083,1.6083,1.6083,1.6083,1.6083,1.6083,1.6071,1.5915,1.5901,1.5908,1.5894,1.5901,1.5976,1.6119,1.644,1.6601,1.665,1.7035,1.7161,1.7037,1.7931,1.8355,1.8223,1.7581,1.7415,1.7656,1.7702,1.7973,2.1229,0.0,0.0,0.0,0.0,0.0,2.4609,2.5636,2.6586,2.6921,2.7869,2.8928,2.97,3.0087,3.0327,3.0507,3.049,3.0305,2.9755,2.9599,2.9465,2.933,2.9002,2.8552,2.7965,2.7423,2.6504,2.5058,2.3709,2.2154,2.0256,1.825,1.6957,1.6462,1.6405,1.6316,1.6153,1.6153,1.6153,1.6153,1.6153,1.6259,1.6389,1.6568,1.673,1.6817,1.6995,1.7112,1.7112,1.7112,1.7112,1.7112,1.7112,1.7112,1.7128,1.7258,1.7339,1.7429,1.7737,1.783,1.7949,1.8119,1.8223,1.8223,1.8223,1.8223,1.8223,1.8223,1.8223,1.7989,1.6962,1.5931,1.5181,1.5181,1.5181,1.5181,1.5181,1.5181,1.5276,1.5533,1.5593,1.573,1.6029,1.6083,1.6083,1.6083,1.6083,1.6083,1.6083,1.6083,1.5981,1.5723,1.5893,1.5934,1.5716,1.5893,1.6234,1.6672,1.6779,1.7005,1.7358,1.7742,1.7858,1.7633,1.8509,1.8872,1.8697,1.8917,1.9051,1.9139,1.9461,1.9692,0.0,0.0,0.0,0.0,0.0,0.0,2.3581,2.4462,2.5422,2.5919,2.676,2.7804,2.8911,2.9259,2.9553,3.0087,3.0314,3.0301,2.9967,2.9913,2.9913,2.9913,2.9644,2.9375,2.9105,2.8597,2.783,2.6561,2.4811,2.2626,2.0025,1.82,1.7111,1.6852,1.6601,1.6394,1.6287,1.6287,1.6287,1.6287,1.6501,1.6633,1.6743,1.6927,1.712,1.7262,1.7481,1.7607,1.7682,1.7682,1.7463,1.7112,1.7112,1.7112,1.7136,1.7323,1.7429,1.7534,1.7819,1.7965,1.8038,1.8144,1.8223,1.8223,1.8223,1.8223,1.8223,1.8223,1.7896,1.7429,1.6868,1.5931,1.5181,1.5181,1.5181,1.5181,1.5181,1.5181,1.5255,1.5499,1.5546,1.5716,1.5947,1.6042,1.6083,1.6083,1.6083,1.6083,1.6083,1.6083,1.5967,1.5621,1.5906,1.5961,1.5614,1.5913,1.6325,1.6871,1.7119,1.7466,1.8012,1.8413,1.8541,1.824,1.9131,1.9805,2.0139,2.0037,2.0223,2.064,2.1094,2.1556,0.0,0.0,0.0,0.0,2.2017,0.0,2.2786,2.3487,2.4342,2.5157,2.5812,2.6667,2.8056,2.8364,2.8671,2.9486,2.9673,2.978,2.994,2.994,2.9927,2.9967,2.994,2.9913,2.9913,2.951,2.8854,2.7825,2.5403,2.2548,1.9213,1.8372,1.7913,1.7734,1.7154,1.6862,1.6862,1.6862,1.6862,1.6862,1.7355,1.76,1.7609,1.7797,1.7993,1.8198,1.8428,1.8633,1.8821,1.8733,1.8164,1.7244,1.72,1.72,1.718,1.7339,1.751,1.7627,1.7875,1.8046,1.8223,1.8223,1.8223,1.8223,1.8223,1.8223,1.8223,1.8223,1.7476,1.6681,1.6681,1.5931,1.5181,1.5181,1.5181,1.5181,1.5181,1.5181,1.5221,1.5357,1.5506,1.5662,1.5874,1.6017,1.6062,1.6083,1.6083,1.6083,1.6083,1.6069,1.5954,1.5689,1.59,1.5947,1.5634,1.592,1.6325,1.697,1.7417,1.797,1.8556,1.9058,1.9151,1.8809,1.9758,2.0838,2.2001,2.1057,2.114,2.2156,2.2662,2.3433,0.0,0.0,0.0,0.0,0.0,0.0,2.2485,2.2985,2.3621,2.4022,2.477,2.561,2.6372,2.6854,2.7308,2.7764,2.8219,2.8955,3.0145,3.0074,3.0007,3.0293,3.006,2.9913,2.9913,2.9824,2.9283,2.8112,2.4739,2.1882,1.989,1.8926,1.848,1.8475,1.7987,1.7764,1.7764,1.7764,1.7764,1.7764,1.8573,1.893,1.894,1.9481,1.982,2.0078,2.0295,2.0521,2.0718,2.0371,1.9423,1.8208,1.7822,1.7647,1.7645,1.7612,1.757,1.7643,1.8014,1.8144,1.8223,1.8223,1.8223,1.8223,1.8223,1.8223,1.8223,1.8223,1.7476,1.6681,1.6681,1.5931,1.5181,1.5181,1.5181,1.5181,1.5181,1.5181,1.5194,1.5221,1.535,1.554,1.5854,1.5928,1.599,1.6062,1.6083,1.6083,1.6083,1.6024,1.5922,1.5867,1.5915,1.5922,1.5867,1.5981,1.653,1.7466,1.7623,1.8118,1.9108,1.9256,1.9404,1.9562,2.0271,2.1217,2.2452,2.2258,2.2708,2.3673,2.4544,2.5275,0.0,0.0,0.0,2.1984,0.0,0.0,0.0,2.2432,2.2779,2.3255,2.371,2.4231,2.4981,2.5317,2.5758,2.6533,2.7148,2.7949,2.9299,2.9606,2.9806,3.01,3.0007,2.986,2.9713,2.97,2.8937,2.7134,2.4785,2.2805,2.1379,2.0834,2.0495,2.0292,1.9825,1.95,1.9307,1.9307,1.9388,1.9582,2.0272,2.0718,2.092,2.1199,2.1568,2.1954,2.2041,2.2288,2.2611,2.2395,2.1748,2.0761,1.9117,1.8514,1.8471,1.8408,1.8364,1.8423,1.8795,1.8968,1.8968,1.8968,1.8968,1.8968,1.8968,1.8735,1.8502,1.8269,1.7476,1.6681,1.6681,1.5931,1.5181,1.5181,1.5181,1.5181,1.5181,1.5181,1.5181,1.5181,1.5242,1.5371,1.5594,1.5806,1.5928,1.6003,1.6085,1.6083,1.6083,1.6194,1.6244,1.6244,1.6489,1.6636,1.6636,1.6786,1.7318,1.8408,1.8449,1.8952,1.9988,2.0038,2.0245,2.0723,2.147,2.2337,2.3362,2.3857,2.4498,2.5195,2.5913,2.6776,0.0,0.0,0.0,0.0,0.0,2.1729,0.0,0.0,0.0,2.2546,2.2639,2.288,2.3634,2.3875,2.4275,2.5329,2.5985,2.6774,2.7856,2.847,2.9045,2.9673,2.9753,2.9633,2.9339,2.9118,2.8156,2.6118,2.5008,2.3932,2.2853,2.2781,2.2643,2.2263,2.1808,2.1445,2.1082,2.1092,2.1243,2.1607,2.2131,2.2573,2.2895,2.2975,2.3307,2.3838,2.3838,2.4077,2.4543,2.4458,2.4201,2.3654,2.0975,1.9915,1.9796,1.976,1.9726,1.978,2.0142,2.0176,2.013,2.013,2.0037,1.9944,1.9851,1.9535,1.907,1.8502,1.7616,1.6821,1.6728,1.6025,1.5321,1.5321,1.5321,1.5321,1.5321,1.5321,1.5321,1.5321,1.5415,1.5464,1.5432,1.5704,1.5973,1.6,1.6159,1.6341,1.644,1.6643,1.6913,1.7167,1.7584,1.7877,1.8043,1.8174,1.8697,1.9577,1.9676,2.0119,2.121,2.1419,2.1715,2.2287,2.3004,2.3757,2.4544,2.5411,2.6106,2.6561,2.706,2.801,0.0,0.0,0.0,0.0,2.2151,0.0,0.0,0.0,2.1649,2.1716,0.0,2.185,2.2211,0.0,0.0,2.3554,2.4292,2.5079,2.5772,2.6185,2.7095,2.8868,2.9095,2.8988,2.8738,2.7849,2.7003,2.6297,2.4921,2.3977,2.3615,2.3452,2.344,2.3588,2.3175,2.2935,2.2895,2.2895,2.2935,2.2975,2.3816,2.4215,2.4268,2.4639,2.5153,2.5668,2.5668,2.5983,2.6443,2.6018,2.5835,2.5562,2.3489,2.2408,2.2042,2.1936,2.196,2.1955,2.2204,2.2017,2.1648,2.1648,2.1325,2.0862,2.0455,2.0269,2.0037,1.907,1.8091,1.7203,1.6821,1.6259,1.5845,1.5845,1.5845,1.5845,1.5845,1.5845,1.5845,1.5845,1.6213,1.631,1.5527,1.5813,1.6218,1.6312,1.6686,1.7136,1.7619,1.761,1.8049,1.9231,1.9308,1.9583,2.0345,2.0446,2.0701,2.129,2.1339,2.179,2.2877,2.3555,2.4053,2.4351,2.4689,2.5235,2.6037,2.6594,2.7093,2.7558,2.8056,2.888,0.0,0.0,0.0,0.0,0.0,0.0,2.1991,0.0,2.1381,0.0,0.0,0.0,0.0,0.0,0.0,0.0,2.33,2.3986,2.4436,2.4903,2.5758,2.7321,2.7495,2.7455,2.7335,2.6675,2.6101,2.5771,2.5243,2.4811,2.4651,2.4894,2.5047,2.4958,2.4786,2.4587,2.432,2.432,2.4427,2.4706,2.5065,2.5382,2.5594,2.5922,2.6343,2.6749,2.6906,2.7208,2.7588,2.7418,2.7165,2.6876,2.6345,2.5243,2.3994,2.3682,2.3584,2.3571,2.3497,2.3352,2.3168,2.3168,2.3214,2.3076,2.2017,2.1694,2.1417,2.013,1.9294,1.8634,1.8121,1.7616,1.7242,1.7242,1.7242,1.7242,1.7242,1.7242,1.7336,1.7608,1.7841,1.7959,1.7843,1.7419,1.7274,1.7875,1.8208,1.8608,1.9127,1.9302,1.9803,2.0909,2.1167,2.1636,2.2526,2.2613,2.2857,2.3336,2.3979,2.466,2.5389,2.5836,2.6068,2.6056,2.655,2.6936,2.7093,2.7604,2.8101,2.8597,2.8777,2.9285,2.3174,0.0,0.0,0.0,0.0,0.0,0.0,0.0,0.0,0.0,0.0,0.0,0.0,0.0,0.0,0.0,0.0,2.3033,2.3281,2.3647,2.4382,2.5638,2.5865,2.5972,2.6132,2.5687,2.5308,2.5137,2.5205,2.5192,2.4994,2.5714,2.603,2.5727,2.5872,2.5792,2.5448,2.5448,2.5647,2.5951,2.5951,2.6149,2.652,2.672,2.7028,2.7443,2.7602,2.7911,2.8179,2.8179,2.7981,2.7751,2.8286,2.7582,2.6151,2.5572,2.5308,2.5162,2.4808,2.4635,2.4498,2.4361,2.4635,2.4772,2.3582,2.3214,2.2892,2.1417,2.0677,2.0158,1.9471,1.9053,1.8782,1.8782,1.8782,1.8782,1.8782,1.8782,1.896,1.9416,1.9602,1.9926,2.052,1.9389,1.8692,1.953,1.9888,2.0307,2.0913,2.1208,2.1753,2.2892,2.3184,2.3742,2.4726,2.4758,2.5,2.5545,2.6416,2.7141,2.7659,2.7831,2.7899,2.7799,2.8198,2.838,2.8281,2.87,2.906,2.9407,2.9272,2.9451,0.0,0.0,0.0,2.3278,0.0,0.0,0.0,0.0,2.1649,0.0,0.0,0.0,0.0,0.0,0.0,0.0,0.0,0.0,0.0,2.2058,2.2619,2.4102,2.4479,2.4879,2.5491,2.4986,2.4616,2.4602,2.4629,2.4496,2.4239,2.5358,2.5852,2.5506,2.6092,2.6386,2.6347,2.6347,2.6386,2.6386,2.6386,2.6533,2.6814,2.6814,2.7134,2.7682,2.7696,2.7911,2.8179,2.8179,2.8179,2.8245,2.8761,2.8945,2.878,2.792,2.7308,2.6855,2.6379,2.5924,2.5468,2.4955,2.5149,2.5468,2.4909,2.4727,2.4406,2.2938,2.2202,2.1602,2.0594,2.0362,2.0315,2.0315,2.0315,2.0315,2.0315,2.0315,2.0445,2.0936,2.1454,2.2109,2.302,2.1602,2.0501,2.0945,2.1473,2.2129,2.3087,2.3225,2.3818,2.5329,2.5478,2.5903,2.6925,2.7007,2.7201,2.7694,2.8212,2.8788,2.928,2.9278,2.9453,2.9917,2.9404,2.9375,2.9824,2.9869,2.9869,2.9869,2.9407,2.9451,0.0,0.0,2.3621,2.3621,0.0,0.0,0.0,0.0,0.0,0.0,0.0,0.0,0.0,0.0,0.0,0.0,0.0,0.0,0.0,2.1403,2.1737,2.2632,2.3166,2.3621,2.4022,2.4062,2.3901,2.3487,2.3834,2.4022,2.3928,2.4663,2.5304,2.5824,2.6038,2.6238,2.6386,2.6386,2.6386,2.6386,2.6587,2.6734,2.68,2.7228,2.7509,2.7709,2.7951,2.8098,2.8179,2.8179,2.8312,2.8484,2.8841,2.9121,2.9247,2.8514,2.792,2.732,2.6197,2.5924,2.597,2.5468,2.5879,2.6367,2.556,2.5674,2.5799,2.4646,2.4348,2.4154,2.3334,2.3107,2.3077,2.2877,2.2846,2.2846,2.2846,2.2846,2.2984,2.3479,2.3719,2.404,2.4727,2.4269,2.3765,2.3571,2.3719,2.404,2.4738,2.4818,2.5227,2.6214,2.6491,2.6922,2.7783,2.7985,2.8464,2.9267,2.9507,2.9984,3.0903,3.0679,3.061,3.0796,3.0458,3.0258,3.0207,3.0207,3.0114,2.9913,2.9734,2.9734,2.4933,2.4596,0.0,2.4272,2.3455,0.0,2.2993,0.0,2.2412,0.0,0.0,0.0,0.0,0.0,0.0,0.0,0.0,0.0,0.0,2.1109,2.1283,2.181,2.2291,2.2706,2.2945,2.318,2.3086,2.2626,2.3041,2.3287,2.3287,2.3955,2.4596,2.5195,2.5422,2.5678,2.6079,2.6079,2.6186,2.6386,2.668,2.6881,2.7001,2.7482,2.7762,2.7911,2.8098,2.8179,2.8179,2.8179,2.8366,2.8631,2.8881,2.9219,2.9424,2.8911,2.8191,2.7275,2.6197,2.5924,2.6027,2.5696,2.6106,2.6652,2.6015,2.6385,2.6768,2.5971,2.5933,2.5975,2.5204,2.5045,2.4979,2.4701,2.4635,2.4635,2.4635,2.4635,2.4783,2.524,2.5332,2.5514,2.6015,2.6118,2.5924,2.5423,2.5332,2.5514,2.6015,2.6118,2.6303,2.6883,2.719,2.7628,2.8271,2.8524,2.9052,3.0032,3.008,3.0557,3.1664,3.1383,3.1176,3.1176,3.0942,3.0648,3.04,3.04,3.0207,2.9913,2.9913,2.9913]},{"header":{"parameterUnit":"m.s-1","parameterCategory":1,"la1":30.6,"la2":29.2853,"lo1":-89.7004,"lo2":-87.6739,"dy":0.0162,"dx":0.0183,"nx":112,"ny":82,"refTime":"2023-09-28T00:00:00:Z","depth":0,"parameterNumber":3,"parameterNumberName":"V-component_of_WINDS"},"data":[0.0,0.0,0.0,0.0,0.0,0.0,0.0,0.0,0.0,0.0,0.0,0.0,0.0,0.0,0.0,0.0,0.0,0.0,0.0,0.0,0.0,0.0,0.0,0.0,0.0,0.0,0.0,0.0,0.0,0.0,0.0,0.0,0.0,0.0,0.0,0.0,0.0,0.0,0.0,0.0,0.0,0.0,0.0,0.0,0.0,0.0,0.0,0.0,0.0,0.0,0.0,0.0,0.0,0.0,0.0,0.0,0.0,0.0,0.0,0.0,0.0,0.0,0.0,0.0,0.0,0.0,0.0,0.0,0.0,0.0,0.0,0.0,0.0,0.0,0.0,0.0,0.0,0.0,0.0,0.0,0.0,0.0,0.0,0.0,0.0,0.0,0.0,0.0,0.0,0.0,4.7393,5.0891,5.4071,5.5994,5.607,5.4658,5.2754,5.0351,0.0,0.0,0.0,0.0,0.0,0.0,0.0,0.0,0.0,0.0,0.0,0.0,0.0,0.0,0.0,0.0,0.0,0.0,0.0,0.0,0.0,0.0,0.0,0.0,0.0,0.0,0.0,0.0,0.0,0.0,0.0,0.0,0.0,0.0,0.0,0.0,0.0,0.0,0.0,0.0,0.0,0.0,0.0,0.0,0.0,0.0,0.0,0.0,0.0,0.0,0.0,0.0,0.0,0.0,0.0,0.0,0.0,0.0,0.0,0.0,0.0,0.0,0.0,0.0,0.0,0.0,0.0,0.0,0.0,0.0,0.0,0.0,0.0,0.0,0.0,0.0,0.0,0.0,0.0,0.0,0.0,0.0,0.0,0.0,0.0,0.0,0.0,0.0,0.0,0.0,0.0,0.0,0.0,0.0,0.0,0.0,0.0,0.0,0.0,0.0,0.0,0.0,0.0,0.0,4.7491,5.1533,5.3735,5.4959,5.5006,5.4222,5.2966,5.1218,0.0,0.0,0.0,0.0,0.0,0.0,0.0,0.0,0.0,0.0,0.0,0.0,0.0,0.0,0.0,0.0,0.0,0.0,0.0,0.0,0.0,0.0,0.0,0.0,0.0,0.0,0.0,0.0,0.0,0.0,0.0,0.0,0.0,0.0,0.0,0.0,0.0,0.0,0.0,0.0,0.0,0.0,0.0,0.0,0.0,0.0,0.0,0.0,0.0,0.0,0.0,0.0,0.0,0.0,0.0,0.0,0.0,0.0,0.0,0.0,0.0,0.0,0.0,0.0,0.0,0.0,0.0,0.0,0.0,0.0,0.0,0.0,0.0,0.0,0.0,0.0,0.0,0.0,0.0,0.0,0.0,0.0,0.0,0.0,0.0,0.0,0.0,0.0,0.0,0.0,0.0,0.0,0.0,0.0,0.0,0.0,0.0,0.0,0.0,0.0,0.0,0.0,0.0,4.6405,4.8806,5.1621,5.307,5.386,5.3924,5.3279,5.2025,4.996,4.7531,0.0,0.0,0.0,0.0,0.0,0.0,0.0,0.0,0.0,0.0,0.0,0.0,0.0,0.0,0.0,0.0,0.0,0.0,0.0,0.0,0.0,0.0,0.0,0.0,0.0,0.0,0.0,0.0,0.0,0.0,0.0,0.0,0.0,0.0,0.0,0.0,0.0,0.0,0.0,0.0,0.0,0.0,0.0,0.0,0.0,0.0,0.0,0.0,0.0,0.0,0.0,0.0,0.0,0.0,0.0,0.0,0.0,0.0,0.0,0.0,0.0,0.0,0.0,0.0,0.0,0.0,0.0,0.0,0.0,0.0,0.0,0.0,0.0,0.0,0.0,0.0,0.0,0.0,0.0,0.0,0.0,0.0,0.0,0.0,0.0,0.0,0.0,0.0,0.0,0.0,0.0,0.0,0.0,0.0,0.0,0.0,0.0,0.0,0.0,0.0,0.0,0.0,4.7434,4.9511,5.1008,5.2121,5.2789,5.2863,5.2258,5.0913,4.871,4.6859,0.0,0.0,0.0,0.0,0.0,0.0,0.0,0.0,0.0,0.0,0.0,0.0,0.0,0.0,0.0,0.0,0.0,0.0,0.0,0.0,0.0,0.0,0.0,0.0,0.0,0.0,0.0,0.0,0.0,0.0,0.0,0.0,0.0,0.0,0.0,0.0,0.0,0.0,0.0,0.0,0.0,0.0,0.0,0.0,0.0,0.0,0.0,0.0,0.0,0.0,0.0,0.0,0.0,0.0,0.0,0.0,0.0,0.0,0.0,0.0,0.0,0.0,0.0,0.0,0.0,0.0,0.0,0.0,0.0,0.0,0.0,0.0,0.0,0.0,0.0,0.0,0.0,0.0,0.0,0.0,0.0,0.0,0.0,0.0,0.0,0.0,0.0,0.0,0.0,0.0,0.0,0.0,0.0,0.0,0.0,0.0,0.0,0.0,0.0,0.0,0.0,0.0,4.6467,4.8312,4.9198,5.0774,5.182,5.1895,5.1279,5.0213,4.8612,4.6246,0.0,0.0,0.0,0.0,0.0,0.0,0.0,0.0,0.0,0.0,0.0,0.0,0.0,0.0,0.0,0.0,0.0,0.0,0.0,0.0,0.0,0.0,0.0,0.0,0.0,0.0,0.0,0.0,0.0,0.0,0.0,0.0,0.0,0.0,0.0,0.0,0.0,0.0,0.0,0.0,0.0,0.0,0.0,0.0,0.0,0.0,0.0,0.0,0.0,0.0,0.0,0.0,0.0,0.0,0.0,0.0,0.0,0.0,0.0,0.0,0.0,0.0,0.0,0.0,0.0,0.0,0.0,0.0,0.0,0.0,0.0,0.0,0.0,0.0,0.0,0.0,0.0,0.0,0.0,0.0,0.0,0.0,0.0,0.0,0.0,0.0,0.0,0.0,0.0,0.0,0.0,0.0,0.0,0.0,0.0,0.0,0.0,0.0,0.0,0.0,0.0,0.0,4.5769,4.7368,4.8209,4.8859,4.928,4.9367,4.9216,4.821,4.6071,0.0,0.0,0.0,0.0,0.0,0.0,0.0,0.0,0.0,0.0,0.0,0.0,0.0,0.0,0.0,0.0,0.0,0.0,0.0,0.0,0.0,0.0,0.0,0.0,0.0,0.0,0.0,0.0,0.0,0.0,0.0,0.0,0.0,0.0,0.0,0.0,0.0,0.0,0.0,0.0,0.0,0.0,0.0,0.0,0.0,0.0,0.0,0.0,0.0,0.0,0.0,0.0,0.0,0.0,0.0,0.0,0.0,0.0,0.0,0.0,0.0,0.0,0.0,0.0,0.0,0.0,0.0,0.0,0.0,0.0,0.0,0.0,0.0,0.0,0.0,0.0,0.0,0.0,0.0,0.0,0.0,0.0,0.0,0.0,0.0,0.0,0.0,0.0,0.0,0.0,0.0,0.0,0.0,0.0,0.0,0.0,0.0,0.0,0.0,0.0,0.0,0.0,4.3144,4.4979,4.6401,4.7274,4.7602,4.7794,4.7865,4.7736,4.6715,4.4558,0.0,0.0,0.0,0.0,0.0,0.0,0.0,0.0,0.0,0.0,0.0,0.0,0.0,0.0,0.0,0.0,0.0,0.0,0.0,0.0,0.0,0.0,0.0,0.0,0.0,0.0,0.0,0.0,0.0,0.0,0.0,0.0,0.0,0.0,0.0,0.0,0.0,0.0,0.0,0.0,0.0,0.0,0.0,0.0,0.0,0.0,0.0,0.0,0.0,0.0,0.0,0.0,0.0,0.0,0.0,0.0,0.0,0.0,0.0,0.0,0.0,0.0,0.0,0.0,0.0,0.0,0.0,0.0,0.0,0.0,0.0,0.0,0.0,0.0,0.0,0.0,0.0,0.0,0.0,0.0,0.0,0.0,0.0,0.0,0.0,0.0,0.0,0.0,0.0,0.0,0.0,0.0,0.0,0.0,0.0,0.0,0.0,0.0,0.0,0.0,0.0,0.0,4.2253,4.4037,4.5407,4.6282,4.7173,4.7694,4.7767,4.7098,4.6028,0.0,0.0,0.0,0.0,0.0,0.0,0.0,0.0,0.0,0.0,0.0,0.0,0.0,0.0,0.0,0.0,0.0,0.0,0.0,0.0,0.0,0.0,0.0,0.0,0.0,0.0,0.0,0.0,0.0,0.0,0.0,0.0,0.0,0.0,0.0,0.0,0.0,0.0,0.0,0.0,0.0,0.0,0.0,0.0,0.0,0.0,0.0,0.0,0.0,0.0,0.0,0.0,0.0,0.0,0.0,0.0,0.0,0.0,0.0,0.0,0.0,0.0,0.0,0.0,0.0,0.0,0.0,0.0,0.0,0.0,0.0,0.0,0.0,0.0,0.0,0.0,0.0,0.0,0.0,0.0,0.0,0.0,0.0,0.0,0.0,0.0,0.0,0.0,0.0,0.0,0.0,0.0,0.0,0.0,0.0,0.0,0.0,0.0,0.0,0.0,0.0,0.0,0.0,4.2128,4.343,4.4452,4.5401,4.5691,4.586,4.5883,4.5726,4.4975,4.3359,0.0,0.0,0.0,0.0,0.0,0.0,0.0,0.0,0.0,0.0,0.0,0.0,0.0,0.0,0.0,0.0,0.0,0.0,0.0,0.0,0.0,0.0,0.0,0.0,0.0,0.0,0.0,0.0,0.0,0.0,0.0,0.0,0.0,0.0,0.0,0.0,0.0,0.0,0.0,0.0,0.0,0.0,0.0,0.0,0.0,0.0,0.0,0.0,0.0,0.0,0.0,0.0,0.0,0.0,0.0,0.0,0.0,0.0,0.0,0.0,0.0,0.0,0.0,0.0,0.0,0.0,0.0,0.0,0.0,0.0,0.0,0.0,0.0,0.0,0.0,0.0,0.0,0.0,0.0,0.0,0.0,0.0,0.0,0.0,0.0,0.0,0.0,0.0,0.0,0.0,0.0,0.0,0.0,0.0,0.0,0.0,0.0,0.0,0.0,0.0,0.0,0.0,4.2075,4.3085,4.3986,4.4902,4.5028,4.5039,4.5068,4.5125,4.4467,4.2865,0.0,0.0,0.0,0.0,0.0,0.0,0.0,0.0,0.0,0.0,0.0,0.0,0.0,0.0,0.0,0.0,0.0,0.0,0.0,0.0,0.0,0.0,0.0,0.0,0.0,0.0,0.0,0.0,0.0,0.0,0.0,0.0,0.0,0.0,0.0,0.0,0.0,0.0,0.0,0.0,0.0,0.0,0.0,0.0,0.0,0.0,0.0,0.0,0.0,0.0,0.0,0.0,0.0,0.0,0.0,0.0,0.0,0.0,0.0,0.0,0.0,0.0,0.0,0.0,0.0,0.0,0.0,0.0,0.0,0.0,0.0,0.0,0.0,0.0,0.0,0.0,0.0,0.0,0.0,0.0,0.0,0.0,0.0,0.0,0.0,0.0,0.0,0.0,0.0,0.0,0.0,0.0,0.0,0.0,0.0,0.0,0.0,0.0,0.0,0.0,0.0,0.0,4.2074,4.3001,4.3838,4.4763,4.4896,4.492,4.498,4.5039,4.4379,4.2758,0.0,0.0,0.0,0.0,0.0,0.0,0.0,0.0,0.0,0.0,0.0,0.0,0.0,0.0,0.0,0.0,0.0,0.0,0.0,0.0,0.0,0.0,0.0,0.0,0.0,0.0,0.0,0.0,0.0,0.0,0.0,0.0,0.0,0.0,0.0,0.0,0.0,0.0,0.0,0.0,0.0,0.0,0.0,0.0,0.0,0.0,0.0,0.0,0.0,0.0,0.0,0.0,0.0,0.0,0.0,0.0,0.0,0.0,0.0,0.0,5.618,5.3986,0.0,0.0,0.0,0.0,0.0,0.0,0.0,0.0,0.0,0.0,0.0,0.0,0.0,0.0,0.0,0.0,0.0,0.0,0.0,0.0,0.0,0.0,0.0,0.0,0.0,0.0,0.0,0.0,0.0,0.0,0.0,0.0,0.0,0.0,0.0,0.0,0.0,0.0,0.0,0.0,4.1927,4.2906,4.3761,4.4669,4.4751,4.4757,4.477,4.484,4.4182,4.2572,4.2558,0.0,0.0,0.0,0.0,0.0,0.0,0.0,0.0,0.0,0.0,0.0,0.0,0.0,0.0,0.0,0.0,0.0,0.0,0.0,0.0,0.0,0.0,0.0,0.0,0.0,0.0,0.0,0.0,0.0,0.0,0.0,0.0,0.0,0.0,0.0,0.0,0.0,0.0,0.0,0.0,0.0,0.0,0.0,0.0,0.0,0.0,0.0,0.0,0.0,0.0,0.0,0.0,0.0,0.0,0.0,0.0,0.0,0.0,0.0,6.051,5.8039,0.0,0.0,0.0,0.0,0.0,0.0,0.0,0.0,0.0,0.0,0.0,0.0,0.0,0.0,0.0,0.0,0.0,0.0,0.0,0.0,0.0,0.0,0.0,0.0,0.0,0.0,0.0,0.0,0.0,0.0,0.0,0.0,0.0,0.0,0.0,0.0,0.0,0.0,0.0,0.0,4.2566,4.3443,4.414,4.4654,4.4672,4.4666,4.4705,4.4738,4.4247,4.3031,4.2978,0.0,0.0,0.0,0.0,0.0,0.0,0.0,0.0,0.0,0.0,0.0,0.0,0.0,0.0,0.0,0.0,0.0,0.0,0.0,0.0,0.0,0.0,0.0,0.0,0.0,0.0,0.0,0.0,0.0,0.0,0.0,0.0,0.0,0.0,0.0,0.0,0.0,0.0,0.0,0.0,0.0,0.0,0.0,0.0,0.0,0.0,0.0,0.0,0.0,0.0,0.0,0.0,0.0,6.7198,6.799,6.8791,6.9593,7.0024,6.9896,6.5069,6.2932,6.2642,5.9487,0.0,0.0,0.0,0.0,0.0,0.0,0.0,0.0,0.0,0.0,0.0,0.0,0.0,0.0,0.0,0.0,0.0,0.0,0.0,0.0,0.0,0.0,5.2032,5.2866,5.2321,5.1254,5.0017,0.0,0.0,0.0,0.0,0.0,0.0,0.0,0.0,0.0,0.0,0.0,4.3268,4.4042,4.453,4.4652,4.4612,4.4605,4.4666,4.4679,4.4346,4.351,4.3485,4.2869,0.0,0.0,0.0,0.0,0.0,0.0,0.0,0.0,0.0,0.0,0.0,0.0,0.0,0.0,0.0,0.0,0.0,0.0,0.0,0.0,0.0,0.0,0.0,0.0,0.0,0.0,0.0,0.0,0.0,0.0,0.0,0.0,5.4903,5.5688,0.0,0.0,0.0,0.0,0.0,0.0,0.0,0.0,0.0,0.0,0.0,0.0,0.0,6.597,6.8429,7.0188,7.118,7.1453,7.2359,7.2893,7.298,7.325,7.3721,7.4332,7.2987,0.0,6.6988,6.4407,0.0,0.0,0.0,0.0,0.0,0.0,0.0,0.0,0.0,0.0,0.0,0.0,0.0,0.0,0.0,0.0,0.0,0.0,0.0,0.0,0.0,0.0,5.4617,5.5489,5.4406,5.3324,5.3861,5.089,4.8077,4.7964,4.6005,4.4322,0.0,0.0,0.0,0.0,0.0,0.0,4.3314,4.4008,4.4496,4.4517,4.4503,4.4503,4.4517,4.4578,4.4273,4.3476,4.3459,4.3114,4.2199,4.213,0.0,0.0,0.0,0.0,0.0,0.0,0.0,0.0,0.0,0.0,0.0,0.0,0.0,0.0,0.0,0.0,0.0,0.0,0.0,0.0,0.0,0.0,0.0,0.0,0.0,0.0,0.0,0.0,0.0,5.4501,5.7284,5.7988,5.6977,5.5629,0.0,0.0,0.0,0.0,0.0,0.0,0.0,0.0,0.0,6.6212,6.8887,7.1342,7.3553,7.5209,7.6082,7.6156,7.6568,7.678,7.678,7.6829,7.7041,7.7353,7.6614,7.4986,7.2534,6.864,6.511,6.1928,0.0,0.0,0.0,0.0,5.7299,5.77,5.9395,5.977,5.9628,6.0568,0.0,0.0,0.0,0.0,0.0,0.0,0.0,5.298,5.4655,5.5375,5.5815,5.6647,5.6222,5.5615,5.5454,5.3186,5.0598,4.8715,4.7009,4.5615,4.467,4.3513,0.0,0.0,0.0,4.3444,4.3926,4.4264,4.4482,4.4482,4.4482,4.4482,4.4482,4.4517,4.438,4.4042,4.4038,4.3722,4.3001,4.2993,4.2919,0.0,0.0,0.0,0.0,0.0,0.0,0.0,0.0,0.0,0.0,0.0,0.0,0.0,0.0,0.0,0.0,0.0,0.0,0.0,0.0,0.0,0.0,0.0,0.0,0.0,0.0,0.0,0.0,5.7187,5.9825,6.0996,6.0693,5.9871,0.0,0.0,0.0,0.0,0.0,0.0,6.3993,6.6026,6.8287,7.0915,7.3603,7.5708,7.7142,7.8341,7.8991,7.9116,7.9116,7.9004,7.8778,7.8778,7.8666,7.844,7.7839,7.7089,7.6,7.2083,6.8667,6.5684,6.3806,6.2079,6.0567,6.0567,6.067,6.108,6.2748,6.3009,6.2802,6.3824,6.263,6.0345,5.8299,0.0,0.0,0.0,0.0,5.4966,5.6631,5.7056,5.7146,5.7505,5.7397,5.6986,5.609,5.45,5.2411,4.9491,4.789,4.6516,4.5052,4.4151,0.0,4.4414,4.4001,4.382,4.4414,4.4482,4.4482,4.4482,4.4482,4.4482,4.4482,4.4482,4.4482,4.4482,4.4482,4.4281,4.3805,4.3781,4.3627,4.3308,0.0,0.0,0.0,0.0,0.0,0.0,0.0,0.0,0.0,0.0,0.0,0.0,0.0,0.0,0.0,0.0,0.0,0.0,0.0,0.0,0.0,0.0,0.0,0.0,0.0,0.0,0.0,0.0,0.0,6.6134,6.4953,0.0,0.0,0.0,0.0,6.5354,6.5652,6.7819,7.2721,7.3192,7.4548,7.7167,7.8279,7.8866,7.8954,7.9066,7.9104,7.9116,7.9116,7.8703,7.7964,7.7964,7.7539,7.6826,7.6788,7.6262,7.5361,7.4385,7.247,6.9954,6.7486,6.5534,6.4069,6.4069,6.4091,6.4405,6.6099,6.6734,6.6681,6.5917,6.2991,5.9601,5.8702,5.6697,0.0,0.0,5.6937,5.7306,5.8974,5.9436,5.9247,5.8501,5.7678,5.6781,5.5999,5.4426,5.2685,5.0989,4.8679,4.6704,4.581,0.0,4.4451,4.4482,4.4489,4.4451,4.4482,4.4482,4.4482,4.4482,4.4482,4.4482,4.4482,4.4482,4.4482,4.4482,4.4482,4.4524,4.4523,4.453,4.4669,4.4864,4.4217,0.0,0.0,0.0,0.0,0.0,0.0,0.0,0.0,0.0,0.0,0.0,0.0,0.0,0.0,0.0,0.0,0.0,0.0,0.0,0.0,0.0,0.0,0.0,0.0,0.0,0.0,0.0,0.0,6.8189,6.8758,0.0,6.8503,6.7662,6.7771,6.9386,7.1025,7.2979,7.5321,7.6568,7.7629,7.8566,7.9479,7.9955,7.9955,8.043,8.043,7.9917,7.9379,7.8666,7.7889,7.7351,7.6938,7.66,7.6075,7.5399,7.4573,7.3709,7.2845,7.1907,7.0517,6.9278,6.8162,6.7063,6.6462,6.6236,6.6829,6.6466,6.5722,6.5481,6.4044,6.2246,6.1346,6.0118,5.904,5.8992,5.8968,5.9111,5.9688,5.9378,5.8824,5.8471,5.767,5.6747,5.5859,5.4772,5.3478,5.1821,4.9956,4.8514,4.8213,4.6561,4.5465,4.6028,4.5202,4.4482,4.4482,4.4482,4.4482,4.4482,4.4482,4.4482,4.4482,4.4482,4.4482,4.4482,4.453,4.4592,4.4666,4.4712,4.4846,4.5068,4.4881,4.479,0.0,0.0,0.0,0.0,0.0,0.0,0.0,0.0,0.0,0.0,0.0,0.0,0.0,0.0,0.0,0.0,0.0,0.0,0.0,0.0,0.0,0.0,0.0,0.0,0.0,6.5936,6.9766,7.1145,7.2759,7.3637,7.3316,7.3005,7.3307,7.4359,7.6005,7.7317,7.8166,7.9329,7.983,7.9529,8.0105,8.0143,7.9579,8.0105,7.9942,7.9129,7.8553,7.7839,7.7025,7.6488,7.5924,7.5312,7.4798,7.4085,7.3322,7.2733,7.253,7.2489,7.1662,7.1045,7.0449,6.9062,6.8178,6.7571,6.7297,6.6451,6.547,6.5645,6.4893,6.3848,6.2933,6.2102,6.127,6.035,6.0084,6.0053,6.0029,5.9455,5.8765,5.8182,5.7524,5.6723,5.5563,5.4852,5.4121,5.2986,5.1241,4.9828,4.9565,4.8101,4.7162,4.7755,4.6404,4.5352,4.5352,4.4864,4.4482,4.4482,4.4482,4.4482,4.4482,4.4482,4.4496,4.4524,4.4592,4.4666,4.4738,4.4808,4.4938,4.5131,4.5329,4.5064,4.435,0.0,0.0,0.0,0.0,0.0,0.0,0.0,0.0,0.0,0.0,0.0,0.0,0.0,0.0,0.0,0.0,0.0,0.0,0.0,0.0,0.0,0.0,0.0,6.5711,6.9267,7.2796,7.5249,7.7025,7.8328,7.9116,7.8478,7.8678,8.033,8.0443,8.0818,8.1557,8.1594,8.1219,8.0443,8.0368,7.9579,7.7964,7.7927,7.7502,7.6663,7.6713,7.6262,7.5436,7.5399,7.446,7.2921,7.2921,7.2432,7.1719,7.1681,7.1759,7.1745,7.0917,7.069,7.0729,6.9944,6.9181,6.8412,6.7621,6.6933,6.642,6.6544,6.5527,6.412,6.3255,6.2385,6.1482,6.0571,6.0265,6.0172,6.0045,5.9898,5.9355,5.7721,5.7208,5.6651,5.5036,5.4625,5.4522,5.4522,5.25,5.0595,4.979,4.9602,4.9565,4.9565,4.8138,0.0,4.7154,4.569,4.4677,4.4714,4.4677,4.4639,4.4684,4.4684,4.4681,4.4718,4.4792,4.4864,4.4934,4.5003,4.5136,4.5361,4.5634,4.5366,4.4592,0.0,0.0,0.0,0.0,0.0,0.0,0.0,0.0,0.0,0.0,0.0,0.0,0.0,0.0,0.0,0.0,0.0,0.0,0.0,0.0,0.0,6.6598,7.0263,7.0024,7.3559,7.6901,7.8791,7.9955,8.0656,8.0881,8.0693,8.0768,8.1219,8.182,8.197,8.1632,8.1594,8.1219,8.0443,7.9792,7.9229,7.8778,7.8778,7.8666,7.8403,7.7239,7.6563,7.6225,7.5061,7.4272,7.3822,7.3274,7.2593,7.1814,7.1308,7.0798,7.0317,7.0612,7.0846,7.0875,6.953,6.8248,6.7133,6.6478,6.613,6.5993,6.6102,6.5877,6.524,6.375,6.3128,6.2616,6.1135,6.0692,6.0621,6.054,5.9899,5.9029,5.7922,5.7034,5.6163,5.5139,5.4845,5.4784,5.4784,5.4239,5.358,5.3136,5.1555,5.0587,5.1142,4.9858,4.9227,5.0383,4.9144,4.8611,4.9883,4.8912,4.8248,4.8338,4.8352,4.8115,4.7615,4.7694,4.7763,4.7756,4.7864,4.8313,4.9102,4.9254,4.9247,0.0,0.0,0.0,0.0,0.0,0.0,0.0,0.0,0.0,0.0,0.0,0.0,0.0,0.0,0.0,0.0,0.0,0.0,0.0,0.0,0.0,0.0,7.0743,7.4814,7.5577,7.7916,8.0029,8.132,8.2159,8.2646,8.2646,8.2646,8.2646,8.2646,8.3096,8.2971,8.2158,8.2107,8.1745,8.0931,8.0092,7.9454,7.9116,7.8778,7.8403,7.8027,7.7126,7.6512,7.6146,7.5206,7.4436,7.386,7.3398,7.2805,7.2116,7.1777,7.1171,7.0506,0.0,0.0,0.0,0.0,6.7951,6.6865,6.6144,6.5963,6.6003,6.6118,6.6144,6.5894,6.4541,6.3845,6.3298,6.1964,6.1272,6.0957,6.0839,6.0348,5.9616,5.8718,5.801,5.7158,5.5973,5.5639,5.5514,5.5158,5.5033,0.0,5.4746,5.3466,5.2589,5.3039,5.1713,5.1254,5.2879,5.1065,5.0282,5.1986,5.0739,4.9797,4.9899,4.9902,0.0,0.0,0.0,4.9557,4.9636,4.9723,0.0,0.0,0.0,5.0825,5.0913,5.0968,0.0,0.0,4.9589,5.0065,0.0,0.0,0.0,0.0,0.0,0.0,0.0,0.0,0.0,0.0,0.0,0.0,0.0,0.0,0.0,0.0,7.4558,7.9056,8.1261,8.1941,8.247,8.3125,8.3777,8.4151,8.4151,8.4163,8.4136,8.4136,8.4136,8.3761,8.2884,8.2835,0.0,0.0,0.0,8.0192,7.9315,7.8613,7.7823,7.6947,7.6909,7.6528,7.5815,7.569,7.4919,7.3591,7.3601,7.3286,7.2707,7.2778,7.244,7.1756,7.0686,7.0292,7.0193,6.8988,6.8017,6.7216,6.6409,0.0,0.0,6.6331,6.6363,6.6243,6.5386,6.4494,6.3636,6.278,6.1871,6.1191,6.1065,6.0963,6.071,5.9755,5.9452,5.8883,5.7249,5.6845,5.6534,5.5673,5.5428,5.5275,5.5192,5.5054,5.4882,5.4845,5.3558,5.327,5.5092,5.2438,5.1133,5.2996,5.165,0.0,5.0621,5.0691,5.072,5.0665,5.0779,5.0947,5.1121,5.1245,5.1273,5.1316,5.1403,5.1502,5.1509,5.1619,5.2429,5.3868,5.2119,5.1425,0.0,0.0,0.0,0.0,0.0,0.0,0.0,0.0,0.0,0.0,0.0,0.0,0.0,0.0,0.0,7.4241,7.8469,8.1972,8.3773,8.4452,8.4695,8.4487,8.4488,8.4479,8.4479,8.4368,8.4279,8.4279,8.4279,8.3865,8.3,8.3173,8.2916,8.2123,8.2001,8.1518,8.0712,8.056,8.003,7.916,7.8528,0.0,7.7097,7.6404,7.5614,7.4866,7.4949,7.4604,7.3986,7.4136,7.3864,7.3188,7.1453,7.0459,6.9986,6.9081,6.8254,6.7519,6.6622,6.6385,6.6473,6.6473,6.6477,6.633,6.5433,6.4621,0.0,6.2901,6.2043,6.1333,6.1244,6.1203,6.0924,6.0023,5.9713,5.9335,5.836,5.8084,5.7772,5.6914,5.6745,5.6498,5.5805,5.5326,5.5064,5.505,5.479,5.5658,5.8684,5.6152,5.5275,5.8339,5.6029,5.4339,5.4438,5.4509,5.4265,5.3629,5.3659,5.3768,5.3841,5.4539,5.4928,5.4968,5.507,5.5118,5.5192,5.5207,5.5384,5.5645,5.3906,5.3871,0.0,0.0,0.0,0.0,0.0,0.0,0.0,0.0,0.0,0.0,0.0,6.6584,6.8764,0.0,7.5359,7.8348,8.1626,8.4066,8.4796,8.552,8.5752,8.5225,8.5002,8.4892,8.4892,8.4741,8.4637,8.4637,8.4637,8.4448,8.4032,8.42,8.4106,8.3726,8.3388,8.2994,8.2614,8.1766,8.1119,8.07,7.9863,7.9074,7.838,7.7931,7.7417,7.6794,7.693,7.6794,7.6486,7.5819,7.5175,7.4473,7.3032,7.181,7.0685,6.9846,6.9076,6.8341,6.791,6.7771,6.7787,6.7787,6.7519,6.7052,6.6625,6.5615,6.4527,6.4057,6.3047,6.2034,6.2016,6.1648,6.1194,6.0693,6.0532,6.0265,5.9431,5.9215,5.8927,5.8071,5.7855,5.7721,5.7296,5.6997,5.6514,5.549,5.535,5.655,5.9873,5.7411,5.6664,6.0092,5.7539,5.5643,5.5696,5.5753,5.5654,5.5282,5.5271,5.535,5.5397,5.5801,5.6054,5.6113,5.6118,5.6191,5.6209,5.6231,5.6248,5.6226,5.5359,5.5436,0.0,0.0,0.0,0.0,0.0,0.0,0.0,6.5845,6.7392,6.859,7.0407,7.249,7.4895,7.7279,7.9598,8.1955,8.4064,8.5441,8.5443,8.6035,8.6312,8.5821,8.5542,8.5378,8.5349,8.5194,8.5094,8.5111,8.51,8.5111,8.5105,8.5276,8.5358,8.5378,8.4806,8.4441,8.4288,8.2947,8.2105,8.176,8.1062,8.0263,7.9445,7.9473,7.91,7.8539,7.859,7.8728,7.8751,7.7357,7.6438,7.5813,7.4769,7.3566,7.2207,7.1003,7.0044,6.9302,6.9146,6.9107,6.9107,6.9107,6.8606,6.8024,6.7833,6.6703,6.5417,6.5262,6.4096,6.2934,6.2934,6.2426,6.1875,6.1845,6.1683,6.1364,6.0678,6.0399,6.0007,5.9153,5.8932,5.8792,5.8443,5.8535,5.8067,5.6429,5.6162,5.728,6.0248,5.8022,5.735,6.0453,5.8157,5.6432,5.6441,5.648,5.6553,5.659,5.6594,5.6649,5.6684,5.6536,5.6462,5.6462,5.6308,5.6209,5.6209,5.6278,5.6295,5.6295,5.6295,5.6295,6.1828,6.2229,6.3341,6.5102,6.5178,6.5403,0.0,6.9628,7.1567,7.3927,7.6374,7.8677,8.0547,8.1765,8.31,8.4922,8.5434,8.5824,8.6589,8.6731,8.6717,8.6674,8.6259,8.5986,8.5903,8.5698,8.5513,8.5456,8.5446,8.5485,8.5541,8.576,8.5936,8.5981,8.603,8.5691,8.4928,8.4697,8.3887,8.2384,8.2306,8.1456,8.0027,7.9995,7.961,7.8938,7.9083,7.913,7.9106,7.8195,7.7795,7.7533,7.5944,7.5245,7.4779,7.2336,7.0898,7.0044,6.934,6.9107,6.9107,6.9107,6.903,6.8797,6.8024,6.713,6.6194,6.5417,6.4566,6.387,6.387,6.3793,6.3711,6.3708,6.3121,6.2539,6.2419,6.1794,6.0978,6.0127,5.9929,5.946,5.7987,5.8291,5.8664,5.8307,5.8242,5.8929,6.0795,5.9422,5.8972,6.0853,5.9395,5.8329,5.8366,5.8374,5.8416,5.842,5.842,5.8424,5.8428,5.7729,5.7363,5.7363,5.666,5.6288,5.6288,5.6291,5.6295,5.6295,5.6295,5.6295,6.4631,6.5803,6.7364,6.9584,7.065,7.1827,7.4351,7.5899,7.7375,7.9432,8.1097,8.2577,8.3844,8.4781,8.5757,8.7015,8.7583,8.7839,8.7723,8.7702,8.7492,8.6992,8.6725,8.6584,8.643,8.6192,8.6045,8.6043,8.6005,8.6021,8.6061,8.629,8.643,8.6458,8.6526,8.641,8.6068,8.5527,8.4946,8.4211,8.3243,8.2443,8.1776,8.1308,8.0949,8.0679,8.0757,8.0466,7.9961,7.9086,7.8474,7.7891,7.6687,7.591,7.5293,7.3695,7.2569,7.1788,7.1438,7.0972,7.0549,7.0549,7.0199,6.9733,6.9383,6.8334,6.7169,6.6819,6.5732,6.4683,6.4683,6.4333,6.3987,6.3987,6.3715,6.3323,6.2818,6.2426,6.1882,6.1027,6.0872,6.0639,5.9943,6.0095,6.0307,6.0247,5.9367,5.9339,6.1014,5.9757,5.8967,5.9685,5.9122,5.8714,5.8768,5.8768,5.8768,5.8768,5.8768,5.8768,5.8768,5.7974,5.7557,5.7557,5.6715,5.6295,5.6295,5.6295,5.6304,5.6284,5.6284,5.6305,6.6819,6.8641,7.0778,7.3303,7.5094,7.6808,7.9134,8.0339,8.1426,8.3097,8.3951,8.4728,8.5855,8.6365,8.702,8.8108,8.8807,8.9041,8.8691,8.8458,8.8069,8.7409,8.7142,8.6941,8.6809,8.6616,8.6539,8.6512,8.6512,8.6526,8.6545,8.668,8.6773,8.6797,8.6838,8.6854,8.6854,8.6239,8.5774,8.5541,8.4338,8.3485,8.2981,8.2207,8.1859,8.1892,8.1892,8.1543,8.0882,8.0028,7.9134,7.828,7.7438,7.6588,7.5776,7.5167,7.4066,7.2914,7.2914,7.2336,7.1602,7.1602,7.117,7.0626,7.0354,6.9461,6.8373,6.795,6.6897,6.5844,6.5611,6.5149,6.4683,6.4683,6.4527,6.4178,6.3517,6.3206,6.2857,6.2232,6.2115,6.2037,6.1804,6.1765,6.1765,6.1765,6.0462,5.9967,6.1182,6.027,5.9523,5.9509,5.9512,5.9512,5.9512,5.9512,5.9512,5.9512,5.9512,5.9512,5.9512,5.8742,5.8276,5.8276,5.7227,5.6647,5.6654,5.6424,5.6329,5.6331,5.6339,5.649,6.8797,7.0855,7.338,7.5944,7.727,7.8396,8.014,8.1232,8.2359,8.4024,8.4374,8.4923,8.6637,8.6287,8.6282,8.8031,8.8302,8.8613,8.9351,8.8807,8.8302,8.8264,8.7525,8.6987,8.6982,8.6925,8.686,8.6797,8.6797,8.6826,8.6882,8.6893,8.692,8.6977,8.6982,8.6982,8.6982,8.6982,8.6515,8.5695,8.5656,8.4724,8.3058,8.2242,8.1892,8.1892,8.1892,8.1892,8.1776,8.0921,8.0067,7.9182,7.8371,7.7532,7.6758,7.6801,7.5168,7.2914,7.2914,7.2336,7.1602,7.1602,7.1563,7.1403,7.0549,7.0277,6.9888,6.8261,6.7756,6.7522,6.6664,6.6431,6.6431,6.6431,6.5767,6.5145,6.5145,6.4527,6.3948,6.3948,6.3909,6.3634,6.2818,6.2663,6.2663,6.2663,6.1882,6.1335,6.1373,6.1335,6.1335,6.1338,6.1338,6.1338,6.1338,6.1338,6.1338,6.1338,6.1338,6.1338,6.1338,6.0487,6.0024,6.0024,5.8393,5.7554,5.7579,5.6727,5.6333,5.639,5.6414,5.6876,7.0778,7.3074,7.5249,7.7775,7.9095,8.0183,8.1854,8.2475,8.3019,8.4146,8.3524,8.2903,8.3524,8.3796,8.434,8.5505,8.7176,8.838,8.8652,8.8458,8.8108,8.7525,8.7181,8.6987,8.6987,8.6967,8.6951,8.693,8.693,8.6936,8.6956,8.6956,8.6967,8.6987,8.6987,8.6987,8.6987,8.6987,8.687,8.6559,8.5972,8.5097,8.4003,8.3731,8.3338,8.2812,8.2812,8.2517,8.1955,8.1098,8.0203,7.9346,7.8504,7.7611,7.6871,7.6885,7.5629,7.3882,7.3807,7.2831,7.1602,7.1602,7.1602,7.1563,7.1248,7.0743,7.0199,6.9616,6.9072,6.8451,6.7596,6.7363,6.7208,6.6625,6.6275,6.5883,6.5339,6.499,6.4644,6.4104,6.3987,6.3909,6.3595,6.3556,6.3556,6.3556,6.2818,6.2037,6.1455,6.1416,6.1416,6.1416,6.1416,6.1416,6.1416,6.1416,6.1416,6.1416,6.1416,6.1416,6.1416,6.0624,6.0174,6.0174,5.9093,5.8535,5.8543,5.8233,5.8111,5.8139,5.8133,5.8317,7.2526,7.5055,7.739,7.9644,8.0649,8.1426,8.2791,8.3102,8.3179,8.3446,8.2164,8.096,8.096,8.1392,8.2208,8.3718,8.6127,8.8031,8.8652,8.8497,8.8108,8.7525,8.7196,8.7011,8.7011,8.7005,8.7044,8.6992,8.6987,8.6987,8.6987,8.6987,8.6987,8.6987,8.7001,8.7011,8.7011,8.701,8.7033,8.7051,8.6195,8.5512,8.4996,8.4389,8.3838,8.3299,8.3,8.259,8.2062,8.1516,8.058,7.9447,7.8915,7.7982,7.6929,7.6978,7.6081,7.4816,7.4408,7.3147,7.1686,7.1686,7.1686,7.1686,7.1686,7.1297,7.0753,7.0442,7.0014,6.9392,6.8539,6.8306,6.815,6.7606,6.745,6.7217,6.6396,6.6202,6.5969,6.5116,6.4961,6.4961,6.4961,6.4961,6.4766,6.4144,6.3833,6.3353,6.2454,6.2354,6.2254,6.1943,6.1917,6.1768,6.1453,6.1453,6.1453,6.1453,6.1453,6.1453,6.1453,6.093,6.0675,6.0686,5.9908,5.9466,5.9443,5.917,5.9,5.906,5.9043,5.9212,7.4256,7.6937,7.9852,8.16,8.1989,8.2178,8.2956,8.3033,8.2761,8.1936,8.0304,7.9027,7.8983,7.8983,7.9804,8.2373,8.5015,8.7346,8.9056,8.8706,8.824,8.824,8.7506,8.6989,8.6994,8.7071,8.7071,8.7021,8.7006,8.7001,8.7001,8.7001,8.7001,8.7001,8.7005,8.6989,8.6994,8.7079,8.7139,8.7176,8.6358,8.5968,8.5933,8.429,8.3524,8.3412,8.254,8.2162,8.2125,8.2125,8.1072,7.9511,7.9572,7.8524,7.7006,7.7061,7.6513,7.5595,7.4748,7.3311,7.1861,7.1822,7.1783,7.1783,7.1783,7.1783,7.1627,7.0809,7.0575,7.038,6.9486,6.9253,6.9253,6.9214,6.9214,6.9019,6.8239,6.8083,6.7811,6.6987,6.6831,6.6831,6.6831,6.6792,6.621,6.4539,6.4968,6.5096,6.4147,6.4073,6.3795,6.2941,6.2888,6.2513,6.169,6.1612,6.1612,6.1612,6.1612,6.1612,6.1573,6.1573,6.1584,6.1606,6.0795,6.0386,6.0378,5.9536,5.9162,5.9213,5.9218,5.9686,7.8011,8.0231,8.1785,8.3499,8.3417,8.3017,8.3186,8.224,8.1053,8.0215,7.7636,7.53,7.4712,7.46,7.5475,7.8061,8.1186,8.4112,8.6479,8.7187,8.746,8.746,8.7276,8.7139,8.7166,8.7147,8.7157,8.7153,8.7146,8.7152,8.7152,8.7152,8.7152,8.7152,8.716,8.7142,8.7131,8.7172,8.7192,8.72,8.6966,8.6902,8.6922,8.5812,8.5019,8.438,8.3533,8.28,8.2258,8.2258,8.1203,7.9641,7.9682,7.8627,7.7066,7.7106,7.6559,7.5737,7.5537,7.4253,7.2658,7.1993,7.1796,7.1796,7.1796,7.1796,7.1757,7.1523,7.1484,7.1252,7.0399,7.0165,7.0009,6.9426,6.927,6.9231,6.8997,6.8958,6.8919,6.8682,6.8643,6.8643,6.8643,6.8097,6.751,6.7083,6.6627,6.5802,6.4271,6.4079,6.4017,6.3801,6.3768,6.3694,6.346,6.346,6.346,6.346,6.346,6.3185,6.2559,6.2533,6.2234,6.1624,6.1411,6.1349,6.1358,6.1131,6.1015,6.1054,6.1048,6.1159,8.0948,8.2585,8.3557,8.4844,8.4256,8.3234,8.2863,8.113,7.9157,7.7559,7.4735,7.2312,7.1495,7.2251,7.3873,7.6484,8.0123,8.3645,8.6626,8.7448,8.7918,8.8308,8.8047,8.7793,8.7821,8.7492,8.7276,8.7294,8.7229,8.7214,8.7214,8.7214,8.7214,8.7214,8.7228,8.726,8.7308,8.7287,8.7298,8.7306,8.7306,8.731,8.7318,8.6039,8.5227,8.4725,8.3515,8.2734,8.2302,8.2302,8.1287,7.9685,7.9685,7.863,7.7107,7.7107,7.6794,7.6326,7.5974,7.4921,7.3615,7.2745,7.2195,7.1883,7.1883,7.1883,7.1883,7.1883,7.1883,7.1766,7.1299,7.1143,7.1026,7.0598,7.048,7.0363,7.0012,6.9895,6.9817,6.9426,6.9348,6.9348,6.9348,6.8958,6.8606,6.8606,6.8182,6.7519,6.6538,6.5741,6.5148,6.4772,6.4738,6.4584,6.4234,6.4195,6.4195,6.4195,6.4195,6.3999,6.353,6.3496,6.3268,6.2804,6.281,6.2851,6.2851,6.2456,6.2257,6.2257,6.2284,6.2277,8.3282,8.4294,8.5073,8.5892,8.4839,8.3313,8.2173,7.9851,7.7139,7.4434,7.1918,6.9913,6.9021,7.0995,7.3553,7.6019,8.0055,8.405,8.7371,8.8152,8.87,8.9559,8.9029,8.8619,8.8598,8.7875,8.7417,8.7382,8.7273,8.7225,8.7215,8.7213,8.7213,8.7213,8.7274,8.7346,8.7414,8.7419,8.7382,8.7382,8.7382,8.7382,8.7343,8.57,8.4917,8.4721,8.3152,8.2406,8.2289,8.2289,8.1351,7.9867,7.975,7.8696,7.7251,7.7134,7.7095,7.7017,7.6313,7.5493,7.4597,7.3631,7.2695,7.1992,7.1992,7.1992,7.1992,7.1992,7.1992,7.1992,7.1992,7.1992,7.1992,7.1992,7.1992,7.1797,7.1054,7.0859,7.0664,6.9882,6.9765,6.9765,6.9765,6.9648,6.957,6.957,6.9452,6.9413,6.9409,6.8086,6.687,6.6093,6.6055,6.5781,6.5038,6.4999,6.4999,6.4999,6.4999,6.4882,6.4648,6.4648,6.453,6.4293,6.4293,6.429,6.4283,6.3534,6.3179,6.3179,6.3169,6.3164,8.5153,8.5739,8.6051,8.6911,8.5856,8.3941,8.1629,7.8575,7.5282,7.1933,6.9767,6.8156,6.73,6.9271,7.1636,7.353,7.7486,8.1281,8.398,8.6246,8.7926,8.8785,8.8786,8.8671,8.8669,8.7886,8.7372,8.7314,8.7282,8.7299,8.7341,8.7379,8.7379,8.7379,8.7382,8.7382,8.7382,8.7417,8.7414,8.7413,8.7413,8.7413,8.7374,8.6349,8.5485,8.4742,8.3715,8.2927,8.2301,8.2301,8.1717,8.0702,7.9997,7.9062,7.8086,7.7383,7.711,7.7071,7.6952,7.6329,7.5358,7.3815,7.2726,7.1984,7.1984,7.1984,7.1984,7.1984,7.1984,7.1984,7.1984,7.1984,7.1984,7.1984,7.1984,7.1945,7.1828,7.1789,7.171,7.1593,7.1554,7.1554,7.1554,7.0968,7.046,7.046,6.9874,6.9403,6.9397,6.9135,6.8904,6.8743,6.8742,6.8663,6.8546,6.8507,6.8507,6.8507,6.8507,6.7882,6.6516,6.6437,6.577,6.4318,6.4318,6.4314,6.4304,6.4145,6.4067,6.4066,6.4065,6.4064,8.7055,8.7407,8.7485,8.7914,8.6041,8.3347,8.0305,7.6599,7.2929,6.992,6.7923,6.6706,6.6743,6.925,7.1755,7.3046,7.6875,8.074,8.3743,8.6046,8.8037,8.9791,8.9595,8.9314,8.9333,8.8121,8.7331,8.7302,8.7297,8.7323,8.7366,8.7368,8.7368,8.7368,8.7357,8.735,8.735,8.7384,8.7418,8.742,8.7388,8.739,8.7351,8.6486,8.5624,8.4764,8.3897,8.3035,8.2292,8.2292,8.1786,8.0966,8.0488,7.9548,7.8338,7.7896,7.7424,7.7036,7.7084,7.6542,7.5688,7.485,7.3723,7.259,7.2123,7.2005,7.2005,7.2005,7.2005,7.2005,7.2005,7.2005,7.2005,7.2005,7.2005,7.2005,7.2005,7.2005,7.2005,7.2005,7.2005,7.2005,7.2005,7.1654,7.1381,7.1381,7.1028,7.0754,7.0748,7.0757,7.0409,6.9506,6.8998,6.8724,6.8724,6.8296,6.8061,6.8061,6.8061,6.7671,6.689,6.6851,6.6459,6.5633,6.5594,6.5592,6.5586,6.5196,6.496,6.496,6.496,6.496,8.8293,8.8722,8.8839,8.8644,8.6185,8.2791,7.9005,7.4879,7.1065,6.8144,6.6434,6.5698,6.6404,6.9213,7.167,7.2335,7.5922,7.9701,8.293,8.5232,8.749,9.0055,8.9934,8.9614,8.963,8.8223,8.7275,8.7286,8.7284,8.7268,8.7313,8.7317,8.7317,8.7315,8.7302,8.7293,8.7293,8.7332,8.7371,8.7371,8.7388,8.7393,8.7354,8.6654,8.5795,8.4741,8.4077,8.3219,8.2282,8.2282,8.1891,8.1228,8.0977,7.9996,7.8628,7.8375,7.7745,7.7008,7.7063,7.6642,7.6064,7.5845,7.4678,7.3157,7.2495,7.2143,7.1987,7.1987,7.1987,7.1987,7.1987,7.1987,7.1987,7.1987,7.1987,7.2065,7.2221,7.226,7.2339,7.2495,7.2534,7.2534,7.2534,7.2534,7.2495,7.23,7.226,7.2221,7.2026,7.1987,7.148,7.0115,6.9333,6.8942,6.8942,6.8318,6.7928,6.7928,6.7928,6.7811,6.7655,6.746,6.7265,6.707,6.6913,6.6796,6.6796,6.617,6.5858,6.5858,6.5858,6.5858,8.8165,8.9179,8.9606,8.8789,8.6607,8.3371,7.8378,7.4451,7.0717,6.6582,6.5619,6.5513,6.5591,6.7806,6.9671,6.9749,7.2702,7.5889,7.854,8.1776,8.4819,8.7353,8.8287,8.8706,8.8713,8.7855,8.7256,8.7222,8.7219,8.7247,8.7304,8.7307,8.7307,8.7307,8.7304,8.7304,8.7304,8.7304,8.7304,8.7304,8.7307,8.7307,8.7307,8.7229,8.6334,8.4815,8.4737,8.3722,8.2199,8.2199,8.216,8.2004,8.1219,8.0322,7.9385,7.8603,7.7745,7.7006,7.7008,7.6981,7.6841,7.6062,7.4669,7.3274,7.3196,7.2612,7.1987,7.1987,7.1987,7.1987,7.1987,7.1987,7.1987,7.1987,7.1987,7.2221,7.3001,7.3196,7.3391,7.4134,7.4251,7.4251,7.4251,7.4251,7.4017,7.3274,7.3196,7.2884,7.2104,7.1987,7.1948,7.1792,7.1675,7.1636,7.1636,7.1558,7.1519,7.1519,7.1519,7.1167,7.0385,6.9567,6.8786,6.8005,6.7185,6.6796,6.6796,6.6718,6.6679,6.6679,6.6679,6.6679,8.8728,8.9976,9.0404,8.9547,8.6626,8.273,7.8088,7.3963,7.0193,6.689,6.5847,6.5661,6.6179,6.7972,6.9176,6.871,7.1472,7.4427,7.6437,7.9749,8.2864,8.5423,8.6938,8.7751,8.7777,8.7426,8.7225,8.7209,8.7209,8.7222,8.7247,8.725,8.725,8.725,8.725,8.725,8.725,8.7267,8.7317,8.7317,8.7294,8.7299,8.7299,8.7299,8.6405,8.4808,8.4808,8.3793,8.2192,8.2192,8.2192,8.2153,8.1785,8.1114,8.0334,7.9965,7.8943,7.7779,7.7794,7.7456,7.7001,7.6675,7.5791,7.4628,7.3623,7.3079,7.2651,7.2143,7.1987,7.1987,7.1987,7.1987,7.1987,7.1987,7.2417,7.2884,7.3235,7.3664,7.4134,7.4447,7.4486,7.4486,7.4486,7.4486,7.4212,7.343,7.3313,7.3001,7.2104,7.1987,7.1987,7.1987,7.1519,7.1206,7.1206,7.0738,7.0427,7.0427,6.9957,6.9489,6.9136,6.8318,6.7655,6.7303,6.6992,6.6796,6.6796,6.6796,6.6796,6.6796,6.6288,6.6092,8.7832,8.9508,9.0131,8.9235,8.6001,8.1873,7.7584,7.3492,6.9876,6.7241,6.6232,6.6042,6.6644,6.774,6.8364,6.7781,7.0355,7.292,7.4343,7.7534,8.0608,8.2887,8.4871,8.6196,8.6429,8.6897,8.7205,8.7192,8.7192,8.7181,8.7121,8.716,8.7174,8.7209,8.7209,8.7209,8.7209,8.7234,8.7286,8.7286,8.7267,8.7276,8.7276,8.7276,8.6342,8.4782,8.4782,8.3768,8.217,8.217,8.217,8.2167,8.2109,8.1594,8.0851,8.0824,7.9724,7.8288,7.8308,7.7737,7.7012,7.7045,7.6671,7.5899,7.4465,7.3696,7.3157,7.2573,7.2182,7.1987,7.1987,7.2182,7.2378,7.2378,7.3041,7.3743,7.3978,7.4486,7.4954,7.5227,7.5266,7.5266,7.5266,7.5266,7.4993,7.4173,7.4056,7.3705,7.2846,7.2729,7.2651,7.2417,7.183,7.1361,7.1128,7.0504,7.0154,7.0154,6.9606,6.9255,6.9255,6.8161,6.7577,6.7577,6.7066,6.679,6.679,6.6786,6.6783,6.6783,6.6236,6.592,8.4871,8.7248,8.8339,8.7443,8.4637,8.0977,7.6688,7.3064,6.9871,6.7255,6.667,6.667,6.6709,6.6709,6.6709,6.6709,6.8933,7.0923,7.1741,7.4856,7.7662,7.9334,8.1831,8.3783,8.4637,8.6235,8.7192,8.7191,8.7187,8.7152,8.7024,8.698,8.7046,8.7205,8.7209,8.7209,8.7209,8.7209,8.7209,8.7209,8.7209,8.7209,8.7209,8.7209,8.6274,8.4718,8.4718,8.3705,8.2107,8.2107,8.2107,8.2107,8.2107,8.1558,8.0815,8.0815,7.9724,7.8282,7.8285,7.7721,7.7004,7.7004,7.6985,7.685,7.6028,7.4613,7.3313,7.3274,7.2651,7.1987,7.1987,7.2651,7.3274,7.3274,7.39,7.472,7.558,7.5775,7.6049,7.6906,7.7062,7.7062,7.7062,7.7062,7.6789,7.5893,7.5775,7.5463,7.4603,7.4486,7.4173,7.3352,7.3274,7.2923,7.2065,7.1987,7.1987,7.1987,7.1948,7.1948,7.1948,7.031,6.9373,6.9373,6.7679,6.6813,6.6813,6.6794,6.6783,6.6783,6.6783,6.6732,8.0698,8.2805,8.3935,8.3036,8.1169,7.8519,7.4778,7.2209,6.9871,6.7255,6.6709,6.6709,6.6709,6.6709,6.7099,6.8271,6.9618,7.1045,7.2489,7.5093,7.7279,7.8407,8.1804,8.4626,8.6065,8.6692,8.6994,8.698,8.6943,8.6909,8.6874,8.6837,8.6879,8.6998,8.7003,8.7003,8.7003,8.7003,8.7003,8.7003,8.7003,8.7003,8.6964,8.6381,8.5521,8.447,8.3853,8.2958,8.1908,8.1908,8.1908,8.1908,8.1908,8.1748,8.1476,8.1476,8.0772,7.98,7.98,7.8878,7.7692,7.7743,7.7342,7.6816,7.6624,7.5815,7.488,7.4308,7.393,7.3705,7.3705,7.39,7.4134,7.4134,7.4759,7.5463,7.5736,7.6283,7.6789,7.7062,7.7101,7.7101,7.7101,7.7101,7.6786,7.5916,7.5797,7.548,7.4607,7.4488,7.441,7.4137,7.3589,7.2897,7.2064,7.1987,7.1983,7.1933,7.1424,7.1107,7.1056,6.9923,6.9063,6.8518,6.7912,6.7317,6.6732,6.6693,6.6309,6.5704,6.5704,6.5375,7.6628,7.8556,7.9497,7.8939,7.7534,7.5541,7.2686,7.0736,6.8984,6.7031,6.6876,6.6989,6.6681,6.6876,6.7343,6.8128,6.974,7.116,7.1888,7.4712,7.739,7.9198,8.231,8.4974,8.6653,8.6809,8.6798,8.6777,8.6716,8.6657,8.6609,8.6546,8.6539,8.6596,8.6738,8.6809,8.6809,8.6809,8.6809,8.6809,8.6809,8.6809,8.6809,8.626,8.5561,8.4741,8.3853,8.2999,0.0,8.1873,8.1718,8.1718,8.1718,8.1718,8.1718,8.1718,8.1174,8.0432,8.0432,7.9539,7.8345,7.8055,7.7417,7.6691,7.6743,7.6265,7.5535,7.4691,7.447,7.4445,7.4453,7.4728,7.4964,7.4973,7.5638,7.6264,7.6264,7.6692,7.7043,7.7043,7.7043,7.7043,7.7043,7.7043,7.688,7.6314,7.6232,7.6026,7.5445,7.5362,7.524,7.4915,7.4405,7.3717,7.2892,7.2303,7.1922,7.1903,7.1433,7.1107,7.1037,7.0174,6.9465,6.8987,6.8569,6.7965,6.7097,6.6689,6.6175,6.5637,6.5637,6.5304,0.0,7.4367,7.5093,7.5063,7.3846,7.2232,7.0522,6.8913,0.0,6.6656,6.7115,6.7464,6.6613,6.7153,6.7464,6.6769,6.941,7.1297,7.0464,7.4048,7.7974,8.1325,8.314,8.4818,8.6502,8.6657,8.6633,8.6565,8.6494,8.6391,8.6284,8.62,8.612,8.6077,8.644,8.6645,8.6657,8.6657,8.6657,8.6657,8.6657,8.6657,8.6657,8.658,8.6109,8.5322,8.4365,8.3551,8.2776,8.1923,8.1575,8.1575,8.1575,8.1575,8.1575,8.1575,8.1032,8.0329,8.0329,7.9786,7.8928,7.8048,7.7201,7.6547,7.647,7.6095,7.5501,7.4758,7.4566,7.4575,7.4566,7.5159,7.5791,7.5854,7.6448,7.6995,7.7073,7.7073,7.7073,7.7151,7.7151,7.7151,7.7151,7.7151,7.7141,7.7075,7.7069,7.7008,7.679,7.678,7.6452,7.5669,7.5506,7.5156,7.4339,7.291,7.2067,7.2043,7.1999,7.1897,7.1761,7.0934,7.0447,7.0374,6.9476,6.8575,6.7759,6.6907,6.644,6.6358,6.6358,6.6297,6.757,0.0,7.0456,7.0447,7.0132,6.9584,0.0,6.7933,6.7385,6.6532,6.7028,6.7372,6.6489,6.7062,6.776,6.8243,7.003,7.1494,7.1903,7.5469,7.931,8.2639,8.398,8.5067,8.6154,8.6231,8.6223,8.6208,8.6167,8.6102,8.606,8.5966,8.5905,8.5879,8.5971,8.6104,8.6231,8.6231,8.6231,8.6231,8.6231,8.6231,8.6231,8.5537,8.5113,8.4874,8.3371,8.26,8.2369,8.149,8.1143,8.1143,8.1143,8.1143,8.1143,8.1143,8.1027,8.0834,8.0834,8.0249,7.9292,7.7889,7.7325,7.7061,7.6404,7.625,7.6277,7.6112,7.6105,7.6182,7.6222,7.6388,7.6547,7.6553,7.6712,7.7024,7.7644,7.776,7.7952,7.861,7.8766,7.8766,7.8766,7.8766,7.8522,7.7863,7.7715,7.7446,7.673,7.6612,7.6507,7.6298,7.5673,7.5202,7.4969,7.4164,7.3652,7.365,7.3001,7.2578,7.2526,7.1672,7.0831,7.0196,6.9289,6.8719,6.8395,6.8176,6.7718,6.7057,6.7057,6.6703,6.5744,6.6669,6.7565,6.7539,6.7534,6.7408,6.6873,6.6752,6.6636,6.6167,6.678,6.7084,6.6239,6.7122,6.8006,6.8061,7.0114,7.2609,7.5355,7.8283,8.1082,8.3692,8.4767,8.5429,8.5928,8.5966,8.5966,8.5966,8.5887,8.5872,8.5872,8.5733,8.5676,8.5676,8.5676,8.577,8.5966,8.5966,8.5966,8.5966,8.5966,8.5966,8.5966,8.5467,8.5266,8.519,8.3922,8.3116,8.2693,8.181,8.1242,8.0896,8.0896,8.0896,8.0896,8.0896,8.0896,8.0896,8.0896,8.0358,7.9475,7.8592,7.8062,7.7715,7.7253,7.7204,7.7273,7.7041,7.7012,7.7185,7.7579,7.7768,7.7791,7.7813,7.7818,7.7934,7.8357,7.8474,7.859,7.9057,7.9173,7.9173,7.9173,7.9173,7.8999,7.8525,7.8108,7.7757,7.7633,7.7246,7.7135,7.7454,7.6751,7.6249,7.6249,7.5547,7.4819,7.4125,7.3602,7.3094,7.2665,7.2169,7.1479,7.0601,6.969,6.9202,6.9138,6.8722,6.8268,6.7807,6.7807,6.7537,6.5566,6.5826,6.6118,6.6043,6.6146,6.6211,6.5994,6.5981,6.5942,6.5788,6.6558,6.6987,6.6135,6.7474,6.8512,6.7775,7.0574,7.4535,7.9465,8.1299,8.281,8.4534,8.5339,8.577,8.577,8.577,8.577,8.577,8.5695,8.5686,8.5686,8.5561,8.5501,8.5501,8.5501,8.559,8.576,8.577,8.577,8.577,8.577,8.5693,8.5578,8.5578,8.5501,8.5348,8.4649,8.3892,8.301,8.2273,8.1469,8.0749,8.0749,8.0749,8.0749,8.0749,8.0749,8.0749,8.0749,8.0289,7.9629,7.9514,7.9016,7.8441,7.8288,7.8241,7.8193,7.779,7.7662,7.7795,7.8561,7.8855,7.8954,7.8939,7.8951,7.8989,7.9106,7.9144,7.9183,7.9338,7.9338,7.9338,7.9338,7.9338,7.9321,7.9153,7.8516,7.8203,7.8715,7.8149,7.7968,7.8602,7.8055,7.7669,7.7669,7.6853,7.5813,7.4502,7.4176,7.3551,7.2505,7.2345,7.1896,7.1068,7.0311,6.9932,6.9932,6.9129,6.8666,6.855,6.855,6.8473,6.5413,6.6016,6.6619,6.6703,6.7306,6.7644,6.6908,6.6717,6.6525,6.5789,6.6908,6.7759,6.6908,6.8704,7.0308,7.0155,7.3544,7.7671,8.2019,8.275,8.3458,8.5168,8.5474,8.5551,8.5551,8.5551,8.5551,8.5551,8.5541,8.5531,8.5531,8.5511,8.5501,8.5501,8.5501,8.5521,8.5551,8.5551,8.5551,8.5551,8.5551,8.5178,8.4528,8.4528,8.4108,8.3429,8.3314,8.277,8.2005,8.189,8.1317,8.0552,8.0552,8.0552,8.0552,8.0552,8.0552,8.0552,8.0552,8.0476,8.0246,7.9558,7.9262,7.9023,7.8258,7.8058,7.8191,7.8827,7.867,7.8339,7.8563,7.8644,7.8672,7.8747,7.8766,7.896,7.9693,7.9848,8.0079,8.0813,8.0967,8.0967,8.0967,8.0967,8.069,7.995,7.9664,7.9345,7.87,7.8457,7.8413,7.8522,7.8406,7.8368,7.8368,7.759,7.7028,7.6794,7.5469,7.3921,7.23,7.153,7.1099,7.0932,7.0749,7.063,7.063,7.0443,6.9978,6.9241,6.9241,6.8896,6.5413,6.633,6.7347,6.7424,6.7745,6.7936,6.7515,6.7439,6.7324,6.6934,6.7477,6.8059,6.8128,6.9842,7.1985,7.4273,7.6994,7.9844,8.2674,8.3439,8.4136,8.5349,8.5501,8.5501,8.5501,8.5501,8.5501,8.5501,8.5501,8.5501,8.5501,8.5501,8.5501,8.5501,8.5501,8.5501,8.5501,8.5501,8.5501,8.5501,8.5053,8.4671,8.4289,8.3802,8.3381,8.3037,8.3496,8.299,8.1843,8.2264,8.169,8.0506,8.0506,8.0506,8.0506,8.0506,8.0506,8.0506,8.0506,8.0506,8.043,8.0057,7.9942,7.9866,7.9474,7.936,7.9436,7.9827,7.9457,7.9084,7.9628,7.9815,7.9869,7.9991,8.0005,8.0121,8.0506,8.0583,8.0699,8.113,8.1199,8.1199,8.1199,8.1199,8.1045,8.066,8.0168,7.9876,7.9953,7.95,7.9361,7.9862,7.9477,7.9208,7.9208,7.8438,7.7561,7.663,7.5428,7.4396,7.3591,7.2248,7.1535,7.1535,7.1041,7.0729,7.0729,7.073,7.0485,7.0094,7.0094,6.9902,6.5413,6.6483,6.7637,6.7637,6.8211,6.8746,6.8508,6.8822,6.8975,6.8585,6.8822,6.9242,6.9693,7.1642,7.4431,7.829,8.0315,8.1881,8.3372,8.4174,8.4824,8.5435,8.5501,8.5501,8.5501,8.5501,8.5501,8.5501,8.5501,8.5501,8.5501,8.5501,8.5501,8.5501,8.5501,8.5501,8.5501,8.5501,8.5501,8.5501,8.4671,8.4174,8.3993,8.3114,8.2732,8.277,8.3611,8.3257,8.2111,8.277,8.212,8.0773,8.0582,8.0506,8.0506,8.0506,8.0506,8.0506,8.0506,8.0506,8.0506,8.0506,8.0506,8.0506,8.0506,8.0506,8.0506,8.0506,8.0103,7.9848,8.0549,8.0826,8.0918,8.1045,8.1077,8.1093,8.1093,8.1093,8.1093,8.1093,8.1093,8.1093,8.1093,8.1093,8.117,8.1362,8.0669,8.04,8.1285,8.0631,8.0362,8.1016,8.0516,8.0015,7.9815,7.9208,7.8092,7.6399,7.5284,7.47,7.47,7.3212,7.2292,7.2107,7.1351,7.0877,7.0685,7.0662,7.0616,7.0616,7.0616,7.0616,6.5413,6.6063,6.6789,6.6789,6.912,7.1229,7.0411,7.1489,7.2176,7.0563,7.1527,7.2406,7.165,7.4813,7.8404,8.1079,8.2913,8.4327,8.5206,8.5358,8.5435,8.5501,8.5501,8.5501,8.5501,8.5501,8.5501,8.5501,8.5501,8.5501,8.5501,8.5501,8.5501,8.5501,8.5501,8.5501,8.5501,8.5501,8.5501,8.5501,8.4671,8.3878,8.3076,8.2264,8.1881,8.192,8.2732,8.3037,8.2923,8.2999,8.2502,8.1614,8.0812,8.0506,8.0506,8.0506,8.0506,8.0506,8.0506,8.0506,8.0506,8.0506,8.0506,8.0506,8.0506,8.0506,8.0506,8.0506,8.0477,8.0467,8.0558,8.0693,8.0826,8.0918,8.0999,8.1093,8.1093,8.1093,8.1093,8.1093,8.1093,8.1093,8.1093,8.1093,8.1362,8.2093,8.1516,8.1285,8.2093,8.1516,8.1016,8.1093,8.1054,8.0669,7.9854,7.9738,7.8977,7.733,7.563,7.47,7.47,7.3743,7.2861,7.2107,7.1827,7.1359,7.0623,7.0475,7.0427,7.0427,7.0427,7.0427,6.5413,6.6025,6.6827,6.7324,6.9586,7.1612,7.1259,7.252,7.3858,7.424,7.4851,7.5195,7.4851,7.7411,8.0047,8.1576,8.3639,8.5167,8.5463,8.5501,8.5501,8.5501,8.5501,8.5692,8.6265,8.6304,8.6304,8.6304,8.6304,8.6304,8.6304,8.6304,8.6304,8.6304,8.6304,8.6036,8.5511,8.5501,8.5501,8.5463,8.4136,8.3305,8.2961,8.2187,8.1805,8.1843,8.2655,8.2732,8.2264,8.2264,8.1767,8.0964,8.0621,8.0506,8.0506,8.0506,8.0506,8.0506,8.0506,8.0506,8.0506,8.0506,8.0506,8.0506,8.0506,8.0506,8.0506,8.0506,8.0506,8.0534,8.0587,8.0641,8.0702,8.0855,8.0951,8.0991,8.1085,8.1093,8.1246,8.1747,8.1439,8.1439,8.2485,8.2208,8.2131,8.2986,8.287,8.2747,8.3062,8.2362,8.1862,8.1862,8.14,8.0977,8.0631,8.0123,7.9508,7.89,7.7246,7.6053,7.5515,7.4595,7.3952,7.3592,7.2409,7.1633,7.127,7.0694,7.0411,7.0411,7.0411,7.0411,6.5413,6.5834,6.6483,6.7324,6.9242,7.1268,7.2605,7.4393,7.6227,7.7602,7.7908,7.7908,7.7908,7.9551,8.127,8.2416,8.4021,8.5206,8.5463,8.5501,8.5578,8.5883,8.5922,8.6265,8.7144,8.7231,8.7106,8.68,8.68,8.6686,8.638,8.638,8.638,8.638,8.638,8.6113,8.5511,8.5501,8.5501,8.5463,8.4059,8.3419,8.3381,8.2302,8.1958,8.2187,8.2493,8.2455,8.2149,8.192,8.1308,8.0506,8.0506,8.0506,8.0506,8.0506,8.0506,8.0506,8.0506,8.0506,8.0544,8.0812,8.0926,8.0964,8.1194,8.127,8.127,8.127,8.127,8.1289,8.1354,8.1161,8.0985,8.0848,8.1077,8.1327,8.1422,8.1462,8.1708,8.2554,8.2285,8.2247,8.3409,8.3101,8.3016,8.3862,8.3793,8.3717,8.3978,8.3247,8.2716,8.2716,8.1977,8.1477,8.1477,8.0708,8.0085,7.9815,7.8707,7.7592,7.6476,7.5518,7.4873,7.4543,7.3291,7.2475,7.215,7.1505,7.1213,7.1213,7.1213,7.1213,6.5413,6.5413,6.5643,6.6514,6.8012,7.0342,7.4592,7.7496,7.9522,8.0353,8.0544,8.0506,8.0506,8.1232,8.234,8.4021,8.4289,8.4594,8.5397,8.5511,8.5845,8.6686,8.68,8.7144,8.7995,8.8071,8.7727,8.6877,8.68,8.6418,8.555,8.5511,8.5511,8.5511,8.5511,8.5511,8.5501,8.5501,8.5501,8.5501,8.4671,8.4289,8.4212,8.2569,8.2225,8.2923,8.2149,8.2264,8.2923,8.2111,8.127,8.0506,8.0506,8.0506,8.0506,8.0506,8.0506,8.0506,8.0506,8.0506,8.0621,8.1538,8.1805,8.1958,8.277,8.2999,8.2999,8.2999,8.2999,8.2999,8.2999,8.2454,8.1715,8.0844,8.1444,8.2224,8.2194,8.2268,8.2554,8.3447,8.3601,8.3601,8.3601,8.3601,8.3909,8.4786,8.417,8.3939,8.4786,8.4132,8.3601,8.3601,8.2832,8.2324,8.2324,8.1554,8.0746,7.9892,7.9815,7.9054,7.7369,7.6402,7.5511,7.4635,7.4472,7.3962,7.3128,7.3029,7.2987,7.2987,7.2979,7.2979,6.5413,6.6713,6.8279,6.9112,7.1489,7.4592,7.8175,7.9178,8.0057,8.2655,8.2693,8.2082,8.1538,8.2073,8.2808,8.3305,8.4365,8.5435,8.6304,8.6418,8.6495,8.6762,8.68,8.6915,8.7144,8.7182,8.7068,8.68,8.68,8.6686,8.6418,8.6418,8.6418,8.6418,8.6418,8.6113,8.5511,8.5501,8.5501,8.5501,8.4671,8.3983,8.3381,8.2884,8.2455,8.2149,8.192,8.1958,8.2073,8.1232,8.0735,8.0506,8.0506,8.0506,8.0506,8.0506,8.0506,8.0506,8.0506,8.0506,8.0621,8.1538,8.1805,8.1958,8.277,8.2999,8.2999,8.2999,8.2999,8.2999,8.2999,8.3286,8.34,8.2624,8.265,8.2934,8.2966,8.3013,8.3341,8.4195,8.3937,8.3986,8.517,8.4901,8.4786,8.5632,8.5517,8.5247,8.4939,8.467,8.4286,8.3678,8.337,8.3216,8.3216,8.2439,8.1823,8.1554,8.0439,7.9054,7.7369,7.7031,7.6455,7.5549,7.4889,7.4374,7.4081,7.3396,7.3087,7.3079,7.3012,7.2979,6.6292,6.7782,6.954,7.1068,7.3476,7.6541,8.0592,8.1614,8.2264,8.3954,8.4136,8.3754,8.2951,8.3448,8.3983,8.3983,8.5129,8.6189,8.6724,8.7106,8.7307,8.7307,8.7307,8.7307,8.7307,8.7307,8.7182,8.6839,8.68,8.6648,8.6304,8.6265,8.6265,8.6265,8.6265,8.6036,8.5511,8.5501,8.5358,8.5015,8.4518,8.3677,8.2531,8.2531,8.2264,8.1767,8.1423,8.127,8.1232,8.0735,8.0506,8.0506,8.0506,8.0506,8.0506,8.0506,8.0735,8.1003,8.1003,8.1232,8.1652,8.2493,8.2798,8.2951,8.3754,8.3983,8.3983,8.3983,8.3983,8.3983,8.3983,8.4365,8.4499,8.3381,8.3419,8.3695,8.375,8.3792,8.4131,8.4975,8.4831,8.4852,8.589,8.5684,8.5547,8.6017,8.6094,8.594,8.5431,8.5393,8.517,8.4632,8.4324,8.4132,8.4132,8.3324,8.267,8.2324,8.1362,8.0054,7.8361,7.7946,7.75,7.694,7.6379,7.591,7.551,7.49,7.4421,7.4077,7.4023,7.3981,6.779,6.8898,7.0342,7.275,7.4898,7.7649,8.2311,8.4584,8.5491,8.4671,8.5129,8.5358,8.4556,8.5015,8.554,8.5626,8.6265,8.6839,8.6991,8.7651,8.812,8.812,8.8033,8.7957,8.788,8.7852,8.7536,8.6724,8.6686,8.6342,8.554,8.5435,8.5397,8.5397,8.532,8.5272,8.5272,8.5272,8.49,8.4174,8.4098,8.3257,8.1805,8.1805,8.1767,8.1652,8.085,8.0506,8.0506,8.0506,8.0506,8.0506,8.0506,8.0506,8.0506,8.0506,8.1041,8.1805,8.1805,8.234,8.3152,8.4031,8.4289,8.4441,8.5282,8.5501,8.5501,8.5501,8.5501,8.5501,8.5501,8.5501,8.5129,8.3611,8.3869,8.4499,8.4499,8.4612,8.4915,8.5644,8.5887,8.6005,8.6005,8.6073,8.6094,8.6094,8.6094,8.6094,8.6094,8.6094,8.6094,8.6094,8.544,8.5008,8.5008,8.4209,8.3362,8.2593,8.2401,8.1631,8.0085,7.9131,7.86,7.8484,7.8446,7.8023,7.7247,7.7078,7.6612,7.5838,7.5667,7.5624,6.8707,7.1497,7.4439,7.5615,7.9665,8.383,8.5578,8.6701,8.7156,8.6408,8.638,8.6265,8.5397,8.5397,8.5731,8.6418,8.6686,8.7259,8.8558,8.8377,8.812,8.812,8.7498,8.68,8.6123,8.6046,8.597,8.5769,8.5769,8.5692,8.5511,8.49,8.4556,8.4556,8.3868,8.3534,8.3534,8.3534,8.3458,8.3267,8.2646,8.2149,8.1805,8.1805,8.1423,8.0773,8.0582,8.0506,8.0506,8.0506,8.0506,8.0506,8.0506,8.0506,8.0506,8.0506,8.1041,8.1805,8.1805,8.234,8.3152,8.4031,8.4289,8.4441,8.5282,8.5501,8.5501,8.5501,8.5501,8.5501,8.5501,8.5501,8.5387,8.5053,8.5101,8.5273,8.5273,8.5361,8.5513,8.5704,8.589,8.6005,8.6005,8.6073,8.6094,8.6094,8.6094,8.6094,8.6094,8.6094,8.6094,8.6094,8.594,8.5863,8.5863,8.5093,8.4555,8.4362,8.3054,8.2131,8.1785,8.0323,7.9208,7.8523,7.8508,7.8377,7.8185,7.8059,7.7892,7.7692,7.6841,7.6456,6.9628,7.2456,7.5596,7.9248,8.3366,8.6646,8.7142,8.8085,8.8553,8.7389,8.6833,8.6341,8.5502,8.5703,8.6008,8.6036,8.6722,8.7392,8.794,8.7989,8.7857,8.7526,8.7068,8.6456,8.5578,8.5501,8.5501,8.5501,8.5501,8.532,8.4938,8.4518,8.4098,8.3687,8.3228,8.2999,8.2999,8.2999,8.2808,8.2416,8.1996,8.1576,8.1194,8.1194,8.0926,8.0506,8.0506,8.0506,8.0506,8.0506,8.0506,8.0506,8.0506,8.0506,8.0506,8.0506,8.1041,8.1843,8.2225,8.2923,8.3754,8.4594,8.4862,8.4938,8.5358,8.5501,8.5501,8.5501,8.5501,8.5501,8.5501,8.5501,8.5521,8.557,8.5551,8.5521,8.558,8.5628,8.5724,8.5733,8.5861,8.6005,8.6005,8.6381,8.6709,8.6709,8.7094,8.7325,8.7325,8.7325,8.7171,8.6786,8.6709,8.6555,8.6132,8.5701,8.5316,8.4931,8.4055,8.317,8.2324,8.1477,8.0592,7.9754,7.9746,7.9554,7.9131,7.8966,7.8692,7.8262,7.7614,7.7335,7.0348,7.3163,7.6445,8.272,8.5942,8.768,8.7973,8.8959,8.9396,8.7879,8.7019,8.6246,8.5306,8.5736,8.6013,8.5459,8.6545,8.7285,8.6811,8.7311,8.744,8.6836,8.6637,8.6304,8.5578,8.5501,8.5501,8.5501,8.5501,8.5167,8.4327,8.4174,8.3687,8.2808,8.2655,8.2579,8.2579,8.2579,8.2225,8.1576,8.1576,8.1194,8.0506,8.0506,8.0506,8.0506,8.0506,8.0506,8.0506,8.0506,8.0506,8.0506,8.0506,8.0506,8.0506,8.0506,8.1156,8.2111,8.277,8.3649,8.4632,8.5282,8.5501,8.5501,8.5501,8.5501,8.5501,8.5501,8.5501,8.5501,8.5501,8.5521,8.5561,8.5648,8.5619,8.559,8.5676,8.5733,8.5723,8.5797,8.6011,8.6197,8.6253,8.7013,8.7632,8.7632,8.8256,8.8718,8.8718,8.8718,8.841,8.7709,8.7478,8.7094,8.6401,8.6209,8.5824,8.5162,8.497,8.4239,8.2824,8.2439,8.1977,8.1323,8.117,8.0739,7.9992,7.9802,7.9374,7.8697,7.8371,7.8213,7.0305,7.5053,8.0093,8.4655,8.6507,8.7559,8.9023,8.9288,8.8954,8.8037,8.7499,8.6691,8.5148,8.4958,8.5224,8.5868,8.6264,8.6711,8.7315,8.7024,8.6722,8.6629,8.6062,8.5616,8.5511,8.5501,8.5501,8.5501,8.5501,8.5167,8.4327,8.3572,8.2808,8.1996,8.1232,8.0812,8.0812,8.0812,8.0773,8.0659,8.0659,8.0621,8.0506,8.0506,8.0506,8.0506,8.0506,8.0506,8.0506,8.0506,8.0506,8.0506,8.0506,8.0506,8.0506,8.0506,8.1499,8.2846,8.2961,8.4021,8.5358,8.5473,8.5501,8.5501,8.5501,8.5501,8.5501,8.5501,8.5501,8.5501,8.5501,8.558,8.5695,8.5705,8.5723,8.5779,8.5788,8.5797,8.5797,8.5806,8.6463,8.7098,8.7175,8.794,8.8526,8.8526,8.8641,8.8718,8.8718,8.8718,8.8679,8.8526,8.7863,8.7363,8.7248,8.6517,8.6055,8.594,8.5286,8.4777,8.4547,8.3093,8.2247,8.2131,8.1477,8.0976,8.0751,8.0651,8.0519,8.0287,7.9491,7.914,6.9411,7.4681,7.9616,8.3238,8.5046,8.6322,8.7896,8.8429,8.8371,8.7571,8.7221,8.6585,8.5183,8.4819,8.4755,8.4808,8.4934,8.5183,8.568,8.5675,8.5616,8.5681,8.5484,8.5349,8.5459,8.5421,8.5451,8.5501,8.5501,8.4938,8.3649,8.3228,8.2426,8.1117,8.0697,8.0506,8.0506,8.0506,8.0506,8.0506,8.0506,8.0506,8.0506,8.0506,8.0506,8.0506,8.0506,8.0506,8.0506,8.0506,8.0506,8.0506,8.0506,8.0506,8.0506,8.0506,8.0964,8.1729,8.2655,8.3496,8.425,8.5206,8.5501,8.5501,8.5501,8.5501,8.5501,8.5501,8.5501,8.5501,8.5501,8.559,8.5724,8.5742,8.5825,8.5914,8.5958,8.5932,8.6068,8.6581,8.7047,8.7504,8.8017,8.8825,8.9363,8.9363,8.9787,9.0094,9.0094,9.0094,8.9902,8.944,8.8632,8.794,8.744,8.6594,8.6094,8.6094,8.5786,8.5354,8.4931,8.417,8.3516,8.3024,8.1747,8.1015,8.0888,8.0835,8.0749,8.0576,8.017,7.998,6.8007,7.2857,7.718,8.0148,8.225,8.3999,8.5713,8.6795,8.7291,8.6904,8.6892,8.6595,8.5491,8.493,8.4436,8.4003,8.392,8.3971,8.4179,8.4454,8.4682,8.4821,8.4973,8.5105,8.5294,8.5304,8.5367,8.5461,8.5471,8.4756,8.3076,8.2999,8.2235,8.0544,8.0506,8.0506,8.0506,8.0506,8.0506,8.0506,8.0506,8.0506,8.0506,8.0506,8.0506,8.0506,8.0506,8.0506,8.0506,8.0506,8.0506,8.0506,8.0506,8.0506,8.0506,8.0506,8.0621,8.1041,8.2502,8.3152,8.3572,8.5015,8.5501,8.5501,8.5501,8.5501,8.5501,8.5501,8.5501,8.5511,8.5541,8.5628,8.5733,8.5834,8.5923,8.6056,8.6077,8.6043,8.6287,8.7239,8.7594,8.7979,8.8863,8.971,9.0239,9.0239,9.0778,9.121,9.121,9.121,9.0941,9.0316,8.9325,8.8526,8.8055,8.7055,8.6517,8.6748,8.6555,8.617,8.5555,8.5124,8.4593,8.3939,8.2454,8.1521,8.1201,8.1133,8.0923,8.0578,8.0505,8.0506,6.6058,6.9358,7.3116,7.5633,7.7928,8.0213,8.2572,8.4234,8.5477,8.6179,8.6845,8.7023,8.6193,8.5117,8.4324,8.4287,8.3932,8.3643,8.362,8.3998,8.4293,8.443,8.4551,8.4717,8.5006,8.5028,8.5127,8.5388,8.5408,8.4686,8.3104,8.2999,8.2235,8.0544,8.0506,8.0506,8.0506,8.0506,8.0506,8.0506,8.0506,8.0506,8.0506,8.0506,8.0506,8.0506,8.0506,8.0506,8.0506,8.0506,8.0506,8.0506,8.0506,8.0506,8.0506,8.0506,8.1003,8.1843,8.2732,8.3534,8.4365,8.5206,8.5501,8.5501,8.5501,8.5501,8.5501,8.5501,8.5501,8.5531,8.5676,8.5733,8.5834,8.597,8.6026,8.6085,8.6085,8.6085,8.6355,8.7248,8.8064,8.8902,8.9701,9.0547,9.1133,9.1133,9.1171,9.121,9.121,9.121,9.1171,9.1133,8.9671,8.8979,8.9701,8.8286,8.7671,8.8526,8.7786,8.7325,8.7286,8.5747,8.4893,8.4824,8.3811,8.2881,8.2037,8.2028,8.151,8.0515,8.0506,8.0506,6.3259,6.6074,6.9358,7.1733,7.4496,7.712,7.8896,8.0956,8.2564,8.2859,8.3509,8.4231,8.5003,8.5189,8.4947,8.3988,8.3821,8.3648,8.3195,8.3401,8.3638,8.3692,8.3945,8.4205,8.4466,8.4575,8.4752,8.5116,8.4643,8.3967,8.2997,8.2396,8.1624,8.0544,8.0018,7.9474,7.8901,7.8901,7.8901,7.8901,7.8901,7.9169,7.9713,7.9713,8.0018,8.0506,8.0506,8.0506,8.0506,8.0506,8.0506,8.0506,8.0506,8.0506,8.0506,8.0506,8.0697,8.1156,8.2541,8.319,8.3687,8.5053,8.5501,8.5501,8.5501,8.5501,8.5501,8.5501,8.5501,8.5531,8.5686,8.5742,8.5852,8.6009,8.6069,8.6094,8.6094,8.6094,8.6517,8.794,8.8487,8.9141,9.0517,9.097,9.121,9.121,9.121,9.121,9.121,9.121,9.097,9.0432,8.9825,8.9363,8.9133,8.8594,8.8372,8.8679,8.841,8.8218,8.8218,8.7034,8.6385,8.6385,8.5445,8.4279,8.2863,8.2848,8.2557,8.212,8.212,8.212,6.09,6.3234,6.5938,6.7786,7.0666,7.347,7.497,7.7399,7.9507,8.0094,8.1269,8.27,8.4315,8.527,8.5394,8.415,8.3871,8.3535,8.2847,8.2927,8.3121,8.3179,8.3367,8.3606,8.3867,8.4025,8.4306,8.4706,8.4078,8.3411,8.2876,8.205,8.1127,8.0124,7.9292,7.8596,7.8022,7.8022,7.8022,7.8022,7.8022,7.829,7.8872,7.9178,7.9598,8.0095,8.0391,8.0506,8.0506,8.0506,8.0506,8.0506,8.0506,8.0506,8.0506,8.0506,8.0697,8.1117,8.2541,8.319,8.3639,8.5053,8.5501,8.5501,8.5501,8.5501,8.5501,8.5501,8.5501,8.5541,8.5686,8.5815,8.594,8.606,8.6094,8.6094,8.6094,8.6094,8.6632,8.8372,8.8718,8.921,9.0902,9.121,9.121,9.121,9.121,9.121,9.121,9.121,9.0855,8.997,8.9893,8.9663,8.9133,8.9094,8.921,8.9517,8.9222,8.9051,8.9051,8.8109,8.7479,8.7172,8.6507,8.5446,8.4029,8.3771,8.34,8.2999,8.2999,8.298,0.0,0.0,0.0,6.3796,6.6439,6.9215,7.0793,7.3656,7.6423,7.8075,8.0351,8.2553,8.4205,8.5159,8.5453,8.4682,8.406,8.3349,8.2502,8.2571,8.2742,8.2874,8.2867,8.2987,8.3244,8.3466,8.3743,8.4166,8.3637,8.315,8.2714,8.1933,8.0822,7.9254,7.8404,7.7946,7.7946,7.7946,7.7946,7.7946,7.7946,7.7937,7.7975,7.8872,7.9292,7.9331,8.0171,8.0506,8.0506,8.0506,8.0506,8.0506,8.0506,8.0506,8.0506,8.0544,8.1079,8.192,8.277,8.3611,8.4441,8.5244,8.5501,8.5501,8.5501,8.5501,8.5501,8.5501,8.5501,8.5551,8.576,8.5958,8.6094,8.6094,8.6094,8.6094,8.6094,8.6094,8.6632,8.8372,8.8718,8.921,9.0902,9.121,9.121,9.121,9.121,9.121,9.121,9.121,9.0855,8.997,8.9893,8.9932,8.9855,8.9893,9.0316,9.1124,9.0352,8.9846,8.9837,8.893,8.803,8.7139,8.692,8.6352,8.5501,8.4758,8.3955,8.3066,8.3056,8.2998,5.8327,0.0,0.0,0.0,0.0,0.0,6.7614,7.0316,7.2922,7.3964,7.657,7.9344,8.1599,8.2663,8.3324,8.3675,8.4055,8.3831,8.2451,8.23,8.2348,8.2396,8.2471,8.2628,8.2828,8.3009,8.3266,8.3754,8.2683,8.2143,8.239,8.0857,7.9141,7.7449,7.7182,7.6761,7.6197,7.6197,7.6197,7.6197,7.6197,7.6494,7.7105,7.7946,7.871,7.9331,8.0171,8.0506,8.0506,8.0506,8.0506,8.0506,8.0506,8.0506,8.0582,8.1194,8.1576,8.1996,8.3448,8.4107,8.4441,8.5244,8.5501,8.5501,8.5501,8.5501,8.5501,8.5501,8.5501,8.5551,8.576,8.5958,8.6094,8.6094,8.6094,8.6094,8.6094,8.6094,8.6632,8.8372,8.8718,8.921,9.0902,9.121,9.121,9.121,9.121,9.121,9.121,9.121,9.0633,8.9171,9.0133,9.0364,8.9133,9.0133,9.0905,9.1064,9.0806,9.0645,9.0618,8.9707,8.8768,8.7897,8.7078,8.624,8.5439,8.511,8.484,8.458,8.4507,8.4453,0.0,0.0,0.0,0.0,0.0,0.0,6.4787,6.721,6.9729,7.1211,7.3523,7.6261,7.9433,8.0388,8.1195,8.2663,8.3287,8.3251,8.2333,8.2186,8.2186,8.2186,8.2284,8.238,8.2476,8.2612,8.2874,8.3289,8.2114,8.1244,8.0878,7.9426,7.7988,7.6606,7.6261,7.5906,7.5409,7.5409,7.5409,7.5409,7.5403,7.5614,7.611,7.6949,7.7827,7.8675,7.9467,8.0039,8.0383,8.0383,8.0431,8.0506,8.0506,8.0506,8.0621,8.1499,8.1996,8.2493,8.383,8.4518,8.4862,8.5358,8.5501,8.5501,8.5501,8.5501,8.5501,8.5501,8.557,8.5667,8.5779,8.5958,8.6094,8.6094,8.6094,8.6094,8.6094,8.6094,8.6517,8.7902,8.8449,8.9133,9.0441,9.0979,9.121,9.121,9.121,9.121,9.121,9.121,9.0556,8.8872,9.021,9.0517,8.8833,9.0248,9.1127,9.1028,9.0981,9.0915,9.0809,9.025,8.9386,8.8172,8.7423,8.6432,8.5111,8.5094,8.5051,8.495,8.4798,8.4682,0.0,0.0,0.0,0.0,6.0493,0.0,6.2499,6.453,6.688,6.9119,7.0917,7.3266,7.7084,7.7928,7.8772,8.1012,8.1525,8.1819,8.226,8.226,8.2223,8.2333,8.226,8.2186,8.2186,8.2332,8.2481,8.271,8.1811,8.0454,7.8704,7.8022,7.7207,7.6246,7.5618,7.5283,7.5283,7.5283,7.5283,7.5283,7.5171,7.5114,7.5152,7.595,7.6787,7.7662,7.8451,7.9325,8.0124,8.0144,8.0275,8.0478,8.0487,8.0487,8.0611,8.1576,8.2378,8.3152,8.4098,8.49,8.5501,8.5501,8.5501,8.5501,8.5501,8.5501,8.5501,8.5501,8.5657,8.5815,8.5815,8.5958,8.6094,8.6094,8.6094,8.6094,8.6094,8.6094,8.6324,8.7094,8.794,8.8825,8.9739,9.0547,9.1095,9.121,9.121,9.121,9.121,9.1133,9.0479,8.8979,9.0171,9.0441,8.8949,9.0287,9.1127,9.1009,9.0925,9.0857,9.0699,9.0635,8.9857,8.8252,8.7764,8.659,8.4689,8.4848,8.4787,8.4527,8.4393,8.4141,0.0,0.0,0.0,0.0,0.0,0.0,6.1777,6.3258,6.4897,6.5999,6.8054,7.0243,7.2334,7.378,7.5028,7.6151,7.7399,7.9417,8.2684,8.2627,8.2443,8.3087,8.259,8.2186,8.2186,8.2219,8.2123,8.1788,8.1075,7.9748,7.7609,7.7528,7.6792,7.5145,7.5102,7.5075,7.5075,7.5075,7.5075,7.5075,7.4839,7.4709,7.4747,7.5496,7.6296,7.7116,7.7948,7.8817,7.9573,7.9663,7.994,8.0265,8.0392,8.043,8.0631,8.2197,8.2884,8.3228,8.4747,8.5358,8.5501,8.5501,8.5501,8.5501,8.5501,8.5501,8.5501,8.5501,8.5657,8.5815,8.5815,8.5958,8.6094,8.6094,8.6094,8.6094,8.6094,8.6094,8.617,8.6324,8.7055,8.8132,8.9624,9.0047,9.0393,9.1095,9.121,9.121,9.121,9.0586,9.0009,8.9701,8.997,9.0009,8.9701,9.0633,9.113,9.0915,9.0925,9.0827,9.0624,9.0593,9.0082,8.8928,8.7367,8.5895,8.453,8.4541,8.438,8.4115,8.3865,8.3648,0.0,0.0,0.0,6.0297,0.0,0.0,0.0,6.163,6.2585,6.3783,6.5031,6.6463,6.8518,6.9559,7.077,7.2775,7.4463,7.679,8.0498,8.1342,8.1893,8.27,8.2443,8.2039,8.1636,8.1599,8.1292,8.0511,8.0285,7.9204,7.6928,7.6916,7.6157,7.4432,7.4477,7.4562,7.4653,7.4653,7.4632,7.4541,7.4356,7.4233,7.4177,7.4544,7.5373,7.6563,7.7025,7.7889,7.9016,7.9077,7.9258,7.9562,8.0013,8.0195,8.0406,8.2182,8.2832,8.3099,8.4777,8.5339,8.5339,8.5339,8.5339,8.5339,8.5339,8.5391,8.5441,8.5491,8.5657,8.5815,8.5815,8.5958,8.6094,8.6094,8.6094,8.6094,8.6094,8.6094,8.6094,8.6094,8.644,8.7171,8.844,8.9355,9.0047,9.047,9.0932,9.121,9.121,9.0397,8.9832,8.9832,8.9787,8.976,8.976,9.0567,9.0944,9.0729,9.0681,9.0617,9.0394,9.0383,8.9697,8.8224,8.6717,8.5408,8.4242,8.4063,8.3878,8.3712,8.3452,8.3179,0.0,0.0,0.0,0.0,0.0,5.96,0.0,0.0,0.0,6.1838,6.2095,6.2756,6.4934,6.5595,6.6696,6.9472,7.1394,7.356,7.6533,7.8222,7.98,8.1525,8.1746,8.1415,8.0608,8.0273,7.9787,7.8915,7.8864,7.7972,7.5932,7.5995,7.5384,7.3825,7.392,7.4026,7.4131,7.4168,7.4085,7.3979,7.3824,7.369,7.3591,7.3566,7.4485,7.6038,7.6038,7.6946,7.8437,7.8464,7.8544,7.8751,7.9668,8.006,8.0331,8.2109,8.276,8.2988,8.4508,8.5062,8.5073,8.5073,8.5094,8.5116,8.5138,8.5251,8.5356,8.5441,8.5628,8.5788,8.5806,8.594,8.6069,8.6069,8.6069,8.6069,8.6069,8.6069,8.6069,8.6069,8.6052,8.6321,8.7239,8.85,8.9444,8.9598,9.0204,9.0648,9.063,8.9799,8.9351,8.962,8.942,8.9362,8.9687,9.0338,9.063,9.0404,9.0383,9.0285,9.0075,8.9865,8.895,8.7156,8.604,8.4943,8.3865,8.3606,8.3433,8.3289,8.3128,8.2813,0.0,0.0,0.0,0.0,6.086,0.0,0.0,0.0,5.938,5.9563,0.0,5.993,6.0921,0.0,0.0,6.4714,6.6856,6.9022,7.0807,7.1821,7.4316,7.9449,8.0073,7.9779,7.8956,7.7699,7.6921,7.6918,7.5855,7.4765,7.3773,7.4522,7.4485,7.3413,7.3503,7.3579,7.3591,7.3591,7.3579,7.3566,7.3298,7.3167,7.3191,7.3108,7.3965,7.5481,7.5481,7.6406,7.79,7.8043,7.8062,7.8235,7.9615,8.0291,8.0676,8.2404,8.3044,8.3207,8.4151,8.4563,8.4659,8.4659,8.4741,8.4856,8.4995,8.5039,8.5094,8.5356,8.5569,8.5752,8.5788,8.5896,8.6014,8.6014,8.6014,8.6014,8.6014,8.6014,8.6014,8.6014,8.5905,8.6165,8.7222,8.7449,8.7772,8.8549,8.8678,8.8672,8.8577,8.7782,8.7733,8.904,8.8464,8.8564,8.9914,9.0132,9.0114,8.9976,8.9965,8.9897,8.9667,8.8683,8.7658,8.6521,8.5572,8.4516,8.3372,8.3237,8.3076,8.2964,8.2798,8.2555,0.0,0.0,0.0,0.0,0.0,0.0,6.0419,0.0,5.8646,0.0,0.0,0.0,0.0,0.0,0.0,0.0,6.4016,6.6012,6.7136,6.8421,7.077,7.5065,7.5542,7.5432,7.5102,7.4551,7.4092,7.3669,7.4099,7.3751,7.2361,7.3599,7.3918,7.3,7.3017,7.3084,7.3215,7.3215,7.3138,7.3044,7.2922,7.2812,7.2779,7.3202,7.4006,7.5147,7.5588,7.6435,7.7502,7.7562,7.7651,7.7917,7.9457,8.006,8.0198,8.2081,8.276,8.2885,8.384,8.4205,8.4255,8.4255,8.4243,8.4281,8.4563,8.4647,8.4717,8.5073,8.5266,8.5373,8.5483,8.5628,8.5704,8.5704,8.5704,8.5704,8.5704,8.5704,8.5686,8.559,8.5542,8.5637,8.602,8.6585,8.7092,8.737,8.778,8.8015,8.7864,8.7066,8.7073,8.8581,8.7957,8.8004,8.9514,8.9653,8.9591,8.9427,8.9297,8.9111,8.8907,8.7923,8.6958,8.6064,8.5013,8.3989,8.3076,8.2949,8.2782,8.2612,8.255,8.2412,6.3563,0.0,0.0,0.0,0.0,0.0,0.0,0.0,0.0,0.0,0.0,0.0,0.0,0.0,0.0,0.0,0.0,6.3282,6.3857,6.4971,6.699,7.044,7.1064,7.1358,7.1798,7.1544,7.1098,7.0496,7.1674,7.1761,7.0215,7.2115,7.2873,7.2027,7.2432,7.2709,7.2872,7.2872,7.2802,7.2653,7.2653,7.2706,7.2863,7.3413,7.4258,7.527,7.5836,7.6555,7.7289,7.7289,7.7402,7.7692,7.9326,7.9822,7.9891,8.1881,8.2617,8.2784,8.3583,8.3838,8.3878,8.3918,8.3838,8.3798,8.4141,8.4243,8.4331,8.4717,8.4901,8.4986,8.5186,8.528,8.538,8.538,8.538,8.538,8.538,8.538,8.5301,8.5158,8.5116,8.504,8.4859,8.5685,8.6319,8.6094,8.6573,8.6877,8.6693,8.6058,8.6244,8.7726,8.7286,8.746,8.8972,8.9084,8.9017,8.8903,8.8648,8.8428,8.8227,8.7107,8.6183,8.5558,8.4275,8.3306,8.2721,8.2618,8.2492,8.2327,8.2375,8.2311,0.0,0.0,0.0,6.4066,0.0,0.0,0.0,0.0,5.938,0.0,0.0,0.0,0.0,0.0,0.0,0.0,0.0,0.0,0.0,6.0603,6.2144,6.6219,6.737,6.8471,7.0036,6.8765,6.7861,6.7824,6.7898,6.753,6.6709,6.9669,7.1027,7.0197,7.1688,7.2496,7.251,7.251,7.2496,7.2496,7.2496,7.2899,7.367,7.367,7.4551,7.6056,7.6093,7.6555,7.7289,7.7289,7.7289,7.7472,7.9155,7.9795,8.0021,8.2101,8.2965,8.3113,8.3347,8.3489,8.363,8.3743,8.3726,8.363,8.3757,8.3811,8.3905,8.4318,8.4515,8.467,8.4961,8.5017,8.5028,8.5028,8.5028,8.5028,8.5028,8.5028,8.4957,8.4757,8.4668,8.4539,8.4255,8.467,8.4984,8.4795,8.4744,8.4615,8.4318,8.428,8.4805,8.6199,8.6359,8.6925,8.8413,8.851,8.8451,8.8339,8.8134,8.7947,8.7826,8.6095,8.5085,8.4923,8.3323,8.238,8.2219,8.2203,8.2203,8.2203,8.2327,8.2311,0.0,0.0,6.4897,6.4897,0.0,0.0,0.0,0.0,0.0,0.0,0.0,0.0,0.0,0.0,0.0,0.0,0.0,0.0,0.0,5.8804,5.9722,6.2181,6.3649,6.4897,6.5999,6.6109,6.5668,6.453,6.5485,6.5999,6.5742,6.776,6.9522,7.083,7.1417,7.1967,7.2496,7.2496,7.2496,7.2496,7.3046,7.345,7.3758,7.4808,7.5579,7.613,7.6665,7.7069,7.7289,7.7289,7.7656,7.8259,7.9376,8.0147,8.0766,8.2227,8.2843,8.3002,8.3404,8.3489,8.3475,8.363,8.3504,8.331,8.3602,8.3975,8.4386,8.473,8.5263,8.5643,8.5222,8.5122,8.5009,8.4456,8.4343,8.4343,8.4343,8.4343,8.4306,8.4129,8.4102,8.4011,8.3811,8.3945,8.4089,8.4103,8.4102,8.4011,8.3849,8.3784,8.4152,8.5076,8.5645,8.637,8.7286,8.7919,8.8094,8.7789,8.7709,8.7546,8.7268,8.6187,8.5548,8.5481,8.4399,8.3557,8.2994,8.2994,8.2737,8.2186,8.2251,8.2251,6.8618,6.7577,0.0,6.6573,6.4334,0.0,6.3172,0.0,6.1471,0.0,0.0,0.0,0.0,0.0,0.0,0.0,0.0,0.0,0.0,5.7997,5.8474,5.982,6.1141,6.2279,6.3148,6.3686,6.3429,6.2059,6.3196,6.398,6.398,6.5815,6.7577,6.9105,6.9729,7.055,7.1651,7.1651,7.1945,7.2496,7.3303,7.3854,7.4184,7.5506,7.6276,7.6555,7.7069,7.7289,7.7289,7.7289,7.7803,7.8662,7.9486,8.0277,8.1117,8.2213,8.2752,8.3017,8.3404,8.3489,8.3498,8.356,8.3433,8.326,8.3461,8.4,8.4576,8.4783,8.5489,8.5966,8.5259,8.5061,8.4836,8.4063,8.3838,8.3838,8.3838,8.3838,8.3835,8.3699,8.3671,8.3616,8.3461,8.347,8.3489,8.3643,8.3671,8.3616,8.3461,8.347,8.374,8.4457,8.5261,8.6147,8.7171,8.7787,8.7942,8.753,8.7514,8.7348,8.6995,8.6224,8.58,8.58,8.5013,8.4205,8.3381,8.3381,8.2994,8.2186,8.2186,8.2186]}]]